Darstellungsparameter: Aktuell verwendete Einstellungen:
Skalierung der Graphiken ... ?
xyx+y,   Skalierungsfaktor:      Skalierung: Modus: x, Faktor: 1
Darstellungszeitraum ... ?
Vom - - bis: - -   Zeitraum: 30.03.2020 - 31.05.2020
Min/Max/Avg-Anzeige ... ?
Zeige MMA aktuell
Zeige MMA Monat
Zeige MMA alles
Zeige --A aktuell
Zeige --A Monat
Zeige --A alles
Keine MMA-Anzeige
MMA:
Keine MMA-Graphiken
MMA-Basis: 30.03.2020 - 31.05.2020
Quicknavigation für Darstellung... ?
Tage:      1T, 2T, 3T, 5T -1T -2T -3T -5T +1T +2T +3T +5T
Wochen: 1W, 2W, 3W -1W -2W -3W +1W +2W +3W
Monate: 1M, 3M, 6M -1M -3M -6M +1M +3M +6M
Jahre:    1J, 3J, 5J, 10J -1J -3J -5J -10J +1J +3J +5J +10J
Nutze für die Darstellung ... ?
Originaldaten oder Mittelwerte auf ...
Stundenbasis Tagesbasis Wochenbasis
Monatsbasis Jahresbasis      Datenbasis: Original-Daten
Darstellen als:
Statistik (Auto) Statistik J:M      Darstellung:
Zur Graphik,    zurück zur Übersicht aller Sensoren.
 
Tabellarische Datenbersicht: ?
 
Sensor: Nr:Datum:Temp:Feuchte:Taupunkt:
Aussen-T/F 1 30-03-2020 00:00:00 3.6 C 67 % -1.94 C
2 30-03-2020 00:05:00 3.4 C 67 % -2.13 C
3 30-03-2020 00:10:00 3.3 C 67 % -2.23 C
4 30-03-2020 00:15:00 3.3 C 66 % -2.43 C
5 30-03-2020 00:20:00 3.3 C 66 % -2.43 C
6 30-03-2020 00:25:00 3.3 C 67 % -2.23 C
7 30-03-2020 00:30:00 3.1 C 68 % -2.22 C
8 30-03-2020 00:35:00 2.9 C 69 % -2.21 C
9 30-03-2020 00:40:00 2.7 C 70 % -2.21 C
10 30-03-2020 00:45:00 2.4 C 70 % -2.5 C
11 30-03-2020 00:50:00 2.2 C 72 % -2.31 C
12 30-03-2020 00:55:00 1.9 C 73 % -2.41 C
13 30-03-2020 01:00:00 1.7 C 74 % -2.42 C
14 30-03-2020 01:05:00 1.5 C 74 % -2.62 C
15 30-03-2020 01:10:00 1.4 C 74 % -2.71 C
16 30-03-2020 01:15:00 1.4 C 74 % -2.71 C
17 30-03-2020 01:20:00 1.4 C 73 % -2.9 C
18 30-03-2020 01:25:00 1.4 C 73 % -2.9 C
19 30-03-2020 01:30:00 1.5 C 71 % -3.17 C
20 30-03-2020 01:35:00 1.4 C 73 % -2.9 C
21 30-03-2020 01:40:00 1.3 C 74 % -2.81 C
22 30-03-2020 01:45:00 1.1 C 75 % -2.82 C
23 30-03-2020 01:50:00 0.8 C 75 % -3.11 C
24 30-03-2020 01:55:00 0.6 C 76 % -3.13 C
25 30-03-2020 02:00:00 0.4 C 77 % -3.15 C
Sensor: Nr:Datum:Temp:Feuchte:Taupunkt:
Aussen-T/F 26 30-03-2020 02:05:00 0.3 C 76 % -3.42 C
27 30-03-2020 02:10:00 0.3 C 77 % -3.25 C
28 30-03-2020 02:15:00 0.2 C 77 % -3.34 C
29 30-03-2020 02:20:00 -0.1 C 78 % -3.47 C
30 30-03-2020 02:25:00 -0.3 C 78 % -3.66 C
31 30-03-2020 02:30:00 -0.5 C 79 % -3.69 C
32 30-03-2020 02:35:00 -0.7 C 80 % -3.71 C
33 30-03-2020 02:40:00 -0.7 C 80 % -3.71 C
34 30-03-2020 02:45:00 -0.8 C 81 % -3.64 C
35 30-03-2020 02:50:00 -0.8 C 81 % -3.64 C
36 30-03-2020 02:55:00 -0.9 C 81 % -3.74 C
37 30-03-2020 03:00:00 -0.9 C 81 % -3.74 C
38 30-03-2020 03:05:00 -1 C 80 % -4.01 C
39 30-03-2020 03:10:00 -1 C 80 % -4.01 C
40 30-03-2020 03:15:00 -1 C 81 % -3.84 C
41 30-03-2020 03:20:00 -1.1 C 81 % -3.94 C
42 30-03-2020 03:25:00 -1.1 C 81 % -3.94 C
43 30-03-2020 03:30:00 -1.2 C 82 % -3.87 C
44 30-03-2020 03:35:00 -1.3 C 82 % -3.97 C
45 30-03-2020 03:40:00 -1.4 C 82 % -4.07 C
46 30-03-2020 03:45:00 -1.4 C 82 % -4.07 C
47 30-03-2020 03:50:00 -1.5 C 83 % -4 C
48 30-03-2020 03:55:00 -1.6 C 83 % -4.1 C
49 30-03-2020 04:00:00 -1.6 C 83 % -4.1 C
50 30-03-2020 04:05:00 -1.6 C 83 % -4.1 C
Sensor: Nr:Datum:Temp:Feuchte:Taupunkt:
Aussen-T/F 51 30-03-2020 04:10:00 -1.6 C 83 % -4.1 C
52 30-03-2020 04:15:00 -1.6 C 84 % -3.94 C
53 30-03-2020 04:20:00 -1.6 C 83 % -4.1 C
54 30-03-2020 04:25:00 -1.7 C 83 % -4.2 C
55 30-03-2020 04:30:00 -1.7 C 83 % -4.2 C
56 30-03-2020 04:35:00 -1.8 C 83 % -4.3 C
57 30-03-2020 04:40:00 -1.8 C 83 % -4.3 C
58 30-03-2020 04:45:00 -1.9 C 83 % -4.4 C
59 30-03-2020 04:50:00 -2 C 83 % -4.49 C
60 30-03-2020 04:55:00 -2 C 83 % -4.49 C
61 30-03-2020 05:00:00 -1.9 C 83 % -4.4 C
62 30-03-2020 05:05:00 -1.8 C 82 % -4.46 C
63 30-03-2020 05:10:00 -1.8 C 82 % -4.46 C
64 30-03-2020 05:15:00 -1.8 C 81 % -4.62 C
65 30-03-2020 05:20:00 -1.9 C 81 % -4.72 C
66 30-03-2020 05:25:00 -1.9 C 81 % -4.72 C
67 30-03-2020 05:30:00 -2 C 81 % -4.82 C
68 30-03-2020 05:35:00 -2.1 C 81 % -4.91 C
69 30-03-2020 05:40:00 -2.2 C 81 % -5.01 C
70 30-03-2020 05:45:00 -2.3 C 82 % -4.95 C
71 30-03-2020 05:50:00 -2.4 C 82 % -5.05 C
72 30-03-2020 05:55:00 -2.5 C 82 % -5.14 C
73 30-03-2020 06:00:00 -2.6 C 82 % -5.24 C
74 30-03-2020 06:05:00 -2.7 C 82 % -5.34 C
75 30-03-2020 06:10:00 -2.7 C 82 % -5.34 C
Sensor: Nr:Datum:Temp:Feuchte:Taupunkt:
Aussen-T/F 76 30-03-2020 06:15:00 -2.8 C 83 % -5.28 C
77 30-03-2020 06:20:00 -2.9 C 83 % -5.38 C
78 30-03-2020 06:25:00 -3 C 84 % -5.32 C
79 30-03-2020 06:30:00 -3 C 84 % -5.32 C
80 30-03-2020 06:35:00 -3.1 C 84 % -5.41 C
81 30-03-2020 06:40:00 -3.1 C 84 % -5.41 C
82 30-03-2020 06:45:00 -3.1 C 84 % -5.41 C
83 30-03-2020 06:50:00 -2.9 C 85 % -5.06 C
84 30-03-2020 06:55:00 -2.9 C 85 % -5.06 C
85 30-03-2020 07:00:00 -2.8 C 84 % -5.12 C
86 30-03-2020 07:05:00 -2.9 C 84 % -5.22 C
87 30-03-2020 07:10:00 -2.9 C 84 % -5.22 C
88 30-03-2020 07:15:00 -2.9 C 84 % -5.22 C
89 30-03-2020 07:20:00 -2.9 C 84 % -5.22 C
90 30-03-2020 07:25:00 -2.9 C 83 % -5.38 C
91 30-03-2020 07:30:00 -3 C 83 % -5.47 C
92 30-03-2020 07:35:00 -3.1 C 83 % -5.57 C
93 30-03-2020 07:40:00 -3.2 C 84 % -5.51 C
94 30-03-2020 07:45:00 -3.3 C 84 % -5.61 C
95 30-03-2020 07:50:00 -3.3 C 84 % -5.61 C
96 30-03-2020 07:55:00 -3.4 C 84 % -5.71 C
97 30-03-2020 08:00:00 -3.4 C 84 % -5.71 C
98 30-03-2020 08:05:00 -3.4 C 85 % -5.55 C
99 30-03-2020 08:10:00 -3.4 C 85 % -5.55 C
100 30-03-2020 08:15:00 -3.3 C 85 % -5.45 C
Sensor: Nr:Datum:Temp:Feuchte:Taupunkt:
Aussen-T/F 101 30-03-2020 08:20:00 -3.3 C 85 % -5.45 C
102 30-03-2020 08:25:00 -3.3 C 85 % -5.45 C
103 30-03-2020 08:30:00 -3.3 C 85 % -5.45 C
104 30-03-2020 08:35:00 -3.2 C 85 % -5.36 C
105 30-03-2020 08:40:00 -3.1 C 85 % -5.26 C
106 30-03-2020 08:45:00 -3.1 C 85 % -5.26 C
107 30-03-2020 08:50:00 -3 C 85 % -5.16 C
108 30-03-2020 08:55:00 -2.9 C 84 % -5.22 C
109 30-03-2020 09:00:00 -2.8 C 84 % -5.12 C
110 30-03-2020 09:05:00 -2.7 C 83 % -5.18 C
111 30-03-2020 09:10:00 -2.6 C 83 % -5.08 C
112 30-03-2020 09:15:00 -2.5 C 82 % -5.14 C
113 30-03-2020 09:20:00 -2.4 C 81 % -5.21 C
114 30-03-2020 09:25:00 -2.3 C 81 % -5.11 C
115 30-03-2020 09:30:00 -2.2 C 80 % -5.18 C
116 30-03-2020 09:35:00 -2.1 C 80 % -5.08 C
117 30-03-2020 09:40:00 -1.9 C 79 % -5.05 C
118 30-03-2020 09:45:00 -1.8 C 79 % -4.95 C
119 30-03-2020 09:50:00 -1.7 C 80 % -4.69 C
120 30-03-2020 09:55:00 -1.7 C 80 % -4.69 C
121 30-03-2020 10:00:00 -1.6 C 80 % -4.59 C
122 30-03-2020 10:05:00 -1.5 C 79 % -4.66 C
123 30-03-2020 10:10:00 -1.4 C 80 % -4.4 C
124 30-03-2020 10:15:00 -1.3 C 80 % -4.3 C
125 30-03-2020 10:20:00 -1.2 C 80 % -4.2 C
Sensor: Nr:Datum:Temp:Feuchte:Taupunkt:
Aussen-T/F 126 30-03-2020 10:25:00 -1.1 C 78 % -4.44 C
127 30-03-2020 10:30:00 -0.9 C 77 % -4.42 C
128 30-03-2020 10:35:00 -0.7 C 75 % -4.57 C
129 30-03-2020 10:40:00 -0.3 C 71 % -4.91 C
130 30-03-2020 10:45:00 0.2 C 70 % -4.61 C
131 30-03-2020 10:50:00 0.8 C 61 % -5.85 C
132 30-03-2020 10:55:00 1.3 C 66 % -4.34 C
133 30-03-2020 11:00:00 1.4 C 60 % -5.5 C
134 30-03-2020 11:05:00 1.9 C 55 % -6.17 C
135 30-03-2020 11:10:00 2.2 C 54 % -6.12 C
136 30-03-2020 11:15:00 2.3 C 55 % -5.79 C
137 30-03-2020 11:20:00 2.4 C 52 % -6.43 C
138 30-03-2020 11:25:00 2.7 C 50 % -6.66 C
139 30-03-2020 11:30:00 2.8 C 50 % -6.57 C
140 30-03-2020 11:35:00 3.1 C 49 % -6.56 C
141 30-03-2020 11:40:00 3.3 C 47 % -6.91 C
142 30-03-2020 11:45:00 3.3 C 46 % -7.19 C
143 30-03-2020 11:50:00 3.4 C 47 % -6.82 C
144 30-03-2020 11:55:00 3.6 C 44 % -7.49 C
145 30-03-2020 12:00:00 3.7 C 45 % -7.11 C
146 30-03-2020 12:05:00 3.8 C 43 % -7.61 C
147 30-03-2020 12:10:00 4 C 42 % -7.73 C
148 30-03-2020 12:15:00 4.1 C 42 % -7.64 C
149 30-03-2020 12:20:00 4.2 C 40 % -8.17 C
150 30-03-2020 12:25:00 4.3 C 38 % -8.74 C
Sensor: Nr:Datum:Temp:Feuchte:Taupunkt:
Aussen-T/F 151 30-03-2020 12:30:00 4.4 C 38 % -8.65 C
152 30-03-2020 12:35:00 4.6 C 38 % -8.47 C
153 30-03-2020 12:40:00 4.8 C 37 % -8.63 C
154 30-03-2020 12:45:00 4.9 C 37 % -8.54 C
155 30-03-2020 12:50:00 5.1 C 38 % -8.02 C
156 30-03-2020 12:55:00 5.1 C 36 % -8.71 C
157 30-03-2020 13:00:00 5.3 C 36 % -8.54 C
158 30-03-2020 13:05:00 5.5 C 37 % -8.01 C
159 30-03-2020 13:10:00 5.7 C 38 % -7.49 C
160 30-03-2020 13:15:00 5.9 C 38 % -7.31 C
161 30-03-2020 13:20:00 5.9 C 37 % -7.65 C
162 30-03-2020 13:25:00 5.9 C 36 % -8 C
163 30-03-2020 13:30:00 6 C 38 % -7.22 C
164 30-03-2020 13:35:00 6.2 C 37 % -7.38 C
165 30-03-2020 13:40:00 6.3 C 36 % -7.65 C
166 30-03-2020 13:45:00 6.4 C 36 % -7.56 C
167 30-03-2020 13:50:00 6.3 C 36 % -7.65 C
168 30-03-2020 13:55:00 6.4 C 36 % -7.56 C
169 30-03-2020 14:00:00 6.6 C 35 % -7.74 C
170 30-03-2020 14:05:00 6.7 C 35 % -7.65 C
171 30-03-2020 14:10:00 6.8 C 33 % -8.32 C
172 30-03-2020 14:15:00 6.8 C 33 % -8.32 C
173 30-03-2020 14:20:00 7.1 C 33 % -8.06 C
174 30-03-2020 14:25:00 7.3 C 33 % -7.88 C
175 30-03-2020 14:30:00 7.3 C 35 % -7.12 C
Sensor: Nr:Datum:Temp:Feuchte:Taupunkt:
Aussen-T/F 176 30-03-2020 14:35:00 7.3 C 34 % -7.5 C
177 30-03-2020 14:40:00 7.4 C 33 % -7.79 C
178 30-03-2020 14:45:00 7.6 C 35 % -6.86 C
179 30-03-2020 14:50:00 7.7 C 35 % -6.77 C
180 30-03-2020 14:55:00 7.9 C 36 % -6.23 C
181 30-03-2020 15:00:00 8.1 C 35 % -6.41 C
182 30-03-2020 15:05:00 7.9 C 35 % -6.59 C
183 30-03-2020 15:10:00 7.8 C 36 % -6.31 C
184 30-03-2020 15:15:00 7.8 C 36 % -6.31 C
185 30-03-2020 15:20:00 8 C 36 % -6.14 C
186 30-03-2020 15:25:00 8 C 36 % -6.14 C
187 30-03-2020 15:30:00 8 C 38 % -5.43 C
188 30-03-2020 15:35:00 8.2 C 38 % -5.25 C
189 30-03-2020 15:40:00 8.2 C 37 % -5.6 C
190 30-03-2020 15:45:00 8.3 C 37 % -5.51 C
191 30-03-2020 15:50:00 8.3 C 38 % -5.16 C
192 30-03-2020 15:55:00 8.3 C 37 % -5.51 C
193 30-03-2020 16:00:00 8.4 C 37 % -5.42 C
194 30-03-2020 16:05:00 8.6 C 39 % -4.55 C
195 30-03-2020 16:10:00 8.8 C 38 % -4.71 C
196 30-03-2020 16:15:00 9.2 C 37 % -4.71 C
197 30-03-2020 16:20:00 9.2 C 38 % -4.36 C
198 30-03-2020 16:25:00 9.3 C 38 % -4.27 C
199 30-03-2020 16:30:00 9 C 38 % -4.54 C
200 30-03-2020 16:35:00 8.8 C 39 % -4.37 C
Sensor: Nr:Datum:Temp:Feuchte:Taupunkt:
Aussen-T/F 201 30-03-2020 16:40:00 9.1 C 40 % -3.77 C
202 30-03-2020 16:45:00 9.4 C 40 % -3.5 C
203 30-03-2020 16:50:00 9.5 C 39 % -3.74 C
204 30-03-2020 16:55:00 9.4 C 40 % -3.5 C
205 30-03-2020 17:00:00 9.1 C 40 % -3.77 C
206 30-03-2020 17:05:00 9.2 C 42 % -3.02 C
207 30-03-2020 17:10:00 9.8 C 40 % -3.14 C
208 30-03-2020 17:15:00 9.9 C 40 % -3.05 C
209 30-03-2020 17:20:00 9.8 C 39 % -3.48 C
210 30-03-2020 17:25:00 9.9 C 39 % -3.39 C
211 30-03-2020 17:30:00 9.6 C 40 % -3.32 C
212 30-03-2020 17:35:00 9.7 C 41 % -2.9 C
213 30-03-2020 17:40:00 9.7 C 42 % -2.57 C
214 30-03-2020 17:45:00 9.4 C 43 % -2.53 C
215 30-03-2020 17:50:00 9.2 C 44 % -2.4 C
216 30-03-2020 17:55:00 8.9 C 45 % -2.37 C
217 30-03-2020 18:00:00 8.8 C 46 % -2.17 C
218 30-03-2020 18:05:00 8.5 C 46 % -2.44 C
219 30-03-2020 18:10:00 8.2 C 47 % -2.42 C
220 30-03-2020 18:15:00 7.9 C 49 % -2.14 C
221 30-03-2020 18:20:00 8.1 C 50 % -1.68 C
222 30-03-2020 18:25:00 8.4 C 49 % -1.68 C
223 30-03-2020 18:30:00 8.7 C 48 % -1.68 C
224 30-03-2020 18:35:00 8.9 C 48 % -1.5 C
225 30-03-2020 18:40:00 8.8 C 47 % -1.87 C
Sensor: Nr:Datum:Temp:Feuchte:Taupunkt:
Aussen-T/F 226 30-03-2020 18:45:00 8.7 C 48 % -1.68 C
227 30-03-2020 18:50:00 8.7 C 49 % -1.4 C
228 30-03-2020 18:55:00 8.8 C 49 % -1.31 C
229 30-03-2020 19:00:00 8.6 C 49 % -1.49 C
230 30-03-2020 19:05:00 8.5 C 50 % -1.31 C
231 30-03-2020 19:10:00 8.3 C 50 % -1.5 C
232 30-03-2020 19:15:00 8.1 C 51 % -1.41 C
233 30-03-2020 19:20:00 7.8 C 52 % -1.43 C
234 30-03-2020 19:25:00 7.6 C 52 % -1.61 C
235 30-03-2020 19:30:00 7.4 C 53 % -1.54 C
236 30-03-2020 19:35:00 7.3 C 54 % -1.38 C
237 30-03-2020 19:40:00 7.2 C 54 % -1.47 C
238 30-03-2020 19:45:00 7 C 55 % -1.41 C
239 30-03-2020 19:50:00 6.8 C 56 % -1.35 C
240 30-03-2020 19:55:00 6.4 C 58 % -1.25 C
241 30-03-2020 20:00:00 5.9 C 59 % -1.48 C
242 30-03-2020 20:05:00 5.4 C 61 % -1.5 C
243 30-03-2020 20:10:00 4.9 C 62 % -1.75 C
244 30-03-2020 20:15:00 4.6 C 64 % -1.61 C
245 30-03-2020 20:20:00 4.3 C 65 % -1.68 C
246 30-03-2020 20:25:00 4.2 C 67 % -1.37 C
247 30-03-2020 20:30:00 4.1 C 68 % -1.26 C
248 30-03-2020 20:35:00 3.9 C 69 % -1.26 C
249 30-03-2020 20:40:00 3.8 C 69 % -1.35 C
250 30-03-2020 20:45:00 3.7 C 69 % -1.45 C
Sensor: Nr:Datum:Temp:Feuchte:Taupunkt:
Aussen-T/F 251 30-03-2020 20:50:00 3.6 C 70 % -1.35 C
252 30-03-2020 20:55:00 3.6 C 71 % -1.15 C
253 30-03-2020 21:00:00 3.5 C 72 % -1.06 C
254 30-03-2020 21:05:00 3.6 C 73 % -0.78 C
255 30-03-2020 21:10:00 3.6 C 73 % -0.78 C
256 30-03-2020 21:15:00 3.7 C 73 % -0.68 C
257 30-03-2020 21:20:00 3.7 C 74 % -0.49 C
258 30-03-2020 21:25:00 3.8 C 74 % -0.4 C
259 30-03-2020 21:30:00 3.8 C 74 % -0.4 C
260 30-03-2020 21:35:00 3.9 C 74 % -0.3 C
261 30-03-2020 21:40:00 4 C 74 % -0.2 C
262 30-03-2020 21:45:00 4 C 74 % -0.2 C
263 30-03-2020 21:50:00 4 C 74 % -0.2 C
264 30-03-2020 21:55:00 4.1 C 74 % -0.11 C
265 30-03-2020 22:00:00 4 C 74 % -0.2 C
266 30-03-2020 22:05:00 4 C 75 % -0.02 C
267 30-03-2020 22:10:00 3.9 C 75 % -0.12 C
268 30-03-2020 22:15:00 4 C 74 % -0.2 C
269 30-03-2020 22:20:00 4 C 74 % -0.2 C
270 30-03-2020 22:25:00 4.1 C 75 % 0.08 C
271 30-03-2020 22:30:00 4.1 C 73 % -0.29 C
272 30-03-2020 22:35:00 4.1 C 73 % -0.29 C
273 30-03-2020 22:40:00 4.2 C 73 % -0.2 C
274 30-03-2020 22:45:00 4.2 C 72 % -0.39 C
275 30-03-2020 22:50:00 4.3 C 72 % -0.29 C
Sensor: Nr:Datum:Temp:Feuchte:Taupunkt:
Aussen-T/F 276 30-03-2020 22:55:00 4.3 C 73 % -0.1 C
277 30-03-2020 23:00:00 4.3 C 72 % -0.29 C
278 30-03-2020 23:05:00 4.3 C 72 % -0.29 C
279 30-03-2020 23:10:00 4.3 C 72 % -0.29 C
280 30-03-2020 23:15:00 4.4 C 72 % -0.19 C
281 30-03-2020 23:20:00 4.4 C 73 % 0 C
282 30-03-2020 23:25:00 4.4 C 72 % -0.19 C
283 30-03-2020 23:30:00 4.4 C 72 % -0.19 C
284 30-03-2020 23:35:00 4.4 C 72 % -0.19 C
285 30-03-2020 23:40:00 4.4 C 73 % 0 C
286 30-03-2020 23:45:00 4.4 C 73 % 0 C
287 30-03-2020 23:50:00 4.4 C 73 % 0 C
288 30-03-2020 23:55:00 4.4 C 72 % -0.19 C
289 31-03-2020 00:00:00 4.4 C 72 % -0.19 C
290 31-03-2020 00:05:00 4.4 C 72 % -0.19 C
291 31-03-2020 00:10:00 4.4 C 72 % -0.19 C
292 31-03-2020 00:15:00 4.5 C 72 % -0.1 C
293 31-03-2020 00:20:00 4.5 C 72 % -0.1 C
294 31-03-2020 00:25:00 4.5 C 73 % 0.09 C
295 31-03-2020 00:30:00 4.5 C 73 % 0.09 C
296 31-03-2020 00:35:00 4.4 C 73 % 0 C
297 31-03-2020 00:40:00 4.5 C 73 % 0.09 C
298 31-03-2020 00:45:00 4.5 C 73 % 0.09 C
299 31-03-2020 00:50:00 4.6 C 73 % 0.19 C
300 31-03-2020 00:55:00 4.6 C 75 % 0.56 C
Sensor: Nr:Datum:Temp:Feuchte:Taupunkt:
Aussen-T/F 301 31-03-2020 01:00:00 4.7 C 75 % 0.66 C
302 31-03-2020 01:05:00 4.7 C 76 % 0.84 C
303 31-03-2020 01:10:00 4.7 C 76 % 0.84 C
304 31-03-2020 01:15:00 4.7 C 76 % 0.84 C
305 31-03-2020 01:20:00 4.7 C 77 % 1.02 C
306 31-03-2020 01:25:00 4.6 C 78 % 1.1 C
307 31-03-2020 01:30:00 4.5 C 79 % 1.18 C
308 31-03-2020 01:35:00 4.5 C 80 % 1.36 C
309 31-03-2020 01:40:00 4.5 C 80 % 1.36 C
310 31-03-2020 01:45:00 4.5 C 81 % 1.53 C
311 31-03-2020 01:50:00 4.6 C 81 % 1.63 C
312 31-03-2020 01:55:00 4.6 C 82 % 1.8 C
313 31-03-2020 02:00:00 4.6 C 82 % 1.8 C
314 31-03-2020 02:05:00 4.5 C 81 % 1.53 C
315 31-03-2020 02:10:00 4.4 C 82 % 1.6 C
316 31-03-2020 02:15:00 4.3 C 82 % 1.51 C
317 31-03-2020 02:20:00 4.2 C 83 % 1.58 C
318 31-03-2020 02:25:00 4.1 C 83 % 1.48 C
319 31-03-2020 02:30:00 4.1 C 84 % 1.65 C
320 31-03-2020 02:35:00 4.1 C 84 % 1.65 C
321 31-03-2020 02:40:00 4 C 84 % 1.55 C
322 31-03-2020 02:45:00 3.9 C 84 % 1.45 C
323 31-03-2020 02:50:00 3.8 C 84 % 1.35 C
324 31-03-2020 02:55:00 3.6 C 84 % 1.16 C
325 31-03-2020 03:00:00 3.4 C 85 % 1.12 C
Sensor: Nr:Datum:Temp:Feuchte:Taupunkt:
Aussen-T/F 326 31-03-2020 03:05:00 3.4 C 86 % 1.29 C
327 31-03-2020 03:10:00 3.3 C 86 % 1.19 C
328 31-03-2020 03:15:00 3.2 C 86 % 1.09 C
329 31-03-2020 03:20:00 3.2 C 87 % 1.25 C
330 31-03-2020 03:25:00 3.1 C 87 % 1.15 C
331 31-03-2020 03:30:00 3.1 C 88 % 1.31 C
332 31-03-2020 03:35:00 3.1 C 88 % 1.31 C
333 31-03-2020 03:40:00 3.1 C 88 % 1.31 C
334 31-03-2020 03:45:00 3 C 88 % 1.21 C
335 31-03-2020 03:50:00 2.9 C 88 % 1.11 C
336 31-03-2020 03:55:00 2.9 C 89 % 1.27 C
337 31-03-2020 04:00:00 3 C 89 % 1.37 C
338 31-03-2020 04:05:00 3.1 C 90 % 1.62 C
339 31-03-2020 04:10:00 3.2 C 90 % 1.72 C
340 31-03-2020 04:15:00 3.2 C 90 % 1.72 C
341 31-03-2020 04:20:00 3.3 C 90 % 1.82 C
342 31-03-2020 04:25:00 3.4 C 90 % 1.92 C
343 31-03-2020 04:30:00 3.4 C 90 % 1.92 C
344 31-03-2020 04:35:00 3.4 C 90 % 1.92 C
345 31-03-2020 04:40:00 3.5 C 90 % 2.02 C
346 31-03-2020 04:45:00 3.5 C 90 % 2.02 C
347 31-03-2020 04:50:00 3.6 C 90 % 2.12 C
348 31-03-2020 04:55:00 3.6 C 90 % 2.12 C
349 31-03-2020 05:00:00 3.7 C 90 % 2.22 C
350 31-03-2020 05:05:00 3.7 C 90 % 2.22 C
Sensor: Nr:Datum:Temp:Feuchte:Taupunkt:
Aussen-T/F 351 31-03-2020 05:10:00 3.7 C 89 % 2.06 C
352 31-03-2020 05:15:00 3.7 C 89 % 2.06 C
353 31-03-2020 05:20:00 3.6 C 89 % 1.96 C
354 31-03-2020 05:25:00 3.4 C 89 % 1.76 C
355 31-03-2020 05:30:00 3.3 C 89 % 1.67 C
356 31-03-2020 05:35:00 3.2 C 89 % 1.57 C
357 31-03-2020 05:40:00 3.1 C 88 % 1.31 C
358 31-03-2020 05:45:00 2.8 C 88 % 1.02 C
359 31-03-2020 05:50:00 2.7 C 88 % 0.92 C
360 31-03-2020 05:55:00 2.4 C 88 % 0.62 C
361 31-03-2020 06:00:00 2.3 C 88 % 0.52 C
362 31-03-2020 06:05:00 2.2 C 89 % 0.58 C
363 31-03-2020 06:10:00 2.1 C 89 % 0.48 C
364 31-03-2020 06:15:00 1.9 C 89 % 0.28 C
365 31-03-2020 06:20:00 1.9 C 90 % 0.44 C
366 31-03-2020 06:25:00 1.9 C 90 % 0.44 C
367 31-03-2020 06:30:00 2 C 91 % 0.69 C
368 31-03-2020 06:35:00 2.2 C 92 % 1.04 C
369 31-03-2020 06:40:00 2.3 C 92 % 1.14 C
370 31-03-2020 06:45:00 2.3 C 92 % 1.14 C
371 31-03-2020 06:50:00 2.4 C 92 % 1.24 C
372 31-03-2020 06:55:00 2.5 C 92 % 1.34 C
373 31-03-2020 07:00:00 2.6 C 92 % 1.43 C
374 31-03-2020 07:05:00 2.6 C 92 % 1.43 C
375 31-03-2020 07:10:00 2.7 C 92 % 1.53 C
Sensor: Nr:Datum:Temp:Feuchte:Taupunkt:
Aussen-T/F 376 31-03-2020 07:15:00 2.7 C 92 % 1.53 C
377 31-03-2020 07:20:00 2.7 C 92 % 1.53 C
378 31-03-2020 07:25:00 2.7 C 92 % 1.53 C
379 31-03-2020 07:30:00 2.7 C 92 % 1.53 C
380 31-03-2020 07:35:00 2.7 C 92 % 1.53 C
381 31-03-2020 07:40:00 2.7 C 92 % 1.53 C
382 31-03-2020 07:45:00 2.6 C 91 % 1.28 C
383 31-03-2020 07:50:00 2.6 C 92 % 1.43 C
384 31-03-2020 07:55:00 2.6 C 92 % 1.43 C
385 31-03-2020 08:00:00 2.7 C 92 % 1.53 C
386 31-03-2020 08:05:00 2.8 C 92 % 1.63 C
387 31-03-2020 08:10:00 2.9 C 92 % 1.73 C
388 31-03-2020 08:15:00 3.1 C 93 % 2.08 C
389 31-03-2020 08:20:00 3.3 C 92 % 2.13 C
390 31-03-2020 08:25:00 3.4 C 92 % 2.23 C
391 31-03-2020 08:30:00 3.6 C 91 % 2.27 C
392 31-03-2020 08:35:00 3.7 C 91 % 2.37 C
393 31-03-2020 08:40:00 3.8 C 89 % 2.16 C
394 31-03-2020 08:45:00 3.9 C 87 % 1.94 C
395 31-03-2020 08:50:00 4.1 C 85 % 1.81 C
396 31-03-2020 08:55:00 4.2 C 83 % 1.58 C
397 31-03-2020 09:00:00 4.3 C 81 % 1.34 C
398 31-03-2020 09:05:00 4.4 C 80 % 1.26 C
399 31-03-2020 09:10:00 4.4 C 78 % 0.91 C
400 31-03-2020 09:15:00 4.4 C 78 % 0.91 C
Sensor: Nr:Datum:Temp:Feuchte:Taupunkt:
Aussen-T/F 401 31-03-2020 09:20:00 4.4 C 77 % 0.73 C
402 31-03-2020 09:25:00 4.5 C 77 % 0.83 C
403 31-03-2020 09:30:00 4.5 C 77 % 0.83 C
404 31-03-2020 09:35:00 4.6 C 76 % 0.74 C
405 31-03-2020 09:40:00 4.6 C 75 % 0.56 C
406 31-03-2020 09:45:00 4.6 C 76 % 0.74 C
407 31-03-2020 09:50:00 4.7 C 73 % 0.28 C
408 31-03-2020 09:55:00 4.8 C 75 % 0.75 C
409 31-03-2020 10:00:00 4.9 C 74 % 0.67 C
410 31-03-2020 10:05:00 4.9 C 72 % 0.29 C
411 31-03-2020 10:10:00 4.9 C 73 % 0.48 C
412 31-03-2020 10:15:00 4.9 C 73 % 0.48 C
413 31-03-2020 10:20:00 4.9 C 73 % 0.48 C
414 31-03-2020 10:25:00 4.9 C 72 % 0.29 C
415 31-03-2020 10:30:00 4.8 C 72 % 0.19 C
416 31-03-2020 10:35:00 4.8 C 72 % 0.19 C
417 31-03-2020 10:40:00 4.8 C 71 % 0 C
418 31-03-2020 10:45:00 4.8 C 71 % 0 C
419 31-03-2020 10:50:00 4.8 C 70 % -0.2 C
420 31-03-2020 10:55:00 4.8 C 70 % -0.2 C
421 31-03-2020 11:00:00 4.8 C 70 % -0.2 C
422 31-03-2020 11:05:00 4.8 C 70 % -0.2 C
423 31-03-2020 11:10:00 4.8 C 69 % -0.39 C
424 31-03-2020 11:15:00 4.9 C 68 % -0.5 C
425 31-03-2020 11:20:00 5.1 C 68 % -0.31 C
Sensor: Nr:Datum:Temp:Feuchte:Taupunkt:
Aussen-T/F 426 31-03-2020 11:25:00 5.2 C 67 % -0.41 C
427 31-03-2020 11:30:00 5.4 C 66 % -0.43 C
428 31-03-2020 11:35:00 5.5 C 65 % -0.54 C
429 31-03-2020 11:40:00 5.6 C 64 % -0.66 C
430 31-03-2020 11:45:00 5.6 C 64 % -0.66 C
431 31-03-2020 11:50:00 5.6 C 64 % -0.66 C
432 31-03-2020 11:55:00 5.7 C 62 % -1 C
433 31-03-2020 12:00:00 5.8 C 62 % -0.9 C
434 31-03-2020 12:05:00 5.9 C 61 % -1.03 C
435 31-03-2020 12:10:00 6 C 61 % -0.94 C
436 31-03-2020 12:15:00 6.3 C 58 % -1.34 C
437 31-03-2020 12:20:00 6.6 C 56 % -1.54 C
438 31-03-2020 12:25:00 6.6 C 55 % -1.78 C
439 31-03-2020 12:30:00 6.8 C 55 % -1.59 C
440 31-03-2020 12:35:00 6.9 C 53 % -2 C
441 31-03-2020 12:40:00 7.2 C 54 % -1.47 C
442 31-03-2020 12:45:00 7.2 C 53 % -1.72 C
443 31-03-2020 12:50:00 7.2 C 53 % -1.72 C
444 31-03-2020 12:55:00 7.2 C 54 % -1.47 C
445 31-03-2020 13:00:00 7.2 C 52 % -1.98 C
446 31-03-2020 13:05:00 7.1 C 51 % -2.34 C
447 31-03-2020 13:10:00 6.9 C 51 % -2.52 C
448 31-03-2020 13:15:00 7 C 51 % -2.43 C
449 31-03-2020 13:20:00 7 C 49 % -2.97 C
450 31-03-2020 13:25:00 7.1 C 49 % -2.87 C
Sensor: Nr:Datum:Temp:Feuchte:Taupunkt:
Aussen-T/F 451 31-03-2020 13:30:00 7.2 C 48 % -3.06 C
452 31-03-2020 13:35:00 7.4 C 48 % -2.87 C
453 31-03-2020 13:40:00 7.7 C 46 % -3.17 C
454 31-03-2020 13:45:00 7.7 C 44 % -3.76 C
455 31-03-2020 13:50:00 7.8 C 44 % -3.67 C
456 31-03-2020 13:55:00 8 C 43 % -3.8 C
457 31-03-2020 14:00:00 8.2 C 43 % -3.62 C
458 31-03-2020 14:05:00 8.2 C 43 % -3.62 C
459 31-03-2020 14:10:00 8.2 C 44 % -3.31 C
460 31-03-2020 14:15:00 8.5 C 44 % -3.04 C
461 31-03-2020 14:20:00 8.8 C 45 % -2.46 C
462 31-03-2020 14:25:00 8.8 C 44 % -2.76 C
463 31-03-2020 14:30:00 8.7 C 44 % -2.85 C
464 31-03-2020 14:35:00 8.8 C 43 % -3.07 C
465 31-03-2020 14:40:00 8.7 C 42 % -3.48 C
466 31-03-2020 14:45:00 8.8 C 42 % -3.39 C
467 31-03-2020 14:50:00 8.8 C 42 % -3.39 C
468 31-03-2020 14:55:00 8.8 C 42 % -3.39 C
469 31-03-2020 15:00:00 8.9 C 42 % -3.3 C
470 31-03-2020 15:05:00 8.9 C 39 % -4.28 C
471 31-03-2020 15:10:00 8.8 C 42 % -3.39 C
472 31-03-2020 15:15:00 8.9 C 41 % -3.62 C
473 31-03-2020 15:20:00 8.9 C 41 % -3.62 C
474 31-03-2020 15:25:00 9 C 41 % -3.53 C
475 31-03-2020 15:30:00 9.1 C 41 % -3.44 C
Sensor: Nr:Datum:Temp:Feuchte:Taupunkt:
Aussen-T/F 476 31-03-2020 15:35:00 9.1 C 40 % -3.77 C
477 31-03-2020 15:40:00 9.1 C 40 % -3.77 C
478 31-03-2020 15:45:00 9.2 C 40 % -3.68 C
479 31-03-2020 15:50:00 9.3 C 39 % -3.92 C
480 31-03-2020 15:55:00 9.3 C 39 % -3.92 C
481 31-03-2020 16:00:00 9.5 C 40 % -3.41 C
482 31-03-2020 16:05:00 9.6 C 39 % -3.65 C
483 31-03-2020 16:10:00 9.6 C 38 % -4 C
484 31-03-2020 16:15:00 9.6 C 39 % -3.65 C
485 31-03-2020 16:20:00 9.7 C 39 % -3.57 C
486 31-03-2020 16:25:00 9.8 C 37 % -4.18 C
487 31-03-2020 16:30:00 9.9 C 37 % -4.09 C
488 31-03-2020 16:35:00 10 C 39 % -3.3 C
489 31-03-2020 16:40:00 10.1 C 37 % -3.91 C
490 31-03-2020 16:45:00 9.9 C 36 % -4.45 C
491 31-03-2020 16:50:00 10 C 38 % -3.64 C
492 31-03-2020 16:55:00 10.1 C 37 % -3.91 C
493 31-03-2020 17:00:00 10 C 36 % -4.36 C
494 31-03-2020 17:05:00 10.2 C 39 % -3.12 C
495 31-03-2020 17:10:00 10.6 C 36 % -3.83 C
496 31-03-2020 17:15:00 10.9 C 36 % -3.56 C
497 31-03-2020 17:20:00 11.2 C 36 % -3.3 C
498 31-03-2020 17:25:00 11.3 C 36 % -3.21 C
499 31-03-2020 17:30:00 11.3 C 34 % -3.97 C
500 31-03-2020 17:35:00 11.1 C 35 % -3.76 C
Sensor: Nr:Datum:Temp:Feuchte:Taupunkt:
Aussen-T/F 501 31-03-2020 17:40:00 11.1 C 35 % -3.76 C
502 31-03-2020 17:45:00 11 C 36 % -3.47 C
503 31-03-2020 17:50:00 10.9 C 34 % -4.32 C
504 31-03-2020 17:55:00 10.5 C 35 % -4.29 C
505 31-03-2020 18:00:00 10.5 C 35 % -4.29 C
506 31-03-2020 18:05:00 10.7 C 35 % -4.11 C
507 31-03-2020 18:10:00 10.8 C 36 % -3.65 C
508 31-03-2020 18:15:00 11.2 C 36 % -3.3 C
509 31-03-2020 18:20:00 11.3 C 35 % -3.58 C
510 31-03-2020 18:25:00 10.9 C 35 % -3.94 C
511 31-03-2020 18:30:00 10.7 C 37 % -3.38 C
512 31-03-2020 18:35:00 10.7 C 36 % -3.74 C
513 31-03-2020 18:40:00 10.6 C 36 % -3.83 C
514 31-03-2020 18:45:00 10.6 C 37 % -3.46 C
515 31-03-2020 18:50:00 10.7 C 35 % -4.11 C
516 31-03-2020 18:55:00 10.6 C 36 % -3.83 C
517 31-03-2020 19:00:00 10.6 C 36 % -3.83 C
518 31-03-2020 19:05:00 10.3 C 37 % -3.73 C
519 31-03-2020 19:10:00 10.1 C 36 % -4.27 C
520 31-03-2020 19:15:00 10.1 C 37 % -3.91 C
521 31-03-2020 19:20:00 10.1 C 37 % -3.91 C
522 31-03-2020 19:25:00 9.9 C 37 % -4.09 C
523 31-03-2020 19:30:00 9.8 C 38 % -3.82 C
524 31-03-2020 19:35:00 9.7 C 41 % -2.9 C
525 31-03-2020 19:40:00 9.4 C 41 % -3.17 C
Sensor: Nr:Datum:Temp:Feuchte:Taupunkt:
Aussen-T/F 526 31-03-2020 19:45:00 9.2 C 44 % -2.4 C
527 31-03-2020 19:50:00 8.7 C 47 % -1.97 C
528 31-03-2020 19:55:00 8.2 C 48 % -2.14 C
529 31-03-2020 20:00:00 7.6 C 51 % -1.87 C
530 31-03-2020 20:05:00 7 C 52 % -2.17 C
531 31-03-2020 20:10:00 6.5 C 54 % -2.12 C
532 31-03-2020 20:15:00 6.1 C 56 % -2 C
533 31-03-2020 20:20:00 5.7 C 56 % -2.38 C
534 31-03-2020 20:25:00 5.3 C 58 % -2.28 C
535 31-03-2020 20:30:00 5.1 C 59 % -2.24 C
536 31-03-2020 20:35:00 4.8 C 60 % -2.29 C
537 31-03-2020 20:40:00 4.6 C 61 % -2.26 C
538 31-03-2020 20:45:00 4.4 C 61 % -2.45 C
539 31-03-2020 20:50:00 4.2 C 62 % -2.42 C
540 31-03-2020 20:55:00 4.1 C 63 % -2.3 C
541 31-03-2020 21:00:00 3.9 C 63 % -2.49 C
542 31-03-2020 21:05:00 3.8 C 64 % -2.37 C
543 31-03-2020 21:10:00 3.7 C 64 % -2.46 C
544 31-03-2020 21:15:00 3.6 C 64 % -2.56 C
545 31-03-2020 21:20:00 3.5 C 64 % -2.65 C
546 31-03-2020 21:25:00 3.4 C 65 % -2.54 C
547 31-03-2020 21:30:00 3.3 C 64 % -2.84 C
548 31-03-2020 21:35:00 3.3 C 65 % -2.64 C
549 31-03-2020 21:40:00 3.2 C 66 % -2.53 C
550 31-03-2020 21:45:00 3.1 C 66 % -2.62 C
Sensor: Nr:Datum:Temp:Feuchte:Taupunkt:
Aussen-T/F 551 31-03-2020 21:50:00 3 C 66 % -2.72 C
552 31-03-2020 21:55:00 2.9 C 66 % -2.81 C
553 31-03-2020 22:00:00 2.8 C 66 % -2.91 C
554 31-03-2020 22:05:00 2.8 C 67 % -2.7 C
555 31-03-2020 22:10:00 2.7 C 67 % -2.8 C
556 31-03-2020 22:15:00 2.6 C 68 % -2.7 C
557 31-03-2020 22:20:00 2.5 C 68 % -2.79 C
558 31-03-2020 22:25:00 2.4 C 68 % -2.89 C
559 31-03-2020 22:30:00 2.3 C 68 % -2.98 C
560 31-03-2020 22:35:00 2.3 C 69 % -2.79 C
561 31-03-2020 22:40:00 2.2 C 69 % -2.88 C
562 31-03-2020 22:45:00 2.2 C 70 % -2.69 C
563 31-03-2020 22:50:00 2.1 C 69 % -2.98 C
564 31-03-2020 22:55:00 2 C 70 % -2.88 C
565 31-03-2020 23:00:00 1.9 C 70 % -2.98 C
566 31-03-2020 23:05:00 1.8 C 71 % -2.88 C
567 31-03-2020 23:10:00 1.7 C 71 % -2.98 C
568 31-03-2020 23:15:00 1.7 C 72 % -2.79 C
569 31-03-2020 23:20:00 1.6 C 72 % -2.89 C
570 31-03-2020 23:25:00 1.4 C 73 % -2.9 C
571 31-03-2020 23:30:00 1.3 C 73 % -2.99 C
572 31-03-2020 23:35:00 1.2 C 73 % -3.09 C
573 31-03-2020 23:40:00 1.2 C 74 % -2.91 C
574 31-03-2020 23:45:00 1.1 C 74 % -3 C
575 31-03-2020 23:50:00 1.1 C 74 % -3 C
Sensor: Nr:Datum:Temp:Feuchte:Taupunkt:
Aussen-T/F 576 31-03-2020 23:55:00 1.1 C 74 % -3 C
577 01-04-2020 00:00:00 1 C 74 % -3.1 C
578 01-04-2020 00:05:00 0.9 C 74 % -3.2 C
579 01-04-2020 00:10:00 0.8 C 75 % -3.11 C
580 01-04-2020 00:15:00 0.8 C 75 % -3.11 C
581 01-04-2020 00:20:00 0.7 C 75 % -3.21 C
582 01-04-2020 00:25:00 0.6 C 75 % -3.31 C
583 01-04-2020 00:30:00 0.6 C 75 % -3.31 C
584 01-04-2020 00:35:00 0.4 C 75 % -3.5 C
585 01-04-2020 00:40:00 0.4 C 75 % -3.5 C
586 01-04-2020 00:45:00 0.3 C 76 % -3.42 C
587 01-04-2020 00:50:00 0.3 C 75 % -3.6 C
588 01-04-2020 00:55:00 0.3 C 76 % -3.42 C
589 01-04-2020 01:00:00 0.2 C 76 % -3.52 C
590 01-04-2020 01:05:00 0.2 C 77 % -3.34 C
591 01-04-2020 01:10:00 0.1 C 77 % -3.44 C
592 01-04-2020 01:15:00 0.1 C 78 % -3.27 C
593 01-04-2020 01:20:00 0 C 78 % -3.37 C
594 01-04-2020 01:25:00 -0.1 C 78 % -3.47 C
595 01-04-2020 01:30:00 -0.2 C 78 % -3.56 C
596 01-04-2020 01:35:00 -0.2 C 78 % -3.56 C
597 01-04-2020 01:40:00 -0.3 C 79 % -3.49 C
598 01-04-2020 01:45:00 -0.4 C 79 % -3.59 C
599 01-04-2020 01:50:00 -0.5 C 79 % -3.69 C
600 01-04-2020 01:55:00 -0.6 C 79 % -3.78 C
Sensor: Nr:Datum:Temp:Feuchte:Taupunkt:
Aussen-T/F 601 01-04-2020 02:00:00 -0.7 C 79 % -3.88 C
602 01-04-2020 02:05:00 -0.8 C 79 % -3.98 C
603 01-04-2020 02:10:00 -0.8 C 80 % -3.81 C
604 01-04-2020 02:15:00 -0.9 C 80 % -3.91 C
605 01-04-2020 02:20:00 -0.9 C 80 % -3.91 C
606 01-04-2020 02:25:00 -1 C 80 % -4.01 C
607 01-04-2020 02:30:00 -1.1 C 80 % -4.1 C
608 01-04-2020 02:35:00 -1.1 C 80 % -4.1 C
609 01-04-2020 02:40:00 -1.2 C 80 % -4.2 C
610 01-04-2020 02:45:00 -1.2 C 81 % -4.04 C
611 01-04-2020 02:50:00 -1.3 C 81 % -4.13 C
612 01-04-2020 02:55:00 -1.3 C 81 % -4.13 C
613 01-04-2020 03:00:00 -1.3 C 81 % -4.13 C
614 01-04-2020 03:05:00 -1.4 C 80 % -4.4 C
615 01-04-2020 03:10:00 -1.4 C 80 % -4.4 C
616 01-04-2020 03:15:00 -1.5 C 80 % -4.49 C
617 01-04-2020 03:20:00 -1.6 C 81 % -4.43 C
618 01-04-2020 03:25:00 -1.7 C 81 % -4.52 C
619 01-04-2020 03:30:00 -1.7 C 81 % -4.52 C
620 01-04-2020 03:35:00 -1.7 C 81 % -4.52 C
621 01-04-2020 03:40:00 -1.8 C 81 % -4.62 C
622 01-04-2020 03:45:00 -1.8 C 80 % -4.79 C
623 01-04-2020 03:50:00 -1.9 C 81 % -4.72 C
624 01-04-2020 03:55:00 -1.9 C 81 % -4.72 C
625 01-04-2020 04:00:00 -1.9 C 81 % -4.72 C
Sensor: Nr:Datum:Temp:Feuchte:Taupunkt:
Aussen-T/F 626 01-04-2020 04:05:00 -1.9 C 81 % -4.72 C
627 01-04-2020 04:10:00 -2 C 81 % -4.82 C
628 01-04-2020 04:15:00 -2.1 C 81 % -4.91 C
629 01-04-2020 04:20:00 -2.1 C 81 % -4.91 C
630 01-04-2020 04:25:00 -2.2 C 80 % -5.18 C
631 01-04-2020 04:30:00 -2.2 C 81 % -5.01 C
632 01-04-2020 04:35:00 -2.3 C 81 % -5.11 C
633 01-04-2020 04:40:00 -2.3 C 81 % -5.11 C
634 01-04-2020 04:45:00 -2.3 C 81 % -5.11 C
635 01-04-2020 04:50:00 -2.4 C 81 % -5.21 C
636 01-04-2020 04:55:00 -2.4 C 81 % -5.21 C
637 01-04-2020 05:00:00 -2.4 C 82 % -5.05 C
638 01-04-2020 05:05:00 -2.5 C 82 % -5.14 C
639 01-04-2020 05:10:00 -2.6 C 82 % -5.24 C
640 01-04-2020 05:15:00 -2.6 C 82 % -5.24 C
641 01-04-2020 05:20:00 -2.7 C 82 % -5.34 C
642 01-04-2020 05:25:00 -2.7 C 83 % -5.18 C
643 01-04-2020 05:30:00 -2.7 C 83 % -5.18 C
644 01-04-2020 05:35:00 -2.7 C 83 % -5.18 C
645 01-04-2020 05:40:00 -2.7 C 83 % -5.18 C
646 01-04-2020 05:45:00 -2.8 C 83 % -5.28 C
647 01-04-2020 05:50:00 -2.8 C 83 % -5.28 C
648 01-04-2020 05:55:00 -2.8 C 83 % -5.28 C
649 01-04-2020 06:00:00 -2.9 C 83 % -5.38 C
650 01-04-2020 06:05:00 -2.9 C 83 % -5.38 C
Sensor: Nr:Datum:Temp:Feuchte:Taupunkt:
Aussen-T/F 651 01-04-2020 06:10:00 -2.9 C 84 % -5.22 C
652 01-04-2020 06:15:00 -3 C 84 % -5.32 C
653 01-04-2020 06:20:00 -3 C 84 % -5.32 C
654 01-04-2020 06:25:00 -3.1 C 84 % -5.41 C
655 01-04-2020 06:30:00 -3.1 C 84 % -5.41 C
656 01-04-2020 06:35:00 -3.1 C 85 % -5.26 C
657 01-04-2020 06:40:00 -3.1 C 85 % -5.26 C
658 01-04-2020 06:45:00 -3.1 C 85 % -5.26 C
659 01-04-2020 06:50:00 -3.2 C 85 % -5.36 C
660 01-04-2020 06:55:00 -3.2 C 85 % -5.36 C
661 01-04-2020 07:00:00 -3.2 C 85 % -5.36 C
662 01-04-2020 07:05:00 -3.3 C 85 % -5.45 C
663 01-04-2020 07:10:00 -3.3 C 85 % -5.45 C
664 01-04-2020 07:15:00 -3.4 C 85 % -5.55 C
665 01-04-2020 07:20:00 -3.4 C 85 % -5.55 C
666 01-04-2020 07:25:00 -3.4 C 85 % -5.55 C
667 01-04-2020 07:30:00 -3.4 C 86 % -5.4 C
668 01-04-2020 07:35:00 -3.3 C 86 % -5.3 C
669 01-04-2020 07:40:00 -3.3 C 85 % -5.45 C
670 01-04-2020 07:45:00 -3.3 C 85 % -5.45 C
671 01-04-2020 07:50:00 -3.3 C 86 % -5.3 C
672 01-04-2020 07:55:00 -3.3 C 86 % -5.3 C
673 01-04-2020 08:00:00 -3.2 C 86 % -5.2 C
674 01-04-2020 08:05:00 -3.2 C 86 % -5.2 C
675 01-04-2020 08:10:00 -3.2 C 86 % -5.2 C
Sensor: Nr:Datum:Temp:Feuchte:Taupunkt:
Aussen-T/F 676 01-04-2020 08:15:00 -3.1 C 87 % -4.95 C
677 01-04-2020 08:20:00 -2.9 C 87 % -4.76 C
678 01-04-2020 08:25:00 -2.9 C 87 % -4.76 C
679 01-04-2020 08:30:00 -2.9 C 86 % -4.91 C
680 01-04-2020 08:35:00 -2.8 C 86 % -4.81 C
681 01-04-2020 08:40:00 -2.8 C 86 % -4.81 C
682 01-04-2020 08:45:00 -2.8 C 86 % -4.81 C
683 01-04-2020 08:50:00 -2.8 C 86 % -4.81 C
684 01-04-2020 08:55:00 -2.7 C 86 % -4.71 C
685 01-04-2020 09:00:00 -2.6 C 85 % -4.77 C
686 01-04-2020 09:05:00 -2.6 C 85 % -4.77 C
687 01-04-2020 09:10:00 -2.4 C 85 % -4.57 C
688 01-04-2020 09:15:00 -2.3 C 85 % -4.47 C
689 01-04-2020 09:20:00 -2.3 C 85 % -4.47 C
690 01-04-2020 09:25:00 -2.2 C 85 % -4.37 C
691 01-04-2020 09:30:00 -2.1 C 85 % -4.28 C
692 01-04-2020 09:35:00 -1.9 C 84 % -4.24 C
693 01-04-2020 09:40:00 -1.8 C 84 % -4.14 C
694 01-04-2020 09:45:00 -1.7 C 84 % -4.04 C
695 01-04-2020 09:50:00 -1.7 C 84 % -4.04 C
696 01-04-2020 09:55:00 -1.6 C 84 % -3.94 C
697 01-04-2020 10:00:00 -1.4 C 84 % -3.75 C
698 01-04-2020 10:05:00 -1.3 C 84 % -3.65 C
699 01-04-2020 10:10:00 -1.1 C 84 % -3.45 C
700 01-04-2020 10:15:00 -0.9 C 84 % -3.26 C
Sensor: Nr:Datum:Temp:Feuchte:Taupunkt:
Aussen-T/F 701 01-04-2020 10:20:00 -0.6 C 84 % -2.96 C
702 01-04-2020 10:25:00 -0.3 C 83 % -2.83 C
703 01-04-2020 10:30:00 -0.1 C 83 % -2.63 C
704 01-04-2020 10:35:00 0.2 C 82 % -2.5 C
705 01-04-2020 10:40:00 0.6 C 82 % -2.11 C
706 01-04-2020 10:45:00 0.9 C 81 % -1.98 C
707 01-04-2020 10:50:00 1.3 C 79 % -1.93 C
708 01-04-2020 10:55:00 1.8 C 78 % -1.62 C
709 01-04-2020 11:00:00 2.3 C 76 % -1.48 C
710 01-04-2020 11:05:00 2.6 C 75 % -1.37 C
711 01-04-2020 11:10:00 2.8 C 74 % -1.36 C
712 01-04-2020 11:15:00 3.1 C 71 % -1.63 C
713 01-04-2020 11:20:00 3.3 C 69 % -1.83 C
714 01-04-2020 11:25:00 3.7 C 64 % -2.46 C
715 01-04-2020 11:30:00 3.9 C 62 % -2.7 C
716 01-04-2020 11:35:00 4.3 C 58 % -3.22 C
717 01-04-2020 11:40:00 4.7 C 59 % -2.61 C
718 01-04-2020 11:45:00 5.1 C 57 % -2.7 C
719 01-04-2020 11:50:00 5.4 C 54 % -3.14 C
720 01-04-2020 11:55:00 5.7 C 50 % -3.89 C
721 01-04-2020 12:00:00 6 C 50 % -3.62 C
722 01-04-2020 12:05:00 6.3 C 48 % -3.88 C
723 01-04-2020 12:10:00 6.7 C 48 % -3.52 C
724 01-04-2020 12:15:00 6.8 C 47 % -3.71 C
725 01-04-2020 12:20:00 7.1 C 46 % -3.72 C
Sensor: Nr:Datum:Temp:Feuchte:Taupunkt:
Aussen-T/F 726 01-04-2020 12:25:00 7.3 C 47 % -3.25 C
727 01-04-2020 12:30:00 7.6 C 45 % -3.55 C
728 01-04-2020 12:35:00 7.7 C 45 % -3.46 C
729 01-04-2020 12:40:00 7.8 C 44 % -3.67 C
730 01-04-2020 12:45:00 7.9 C 43 % -3.89 C
731 01-04-2020 12:50:00 8.1 C 44 % -3.4 C
732 01-04-2020 12:55:00 8.2 C 43 % -3.62 C
733 01-04-2020 13:00:00 8.3 C 44 % -3.22 C
734 01-04-2020 13:05:00 8.6 C 42 % -3.57 C
735 01-04-2020 13:10:00 8.6 C 42 % -3.57 C
736 01-04-2020 13:15:00 8.7 C 42 % -3.48 C
737 01-04-2020 13:20:00 8.8 C 41 % -3.71 C
738 01-04-2020 13:25:00 8.7 C 40 % -4.13 C
739 01-04-2020 13:30:00 8.7 C 41 % -3.8 C
740 01-04-2020 13:35:00 8.8 C 41 % -3.71 C
741 01-04-2020 13:40:00 8.9 C 41 % -3.62 C
742 01-04-2020 13:45:00 9.2 C 40 % -3.68 C
743 01-04-2020 13:50:00 9.2 C 40 % -3.68 C
744 01-04-2020 13:55:00 9.2 C 40 % -3.68 C
745 01-04-2020 14:00:00 9.2 C 40 % -3.68 C
746 01-04-2020 14:05:00 9.3 C 40 % -3.59 C
747 01-04-2020 14:10:00 9.4 C 40 % -3.5 C
748 01-04-2020 14:15:00 9.5 C 39 % -3.74 C
749 01-04-2020 14:20:00 9.8 C 40 % -3.14 C
750 01-04-2020 14:25:00 9.9 C 40 % -3.05 C
Sensor: Nr:Datum:Temp:Feuchte:Taupunkt:
Aussen-T/F 751 01-04-2020 14:30:00 10.1 C 38 % -3.55 C
752 01-04-2020 14:35:00 10.3 C 37 % -3.73 C
753 01-04-2020 14:40:00 10.3 C 36 % -4.1 C
754 01-04-2020 14:45:00 10.3 C 37 % -3.73 C
755 01-04-2020 14:50:00 10.3 C 34 % -4.85 C
756 01-04-2020 14:55:00 10.3 C 34 % -4.85 C
757 01-04-2020 15:00:00 10.3 C 34 % -4.85 C
758 01-04-2020 15:05:00 10.2 C 34 % -4.94 C
759 01-04-2020 15:10:00 10.3 C 35 % -4.47 C
760 01-04-2020 15:15:00 10.4 C 36 % -4.01 C
761 01-04-2020 15:20:00 10.7 C 34 % -4.5 C
762 01-04-2020 15:25:00 10.8 C 33 % -4.81 C
763 01-04-2020 15:30:00 10.7 C 33 % -4.89 C
764 01-04-2020 15:35:00 10.7 C 33 % -4.89 C
765 01-04-2020 15:40:00 10.8 C 33 % -4.81 C
766 01-04-2020 15:45:00 10.9 C 31 % -5.54 C
767 01-04-2020 15:50:00 11 C 31 % -5.45 C
768 01-04-2020 15:55:00 11.1 C 31 % -5.37 C
769 01-04-2020 16:00:00 11.1 C 33 % -4.54 C
770 01-04-2020 16:05:00 11.1 C 33 % -4.54 C
771 01-04-2020 16:10:00 11.2 C 34 % -4.06 C
772 01-04-2020 16:15:00 11.4 C 33 % -4.28 C
773 01-04-2020 16:20:00 11.5 C 32 % -4.6 C
774 01-04-2020 16:25:00 11.6 C 31 % -4.93 C
775 01-04-2020 16:30:00 11.6 C 31 % -4.93 C
Sensor: Nr:Datum:Temp:Feuchte:Taupunkt:
Aussen-T/F 776 01-04-2020 16:35:00 11.7 C 30 % -5.27 C
777 01-04-2020 16:40:00 11.8 C 33 % -3.93 C
778 01-04-2020 16:45:00 12.2 C 32 % -3.99 C
779 01-04-2020 16:50:00 12.6 C 32 % -3.64 C
780 01-04-2020 16:55:00 12.6 C 33 % -3.23 C
781 01-04-2020 17:00:00 12.6 C 32 % -3.64 C
782 01-04-2020 17:05:00 12.4 C 32 % -3.81 C
783 01-04-2020 17:10:00 12.9 C 36 % -1.79 C
784 01-04-2020 17:15:00 13.2 C 33 % -2.7 C
785 01-04-2020 17:20:00 13.2 C 32 % -3.11 C
786 01-04-2020 17:25:00 13.3 C 33 % -2.61 C
787 01-04-2020 17:30:00 13.2 C 31 % -3.54 C
788 01-04-2020 17:35:00 13.3 C 31 % -3.45 C
789 01-04-2020 17:40:00 13.3 C 31 % -3.45 C
790 01-04-2020 17:45:00 13.2 C 32 % -3.11 C
791 01-04-2020 17:50:00 13.2 C 32 % -3.11 C
792 01-04-2020 17:55:00 13.1 C 32 % -3.2 C
793 01-04-2020 18:00:00 12.9 C 32 % -3.37 C
794 01-04-2020 18:05:00 12.6 C 33 % -3.23 C
795 01-04-2020 18:10:00 12.5 C 33 % -3.31 C
796 01-04-2020 18:15:00 12.6 C 33 % -3.23 C
797 01-04-2020 18:20:00 12.7 C 33 % -3.14 C
798 01-04-2020 18:25:00 12.9 C 33 % -2.96 C
799 01-04-2020 18:30:00 12.9 C 32 % -3.37 C
800 01-04-2020 18:35:00 13 C 33 % -2.87 C
Sensor: Nr:Datum:Temp:Feuchte:Taupunkt:
Aussen-T/F 801 01-04-2020 18:40:00 13.1 C 33 % -2.79 C
802 01-04-2020 18:45:00 13.2 C 32 % -3.11 C
803 01-04-2020 18:50:00 13.2 C 32 % -3.11 C
804 01-04-2020 18:55:00 13.2 C 33 % -2.7 C
805 01-04-2020 19:00:00 13.3 C 32 % -3.02 C
806 01-04-2020 19:05:00 13 C 33 % -2.87 C
807 01-04-2020 19:10:00 12.8 C 33 % -3.05 C
808 01-04-2020 19:15:00 12.7 C 33 % -3.14 C
809 01-04-2020 19:20:00 12.4 C 34 % -3 C
810 01-04-2020 19:25:00 12.2 C 34 % -3.18 C
811 01-04-2020 19:30:00 11.8 C 34 % -3.53 C
812 01-04-2020 19:35:00 11.5 C 35 % -3.41 C
813 01-04-2020 19:40:00 11.2 C 35 % -3.67 C
814 01-04-2020 19:45:00 10.9 C 36 % -3.56 C
815 01-04-2020 19:50:00 10.7 C 36 % -3.74 C
816 01-04-2020 19:55:00 10.4 C 39 % -2.94 C
817 01-04-2020 20:00:00 10.1 C 38 % -3.55 C
818 01-04-2020 20:05:00 9.7 C 40 % -3.23 C
819 01-04-2020 20:10:00 9.4 C 42 % -2.84 C
820 01-04-2020 20:15:00 9.2 C 39 % -4.01 C
821 01-04-2020 20:20:00 9.1 C 39 % -4.1 C
822 01-04-2020 20:25:00 9.1 C 41 % -3.44 C
823 01-04-2020 20:30:00 8.8 C 44 % -2.76 C
824 01-04-2020 20:35:00 8.4 C 46 % -2.53 C
825 01-04-2020 20:40:00 7.8 C 49 % -2.23 C
Sensor: Nr:Datum:Temp:Feuchte:Taupunkt:
Aussen-T/F 826 01-04-2020 20:45:00 7.4 C 51 % -2.06 C
827 01-04-2020 20:50:00 6.9 C 54 % -1.75 C
828 01-04-2020 20:55:00 6.6 C 54 % -2.03 C
829 01-04-2020 21:00:00 6.3 C 55 % -2.06 C
830 01-04-2020 21:05:00 6 C 56 % -2.1 C
831 01-04-2020 21:10:00 5.7 C 57 % -2.14 C
832 01-04-2020 21:15:00 5.6 C 57 % -2.23 C
833 01-04-2020 21:20:00 5.4 C 59 % -1.95 C
834 01-04-2020 21:25:00 5.3 C 59 % -2.05 C
835 01-04-2020 21:30:00 5.2 C 59 % -2.14 C
836 01-04-2020 21:35:00 5.1 C 60 % -2.01 C
837 01-04-2020 21:40:00 5 C 60 % -2.1 C
838 01-04-2020 21:45:00 4.9 C 61 % -1.97 C
839 01-04-2020 21:50:00 4.7 C 62 % -1.94 C
840 01-04-2020 21:55:00 4.6 C 63 % -1.82 C
841 01-04-2020 22:00:00 4.4 C 62 % -2.23 C
842 01-04-2020 22:05:00 4.3 C 63 % -2.11 C
843 01-04-2020 22:10:00 4.2 C 64 % -1.99 C
844 01-04-2020 22:15:00 4 C 64 % -2.18 C
845 01-04-2020 22:20:00 3.9 C 65 % -2.06 C
846 01-04-2020 22:25:00 3.7 C 66 % -2.05 C
847 01-04-2020 22:30:00 3.6 C 66 % -2.14 C
848 01-04-2020 22:35:00 3.5 C 66 % -2.24 C
849 01-04-2020 22:40:00 3.5 C 66 % -2.24 C
850 01-04-2020 22:45:00 3.4 C 66 % -2.33 C
Sensor: Nr:Datum:Temp:Feuchte:Taupunkt:
Aussen-T/F 851 01-04-2020 22:50:00 3.3 C 67 % -2.23 C
852 01-04-2020 22:55:00 3.2 C 68 % -2.12 C
853 01-04-2020 23:00:00 3.1 C 69 % -2.02 C
854 01-04-2020 23:05:00 2.9 C 70 % -2.02 C
855 01-04-2020 23:10:00 2.7 C 70 % -2.21 C
856 01-04-2020 23:15:00 2.7 C 71 % -2.02 C
857 01-04-2020 23:20:00 2.7 C 71 % -2.02 C
858 01-04-2020 23:25:00 2.6 C 72 % -1.93 C
859 01-04-2020 23:30:00 2.4 C 71 % -2.31 C
860 01-04-2020 23:35:00 2.3 C 71 % -2.4 C
861 01-04-2020 23:40:00 2.2 C 72 % -2.31 C
862 01-04-2020 23:45:00 2 C 73 % -2.32 C
863 01-04-2020 23:50:00 1.9 C 73 % -2.41 C
864 01-04-2020 23:55:00 1.8 C 73 % -2.51 C
865 02-04-2020 00:00:00 1.8 C 73 % -2.51 C
866 02-04-2020 00:05:00 1.6 C 74 % -2.52 C
867 02-04-2020 00:10:00 1.4 C 74 % -2.71 C
868 02-04-2020 00:15:00 1.3 C 74 % -2.81 C
869 02-04-2020 00:20:00 1.3 C 74 % -2.81 C
870 02-04-2020 00:25:00 1.2 C 74 % -2.91 C
871 02-04-2020 00:30:00 1.1 C 75 % -2.82 C
872 02-04-2020 00:35:00 1 C 75 % -2.92 C
873 02-04-2020 00:40:00 1 C 76 % -2.74 C
874 02-04-2020 00:45:00 1 C 76 % -2.74 C
875 02-04-2020 00:50:00 1 C 76 % -2.74 C
Sensor: Nr:Datum:Temp:Feuchte:Taupunkt:
Aussen-T/F 876 02-04-2020 00:55:00 0.9 C 76 % -2.84 C
877 02-04-2020 01:00:00 0.8 C 77 % -2.76 C
878 02-04-2020 01:05:00 0.8 C 77 % -2.76 C
879 02-04-2020 01:10:00 0.7 C 77 % -2.86 C
880 02-04-2020 01:15:00 0.6 C 78 % -2.78 C
881 02-04-2020 01:20:00 0.5 C 78 % -2.88 C
882 02-04-2020 01:25:00 0.3 C 79 % -2.9 C
883 02-04-2020 01:30:00 0.3 C 79 % -2.9 C
884 02-04-2020 01:35:00 0.2 C 79 % -3 C
885 02-04-2020 01:40:00 0.2 C 79 % -3 C
886 02-04-2020 01:45:00 0.2 C 79 % -3 C
887 02-04-2020 01:50:00 0.1 C 80 % -2.93 C
888 02-04-2020 01:55:00 0.1 C 80 % -2.93 C
889 02-04-2020 02:00:00 0 C 80 % -3.03 C
890 02-04-2020 02:05:00 0 C 80 % -3.03 C
891 02-04-2020 02:10:00 0.1 C 80 % -2.93 C
892 02-04-2020 02:15:00 0 C 80 % -3.03 C
893 02-04-2020 02:20:00 -0.1 C 80 % -3.13 C
894 02-04-2020 02:25:00 -0.1 C 80 % -3.13 C
895 02-04-2020 02:30:00 -0.2 C 81 % -3.06 C
896 02-04-2020 02:35:00 -0.3 C 81 % -3.16 C
897 02-04-2020 02:40:00 -0.3 C 81 % -3.16 C
898 02-04-2020 02:45:00 -0.4 C 81 % -3.25 C
899 02-04-2020 02:50:00 -0.4 C 81 % -3.25 C
900 02-04-2020 02:55:00 -0.5 C 82 % -3.19 C
Sensor: Nr:Datum:Temp:Feuchte:Taupunkt:
Aussen-T/F 901 02-04-2020 03:00:00 -0.6 C 82 % -3.29 C
902 02-04-2020 03:05:00 -0.6 C 82 % -3.29 C
903 02-04-2020 03:10:00 -0.6 C 82 % -3.29 C
904 02-04-2020 03:15:00 -0.5 C 82 % -3.19 C
905 02-04-2020 03:20:00 -0.5 C 82 % -3.19 C
906 02-04-2020 03:25:00 -0.5 C 82 % -3.19 C
907 02-04-2020 03:30:00 -0.6 C 82 % -3.29 C
908 02-04-2020 03:35:00 -0.6 C 82 % -3.29 C
909 02-04-2020 03:40:00 -0.6 C 82 % -3.29 C
910 02-04-2020 03:45:00 -0.6 C 82 % -3.29 C
911 02-04-2020 03:50:00 -0.6 C 83 % -3.12 C
912 02-04-2020 03:55:00 -0.7 C 83 % -3.22 C
913 02-04-2020 04:00:00 -0.7 C 82 % -3.38 C
914 02-04-2020 04:05:00 -0.8 C 83 % -3.32 C
915 02-04-2020 04:10:00 -0.7 C 83 % -3.22 C
916 02-04-2020 04:15:00 -0.7 C 83 % -3.22 C
917 02-04-2020 04:20:00 -0.6 C 83 % -3.12 C
918 02-04-2020 04:25:00 -0.6 C 83 % -3.12 C
919 02-04-2020 04:30:00 -0.6 C 83 % -3.12 C
920 02-04-2020 04:35:00 -0.7 C 82 % -3.38 C
921 02-04-2020 04:40:00 -0.9 C 82 % -3.58 C
922 02-04-2020 04:45:00 -1.1 C 83 % -3.61 C
923 02-04-2020 04:50:00 -1.2 C 83 % -3.71 C
924 02-04-2020 04:55:00 -1.3 C 83 % -3.81 C
925 02-04-2020 05:00:00 -1.4 C 84 % -3.75 C
Sensor: Nr:Datum:Temp:Feuchte:Taupunkt:
Aussen-T/F 926 02-04-2020 05:05:00 -1.4 C 84 % -3.75 C
927 02-04-2020 05:10:00 -1.5 C 84 % -3.85 C
928 02-04-2020 05:15:00 -1.6 C 85 % -3.79 C
929 02-04-2020 05:20:00 -1.6 C 85 % -3.79 C
930 02-04-2020 05:25:00 -1.6 C 85 % -3.79 C
931 02-04-2020 05:30:00 -1.6 C 85 % -3.79 C
932 02-04-2020 05:35:00 -1.6 C 85 % -3.79 C
933 02-04-2020 05:40:00 -1.7 C 85 % -3.88 C
934 02-04-2020 05:45:00 -1.7 C 86 % -3.73 C
935 02-04-2020 05:50:00 -1.6 C 86 % -3.63 C
936 02-04-2020 05:55:00 -1.5 C 86 % -3.53 C
937 02-04-2020 06:00:00 -1.5 C 86 % -3.53 C
938 02-04-2020 06:05:00 -1.6 C 86 % -3.63 C
939 02-04-2020 06:10:00 -1.6 C 86 % -3.63 C
940 02-04-2020 06:15:00 -1.7 C 85 % -3.88 C
941 02-04-2020 06:20:00 -1.8 C 85 % -3.98 C
942 02-04-2020 06:25:00 -1.8 C 86 % -3.83 C
943 02-04-2020 06:30:00 -1.8 C 87 % -3.67 C
944 02-04-2020 06:35:00 -1.7 C 87 % -3.57 C
945 02-04-2020 06:40:00 -1.8 C 86 % -3.83 C
946 02-04-2020 06:45:00 -1.8 C 86 % -3.83 C
947 02-04-2020 06:50:00 -1.8 C 87 % -3.67 C
948 02-04-2020 06:55:00 -1.8 C 87 % -3.67 C
949 02-04-2020 07:00:00 -1.8 C 86 % -3.83 C
950 02-04-2020 07:05:00 -1.9 C 86 % -3.92 C
Sensor: Nr:Datum:Temp:Feuchte:Taupunkt:
Aussen-T/F 951 02-04-2020 07:10:00 -2 C 86 % -4.02 C
952 02-04-2020 07:15:00 -2 C 87 % -3.87 C
953 02-04-2020 07:20:00 -1.9 C 87 % -3.77 C
954 02-04-2020 07:25:00 -1.9 C 87 % -3.77 C
955 02-04-2020 07:30:00 -1.9 C 87 % -3.77 C
956 02-04-2020 07:35:00 -1.9 C 88 % -3.62 C
957 02-04-2020 07:40:00 -1.9 C 87 % -3.77 C
958 02-04-2020 07:45:00 -1.9 C 87 % -3.77 C
959 02-04-2020 07:50:00 -1.9 C 87 % -3.77 C
960 02-04-2020 07:55:00 -1.8 C 88 % -3.52 C
961 02-04-2020 08:00:00 -1.8 C 88 % -3.52 C
962 02-04-2020 08:05:00 -1.7 C 88 % -3.42 C
963 02-04-2020 08:10:00 -1.5 C 88 % -3.22 C
964 02-04-2020 08:15:00 -1.3 C 88 % -3.03 C
965 02-04-2020 08:20:00 -1.3 C 87 % -3.18 C
966 02-04-2020 08:25:00 -1.3 C 87 % -3.18 C
967 02-04-2020 08:30:00 -1.3 C 87 % -3.18 C
968 02-04-2020 08:35:00 -1.3 C 87 % -3.18 C
969 02-04-2020 08:40:00 -1.3 C 87 % -3.18 C
970 02-04-2020 08:45:00 -1.2 C 87 % -3.08 C
971 02-04-2020 08:50:00 -1.2 C 87 % -3.08 C
972 02-04-2020 08:55:00 -1.1 C 87 % -2.98 C
973 02-04-2020 09:00:00 -1.1 C 87 % -2.98 C
974 02-04-2020 09:05:00 -1 C 87 % -2.88 C
975 02-04-2020 09:10:00 -1 C 87 % -2.88 C
Sensor: Nr:Datum:Temp:Feuchte:Taupunkt:
Aussen-T/F 976 02-04-2020 09:15:00 -0.9 C 87 % -2.79 C
977 02-04-2020 09:20:00 -0.8 C 87 % -2.69 C
978 02-04-2020 09:25:00 -0.7 C 87 % -2.59 C
979 02-04-2020 09:30:00 -0.7 C 87 % -2.59 C
980 02-04-2020 09:35:00 -0.6 C 87 % -2.49 C
981 02-04-2020 09:40:00 -0.4 C 87 % -2.29 C
982 02-04-2020 09:45:00 -0.3 C 87 % -2.2 C
983 02-04-2020 09:50:00 -0.2 C 87 % -2.1 C
984 02-04-2020 09:55:00 0 C 87 % -1.9 C
985 02-04-2020 10:00:00 0.2 C 87 % -1.7 C
986 02-04-2020 10:05:00 0.3 C 87 % -1.6 C
987 02-04-2020 10:10:00 0.5 C 87 % -1.41 C
988 02-04-2020 10:15:00 0.7 C 87 % -1.21 C
989 02-04-2020 10:20:00 0.8 C 87 % -1.11 C
990 02-04-2020 10:25:00 1.1 C 87 % -0.82 C
991 02-04-2020 10:30:00 1.3 C 86 % -0.78 C
992 02-04-2020 10:35:00 1.6 C 86 % -0.48 C
993 02-04-2020 10:40:00 1.9 C 85 % -0.35 C
994 02-04-2020 10:45:00 2.3 C 84 % -0.12 C
995 02-04-2020 10:50:00 2.8 C 82 % 0.04 C
996 02-04-2020 10:55:00 3.2 C 80 % 0.09 C
997 02-04-2020 11:00:00 3.7 C 79 % 0.4 C
998 02-04-2020 11:05:00 4 C 78 % 0.52 C
999 02-04-2020 11:10:00 4.3 C 76 % 0.45 C
1000 02-04-2020 11:15:00 4.6 C 74 % 0.38 C
Sensor: Nr:Datum:Temp:Feuchte:Taupunkt:
Aussen-T/F 1001 02-04-2020 11:20:00 4.9 C 72 % 0.29 C
1002 02-04-2020 11:25:00 5.3 C 71 % 0.48 C
1003 02-04-2020 11:30:00 5.6 C 69 % 0.37 C
1004 02-04-2020 11:35:00 5.9 C 69 % 0.66 C
1005 02-04-2020 11:40:00 6.3 C 66 % 0.43 C
1006 02-04-2020 11:45:00 6.6 C 65 % 0.5 C
1007 02-04-2020 11:50:00 6.9 C 65 % 0.79 C
1008 02-04-2020 11:55:00 7.2 C 63 % 0.64 C
1009 02-04-2020 12:00:00 7.5 C 63 % 0.92 C
1010 02-04-2020 12:05:00 7.8 C 60 % 0.53 C
1011 02-04-2020 12:10:00 8.1 C 60 % 0.82 C
1012 02-04-2020 12:15:00 8.3 C 59 % 0.77 C
1013 02-04-2020 12:20:00 8.6 C 57 % 0.58 C
1014 02-04-2020 12:25:00 8.8 C 57 % 0.76 C
1015 02-04-2020 12:30:00 9.1 C 56 % 0.8 C
1016 02-04-2020 12:35:00 9.2 C 55 % 0.64 C
1017 02-04-2020 12:40:00 9.4 C 50 % -0.48 C
1018 02-04-2020 12:45:00 9.6 C 52 % 0.24 C
1019 02-04-2020 12:50:00 9.7 C 52 % 0.33 C
1020 02-04-2020 12:55:00 9.9 C 50 % -0.02 C
1021 02-04-2020 13:00:00 10 C 49 % -0.21 C
1022 02-04-2020 13:05:00 10.1 C 49 % -0.11 C
1023 02-04-2020 13:10:00 10.2 C 50 % 0.26 C
1024 02-04-2020 13:15:00 10.5 C 48 % -0.03 C
1025 02-04-2020 13:20:00 10.7 C 46 % -0.43 C
Sensor: Nr:Datum:Temp:Feuchte:Taupunkt:
Aussen-T/F 1026 02-04-2020 13:25:00 10.8 C 45 % -0.64 C
1027 02-04-2020 13:30:00 10.8 C 42 % -1.58 C
1028 02-04-2020 13:35:00 11 C 44 % -0.77 C
1029 02-04-2020 13:40:00 11.2 C 45 % -0.28 C
1030 02-04-2020 13:45:00 11.3 C 45 % -0.19 C
1031 02-04-2020 13:50:00 11.4 C 42 % -1.04 C
1032 02-04-2020 13:55:00 11.4 C 43 % -0.72 C
1033 02-04-2020 14:00:00 11.6 C 44 % -0.22 C
1034 02-04-2020 14:05:00 11.7 C 44 % -0.13 C
1035 02-04-2020 14:10:00 11.8 C 43 % -0.36 C
1036 02-04-2020 14:15:00 11.9 C 43 % -0.27 C
1037 02-04-2020 14:20:00 12.1 C 43 % -0.08 C
1038 02-04-2020 14:25:00 12.3 C 43 % 0.1 C
1039 02-04-2020 14:30:00 12.6 C 42 % 0.04 C
1040 02-04-2020 14:35:00 12.7 C 42 % 0.13 C
1041 02-04-2020 14:40:00 12.8 C 43 % 0.55 C
1042 02-04-2020 14:45:00 12.8 C 42 % 0.22 C
1043 02-04-2020 14:50:00 12.8 C 42 % 0.22 C
1044 02-04-2020 14:55:00 12.7 C 43 % 0.46 C
1045 02-04-2020 15:00:00 12.8 C 42 % 0.22 C
1046 02-04-2020 15:05:00 12.9 C 43 % 0.64 C
1047 02-04-2020 15:10:00 13.1 C 42 % 0.5 C
1048 02-04-2020 15:15:00 13.2 C 40 % -0.09 C
1049 02-04-2020 15:20:00 13.2 C 40 % -0.09 C
1050 02-04-2020 15:25:00 13.2 C 40 % -0.09 C
Sensor: Nr:Datum:Temp:Feuchte:Taupunkt:
Aussen-T/F 1051 02-04-2020 15:30:00 13.3 C 41 % 0.34 C
1052 02-04-2020 15:35:00 13.3 C 41 % 0.34 C
1053 02-04-2020 15:40:00 13.4 C 40 % 0.09 C
1054 02-04-2020 15:45:00 13.5 C 40 % 0.18 C
1055 02-04-2020 15:50:00 13.6 C 40 % 0.27 C
1056 02-04-2020 15:55:00 13.6 C 41 % 0.61 C
1057 02-04-2020 16:00:00 13.6 C 40 % 0.27 C
1058 02-04-2020 16:05:00 13.8 C 41 % 0.79 C
1059 02-04-2020 16:10:00 13.9 C 41 % 0.88 C
1060 02-04-2020 16:15:00 13.8 C 41 % 0.79 C
1061 02-04-2020 16:20:00 13.4 C 42 % 0.77 C
1062 02-04-2020 16:25:00 13.2 C 44 % 1.23 C
1063 02-04-2020 16:30:00 13.3 C 43 % 1 C
1064 02-04-2020 16:35:00 13.3 C 43 % 1 C
1065 02-04-2020 16:40:00 13.5 C 43 % 1.18 C
1066 02-04-2020 16:45:00 13.6 C 43 % 1.27 C
1067 02-04-2020 16:50:00 13.7 C 42 % 1.04 C
1068 02-04-2020 16:55:00 13.7 C 43 % 1.36 C
1069 02-04-2020 17:00:00 13.8 C 43 % 1.45 C
1070 02-04-2020 17:05:00 13.9 C 44 % 1.86 C
1071 02-04-2020 17:10:00 13.9 C 43 % 1.54 C
1072 02-04-2020 17:15:00 14 C 44 % 1.95 C
1073 02-04-2020 17:20:00 14 C 43 % 1.63 C
1074 02-04-2020 17:25:00 13.7 C 44 % 1.68 C
1075 02-04-2020 17:30:00 13.4 C 46 % 2.03 C
Sensor: Nr:Datum:Temp:Feuchte:Taupunkt:
Aussen-T/F 1076 02-04-2020 17:35:00 13.4 C 46 % 2.03 C
1077 02-04-2020 17:40:00 13.4 C 46 % 2.03 C
1078 02-04-2020 17:45:00 13.3 C 46 % 1.94 C
1079 02-04-2020 17:50:00 13.2 C 48 % 2.44 C
1080 02-04-2020 17:55:00 13 C 49 % 2.55 C
1081 02-04-2020 18:00:00 12.8 C 50 % 2.65 C
1082 02-04-2020 18:05:00 12.7 C 50 % 2.56 C
1083 02-04-2020 18:10:00 12.5 C 50 % 2.37 C
1084 02-04-2020 18:15:00 12.4 C 51 % 2.56 C
1085 02-04-2020 18:20:00 12.4 C 51 % 2.56 C
1086 02-04-2020 18:25:00 12.3 C 50 % 2.19 C
1087 02-04-2020 18:30:00 12.2 C 51 % 2.37 C
1088 02-04-2020 18:35:00 12.1 C 50 % 2.01 C
1089 02-04-2020 18:40:00 11.9 C 51 % 2.1 C
1090 02-04-2020 18:45:00 11.8 C 50 % 1.73 C
1091 02-04-2020 18:50:00 11.7 C 51 % 1.91 C
1092 02-04-2020 18:55:00 11.6 C 51 % 1.82 C
1093 02-04-2020 19:00:00 11.4 C 50 % 1.36 C
1094 02-04-2020 19:05:00 11.3 C 51 % 1.54 C
1095 02-04-2020 19:10:00 11.3 C 51 % 1.54 C
1096 02-04-2020 19:15:00 11.1 C 51 % 1.36 C
1097 02-04-2020 19:20:00 10.9 C 51 % 1.17 C
1098 02-04-2020 19:25:00 10.8 C 52 % 1.35 C
1099 02-04-2020 19:30:00 10.7 C 52 % 1.26 C
1100 02-04-2020 19:35:00 10.5 C 52 % 1.07 C
Sensor: Nr:Datum:Temp:Feuchte:Taupunkt:
Aussen-T/F 1101 02-04-2020 19:40:00 10.3 C 53 % 1.15 C
1102 02-04-2020 19:45:00 10.1 C 53 % 0.97 C
1103 02-04-2020 19:50:00 10 C 53 % 0.87 C
1104 02-04-2020 19:55:00 9.8 C 53 % 0.69 C
1105 02-04-2020 20:00:00 9.6 C 55 % 1.02 C
1106 02-04-2020 20:05:00 9.4 C 55 % 0.83 C
1107 02-04-2020 20:10:00 9.2 C 56 % 0.89 C
1108 02-04-2020 20:15:00 9.1 C 56 % 0.8 C
1109 02-04-2020 20:20:00 9 C 57 % 0.95 C
1110 02-04-2020 20:25:00 8.9 C 58 % 1.1 C
1111 02-04-2020 20:30:00 8.7 C 58 % 0.91 C
1112 02-04-2020 20:35:00 8.6 C 59 % 1.05 C
1113 02-04-2020 20:40:00 8.5 C 59 % 0.96 C
1114 02-04-2020 20:45:00 8.3 C 60 % 1 C
1115 02-04-2020 20:50:00 8.2 C 60 % 0.91 C
1116 02-04-2020 20:55:00 8 C 61 % 0.95 C
1117 02-04-2020 21:00:00 7.7 C 62 % 0.89 C
1118 02-04-2020 21:05:00 7.4 C 63 % 0.83 C
1119 02-04-2020 21:10:00 7.3 C 64 % 0.95 C
1120 02-04-2020 21:15:00 7.1 C 65 % 0.98 C
1121 02-04-2020 21:20:00 6.8 C 66 % 0.9 C
1122 02-04-2020 21:25:00 6.6 C 67 % 0.92 C
1123 02-04-2020 21:30:00 6.4 C 68 % 0.94 C
1124 02-04-2020 21:35:00 6.2 C 69 % 0.95 C
1125 02-04-2020 21:40:00 6.2 C 69 % 0.95 C
Sensor: Nr:Datum:Temp:Feuchte:Taupunkt:
Aussen-T/F 1126 02-04-2020 21:45:00 6.1 C 69 % 0.85 C
1127 02-04-2020 21:50:00 6 C 70 % 0.95 C
1128 02-04-2020 21:55:00 5.9 C 70 % 0.86 C
1129 02-04-2020 22:00:00 5.8 C 70 % 0.76 C
1130 02-04-2020 22:05:00 5.9 C 70 % 0.86 C
1131 02-04-2020 22:10:00 5.9 C 70 % 0.86 C
1132 02-04-2020 22:15:00 6 C 70 % 0.95 C
1133 02-04-2020 22:20:00 6.1 C 70 % 1.05 C
1134 02-04-2020 22:25:00 6 C 70 % 0.95 C
1135 02-04-2020 22:30:00 5.9 C 71 % 1.06 C
1136 02-04-2020 22:35:00 5.9 C 71 % 1.06 C
1137 02-04-2020 22:40:00 5.8 C 71 % 0.96 C
1138 02-04-2020 22:45:00 5.7 C 72 % 1.06 C
1139 02-04-2020 22:50:00 5.7 C 72 % 1.06 C
1140 02-04-2020 22:55:00 5.7 C 72 % 1.06 C
1141 02-04-2020 23:00:00 5.6 C 73 % 1.15 C
1142 02-04-2020 23:05:00 5.6 C 73 % 1.15 C
1143 02-04-2020 23:10:00 5.6 C 73 % 1.15 C
1144 02-04-2020 23:15:00 5.6 C 73 % 1.15 C
1145 02-04-2020 23:20:00 5.6 C 74 % 1.34 C
1146 02-04-2020 23:25:00 5.5 C 74 % 1.24 C
1147 02-04-2020 23:30:00 5.4 C 74 % 1.15 C
1148 02-04-2020 23:35:00 5.3 C 75 % 1.24 C
1149 02-04-2020 23:40:00 5.1 C 75 % 1.04 C
1150 02-04-2020 23:45:00 4.9 C 75 % 0.85 C
Sensor: Nr:Datum:Temp:Feuchte:Taupunkt:
Aussen-T/F 1151 02-04-2020 23:50:00 4.6 C 76 % 0.74 C
1152 02-04-2020 23:55:00 4.3 C 77 % 0.63 C
1153 03-04-2020 00:00:00 4.2 C 78 % 0.71 C
1154 03-04-2020 00:05:00 3.9 C 78 % 0.42 C
1155 03-04-2020 00:10:00 3.7 C 79 % 0.4 C
1156 03-04-2020 00:15:00 3.4 C 80 % 0.29 C
1157 03-04-2020 00:20:00 3.3 C 80 % 0.19 C
1158 03-04-2020 00:25:00 3.3 C 81 % 0.36 C
1159 03-04-2020 00:30:00 3.3 C 82 % 0.53 C
1160 03-04-2020 00:35:00 3.3 C 81 % 0.36 C
1161 03-04-2020 00:40:00 3.3 C 81 % 0.36 C
1162 03-04-2020 00:45:00 3.4 C 82 % 0.63 C
1163 03-04-2020 00:50:00 3.4 C 81 % 0.46 C
1164 03-04-2020 00:55:00 3.2 C 81 % 0.26 C
1165 03-04-2020 01:00:00 3.2 C 81 % 0.26 C
1166 03-04-2020 01:05:00 3.1 C 81 % 0.16 C
1167 03-04-2020 01:10:00 2.9 C 82 % 0.14 C
1168 03-04-2020 01:15:00 3 C 82 % 0.24 C
1169 03-04-2020 01:20:00 2.9 C 82 % 0.14 C
1170 03-04-2020 01:25:00 2.9 C 83 % 0.31 C
1171 03-04-2020 01:30:00 3 C 83 % 0.4 C
1172 03-04-2020 01:35:00 3.1 C 83 % 0.5 C
1173 03-04-2020 01:40:00 3.2 C 82 % 0.43 C
1174 03-04-2020 01:45:00 3.1 C 82 % 0.33 C
1175 03-04-2020 01:50:00 3 C 82 % 0.24 C
Sensor: Nr:Datum:Temp:Feuchte:Taupunkt:
Aussen-T/F 1176 03-04-2020 01:55:00 2.9 C 82 % 0.14 C
1177 03-04-2020 02:00:00 2.9 C 83 % 0.31 C
1178 03-04-2020 02:05:00 2.8 C 83 % 0.21 C
1179 03-04-2020 02:10:00 2.8 C 83 % 0.21 C
1180 03-04-2020 02:15:00 2.8 C 83 % 0.21 C
1181 03-04-2020 02:20:00 2.9 C 84 % 0.47 C
1182 03-04-2020 02:25:00 3.1 C 83 % 0.5 C
1183 03-04-2020 02:30:00 3.2 C 83 % 0.6 C
1184 03-04-2020 02:35:00 3.3 C 83 % 0.7 C
1185 03-04-2020 02:40:00 3.4 C 82 % 0.63 C
1186 03-04-2020 02:45:00 3.3 C 82 % 0.53 C
1187 03-04-2020 02:50:00 3.3 C 82 % 0.53 C
1188 03-04-2020 02:55:00 3.4 C 82 % 0.63 C
1189 03-04-2020 03:00:00 3.4 C 83 % 0.79 C
1190 03-04-2020 03:05:00 3.6 C 83 % 0.99 C
1191 03-04-2020 03:10:00 3.7 C 83 % 1.09 C
1192 03-04-2020 03:15:00 3.8 C 82 % 1.02 C
1193 03-04-2020 03:20:00 3.9 C 82 % 1.12 C
1194 03-04-2020 03:25:00 4.1 C 82 % 1.31 C
1195 03-04-2020 03:30:00 4.2 C 82 % 1.41 C
1196 03-04-2020 03:35:00 4.4 C 81 % 1.43 C
1197 03-04-2020 03:40:00 4.7 C 79 % 1.38 C
1198 03-04-2020 03:45:00 4.8 C 79 % 1.47 C
1199 03-04-2020 03:50:00 4.9 C 79 % 1.57 C
1200 03-04-2020 03:55:00 4.9 C 79 % 1.57 C
Sensor: Nr:Datum:Temp:Feuchte:Taupunkt:
Aussen-T/F 1201 03-04-2020 04:00:00 4.9 C 79 % 1.57 C
1202 03-04-2020 04:05:00 5.1 C 79 % 1.77 C
1203 03-04-2020 04:10:00 5.3 C 78 % 1.78 C
1204 03-04-2020 04:15:00 5.4 C 77 % 1.7 C
1205 03-04-2020 04:20:00 5.4 C 76 % 1.52 C
1206 03-04-2020 04:25:00 5.4 C 76 % 1.52 C
1207 03-04-2020 04:30:00 5.4 C 76 % 1.52 C
1208 03-04-2020 04:35:00 5.4 C 77 % 1.7 C
1209 03-04-2020 04:40:00 5.4 C 78 % 1.88 C
1210 03-04-2020 04:45:00 5.3 C 78 % 1.78 C
1211 03-04-2020 04:50:00 5.2 C 78 % 1.69 C
1212 03-04-2020 04:55:00 5.2 C 79 % 1.86 C
1213 03-04-2020 05:00:00 5.1 C 79 % 1.77 C
1214 03-04-2020 05:05:00 5.1 C 79 % 1.77 C
1215 03-04-2020 05:10:00 5.1 C 79 % 1.77 C
1216 03-04-2020 05:15:00 5.2 C 79 % 1.86 C
1217 03-04-2020 05:20:00 5.2 C 79 % 1.86 C
1218 03-04-2020 05:25:00 5.3 C 79 % 1.96 C
1219 03-04-2020 05:30:00 5.3 C 79 % 1.96 C
1220 03-04-2020 05:35:00 5.3 C 78 % 1.78 C
1221 03-04-2020 05:40:00 5.4 C 78 % 1.88 C
1222 03-04-2020 05:45:00 5.5 C 78 % 1.98 C
1223 03-04-2020 05:50:00 5.6 C 78 % 2.07 C
1224 03-04-2020 05:55:00 5.6 C 79 % 2.25 C
1225 03-04-2020 06:00:00 5.7 C 78 % 2.17 C
Sensor: Nr:Datum:Temp:Feuchte:Taupunkt:
Aussen-T/F 1226 03-04-2020 06:05:00 5.7 C 77 % 1.99 C
1227 03-04-2020 06:10:00 5.8 C 78 % 2.27 C
1228 03-04-2020 06:15:00 5.7 C 78 % 2.17 C
1229 03-04-2020 06:20:00 5.7 C 78 % 2.17 C
1230 03-04-2020 06:25:00 5.7 C 78 % 2.17 C
1231 03-04-2020 06:30:00 5.7 C 78 % 2.17 C
1232 03-04-2020 06:35:00 5.7 C 79 % 2.35 C
1233 03-04-2020 06:40:00 5.6 C 79 % 2.25 C
1234 03-04-2020 06:45:00 5.6 C 79 % 2.25 C
1235 03-04-2020 06:50:00 5.6 C 79 % 2.25 C
1236 03-04-2020 06:55:00 5.7 C 78 % 2.17 C
1237 03-04-2020 07:00:00 5.8 C 78 % 2.27 C
1238 03-04-2020 07:05:00 6 C 77 % 2.28 C
1239 03-04-2020 07:10:00 6 C 77 % 2.28 C
1240 03-04-2020 07:15:00 6.1 C 76 % 2.2 C
1241 03-04-2020 07:20:00 6.1 C 76 % 2.2 C
1242 03-04-2020 07:25:00 6.1 C 76 % 2.2 C
1243 03-04-2020 07:30:00 6.1 C 77 % 2.38 C
1244 03-04-2020 07:35:00 6.1 C 77 % 2.38 C
1245 03-04-2020 07:40:00 6.1 C 77 % 2.38 C
1246 03-04-2020 07:45:00 6.1 C 77 % 2.38 C
1247 03-04-2020 07:50:00 6.1 C 78 % 2.56 C
1248 03-04-2020 07:55:00 6.1 C 78 % 2.56 C
1249 03-04-2020 08:00:00 6.1 C 78 % 2.56 C
1250 03-04-2020 08:05:00 6.2 C 77 % 2.48 C
Sensor: Nr:Datum:Temp:Feuchte:Taupunkt:
Aussen-T/F 1251 03-04-2020 08:10:00 6.2 C 77 % 2.48 C
1252 03-04-2020 08:15:00 6.3 C 77 % 2.57 C
1253 03-04-2020 08:20:00 6.3 C 77 % 2.57 C
1254 03-04-2020 08:25:00 6.3 C 77 % 2.57 C
1255 03-04-2020 08:30:00 6.4 C 77 % 2.67 C
1256 03-04-2020 08:35:00 6.4 C 77 % 2.67 C
1257 03-04-2020 08:40:00 6.4 C 77 % 2.67 C
1258 03-04-2020 08:45:00 6.6 C 77 % 2.86 C
1259 03-04-2020 08:50:00 6.7 C 77 % 2.96 C
1260 03-04-2020 08:55:00 6.8 C 77 % 3.06 C
1261 03-04-2020 09:00:00 7 C 77 % 3.25 C
1262 03-04-2020 09:05:00 7.1 C 76 % 3.16 C
1263 03-04-2020 09:10:00 7.2 C 76 % 3.26 C
1264 03-04-2020 09:15:00 7.3 C 76 % 3.36 C
1265 03-04-2020 09:20:00 7.4 C 76 % 3.45 C
1266 03-04-2020 09:25:00 7.6 C 76 % 3.65 C
1267 03-04-2020 09:30:00 7.7 C 76 % 3.75 C
1268 03-04-2020 09:35:00 7.8 C 75 % 3.65 C
1269 03-04-2020 09:40:00 7.8 C 75 % 3.65 C
1270 03-04-2020 09:45:00 8 C 75 % 3.85 C
1271 03-04-2020 09:50:00 8.1 C 75 % 3.94 C
1272 03-04-2020 09:55:00 8.2 C 74 % 3.85 C
1273 03-04-2020 10:00:00 8.3 C 75 % 4.14 C
1274 03-04-2020 10:05:00 8.5 C 75 % 4.33 C
1275 03-04-2020 10:10:00 8.7 C 74 % 4.33 C
Sensor: Nr:Datum:Temp:Feuchte:Taupunkt:
Aussen-T/F 1276 03-04-2020 10:15:00 8.8 C 74 % 4.43 C
1277 03-04-2020 10:20:00 8.9 C 74 % 4.53 C
1278 03-04-2020 10:25:00 9.1 C 73 % 4.52 C
1279 03-04-2020 10:30:00 9.2 C 73 % 4.62 C
1280 03-04-2020 10:35:00 9.2 C 73 % 4.62 C
1281 03-04-2020 10:40:00 9.3 C 73 % 4.72 C
1282 03-04-2020 10:45:00 9.4 C 73 % 4.81 C
1283 03-04-2020 10:50:00 9.6 C 72 % 4.81 C
1284 03-04-2020 10:55:00 9.8 C 72 % 5 C
1285 03-04-2020 11:00:00 9.9 C 72 % 5.1 C
1286 03-04-2020 11:05:00 10.3 C 71 % 5.28 C
1287 03-04-2020 11:10:00 10.6 C 69 % 5.16 C
1288 03-04-2020 11:15:00 10.8 C 69 % 5.35 C
1289 03-04-2020 11:20:00 10.9 C 68 % 5.23 C
1290 03-04-2020 11:25:00 10.9 C 67 % 5.02 C
1291 03-04-2020 11:30:00 10.8 C 66 % 4.71 C
1292 03-04-2020 11:35:00 10.9 C 65 % 4.59 C
1293 03-04-2020 11:40:00 11.2 C 64 % 4.65 C
1294 03-04-2020 11:45:00 11.3 C 63 % 4.52 C
1295 03-04-2020 11:50:00 11.3 C 63 % 4.52 C
1296 03-04-2020 11:55:00 11.3 C 63 % 4.52 C
1297 03-04-2020 12:00:00 11.2 C 63 % 4.43 C
1298 03-04-2020 12:05:00 11.2 C 64 % 4.65 C
1299 03-04-2020 12:10:00 11.2 C 63 % 4.43 C
1300 03-04-2020 12:15:00 11.2 C 63 % 4.43 C
Sensor: Nr:Datum:Temp:Feuchte:Taupunkt:
Aussen-T/F 1301 03-04-2020 12:20:00 11.3 C 63 % 4.52 C
1302 03-04-2020 12:25:00 11.5 C 61 % 4.25 C
1303 03-04-2020 12:30:00 11.7 C 61 % 4.44 C
1304 03-04-2020 12:35:00 11.6 C 59 % 3.87 C
1305 03-04-2020 12:40:00 11.5 C 59 % 3.78 C
1306 03-04-2020 12:45:00 11.3 C 61 % 4.06 C
1307 03-04-2020 12:50:00 11.3 C 60 % 3.83 C
1308 03-04-2020 12:55:00 11.2 C 61 % 3.97 C
1309 03-04-2020 13:00:00 11.2 C 62 % 4.2 C
1310 03-04-2020 13:05:00 11.3 C 63 % 4.52 C
1311 03-04-2020 13:10:00 11.4 C 62 % 4.39 C
1312 03-04-2020 13:15:00 11.5 C 61 % 4.25 C
1313 03-04-2020 13:20:00 11.6 C 59 % 3.87 C
1314 03-04-2020 13:25:00 11.7 C 59 % 3.97 C
1315 03-04-2020 13:30:00 11.7 C 57 % 3.48 C
1316 03-04-2020 13:35:00 11.6 C 58 % 3.63 C
1317 03-04-2020 13:40:00 11.6 C 58 % 3.63 C
1318 03-04-2020 13:45:00 11.7 C 60 % 4.2 C
1319 03-04-2020 13:50:00 11.8 C 60 % 4.3 C
1320 03-04-2020 13:55:00 11.8 C 58 % 3.82 C
1321 03-04-2020 14:00:00 11.8 C 56 % 3.32 C
1322 03-04-2020 14:05:00 11.8 C 56 % 3.32 C
1323 03-04-2020 14:10:00 11.7 C 56 % 3.23 C
1324 03-04-2020 14:15:00 11.7 C 56 % 3.23 C
1325 03-04-2020 14:20:00 11.6 C 56 % 3.13 C
Sensor: Nr:Datum:Temp:Feuchte:Taupunkt:
Aussen-T/F 1326 03-04-2020 14:25:00 11.6 C 57 % 3.38 C
1327 03-04-2020 14:30:00 11.7 C 61 % 4.44 C
1328 03-04-2020 14:35:00 11.6 C 62 % 4.58 C
1329 03-04-2020 14:40:00 11.6 C 60 % 4.11 C
1330 03-04-2020 14:45:00 11.6 C 59 % 3.87 C
1331 03-04-2020 14:50:00 11.6 C 57 % 3.38 C
1332 03-04-2020 14:55:00 11.7 C 56 % 3.23 C
1333 03-04-2020 15:00:00 11.7 C 55 % 2.97 C
1334 03-04-2020 15:05:00 11.8 C 55 % 3.07 C
1335 03-04-2020 15:10:00 11.8 C 55 % 3.07 C
1336 03-04-2020 15:15:00 11.7 C 55 % 2.97 C
1337 03-04-2020 15:20:00 11.7 C 54 % 2.71 C
1338 03-04-2020 15:25:00 11.7 C 56 % 3.23 C
1339 03-04-2020 15:30:00 11.7 C 58 % 3.72 C
1340 03-04-2020 15:35:00 11.7 C 58 % 3.72 C
1341 03-04-2020 15:40:00 11.7 C 58 % 3.72 C
1342 03-04-2020 15:45:00 11.8 C 57 % 3.57 C
1343 03-04-2020 15:50:00 11.8 C 58 % 3.82 C
1344 03-04-2020 15:55:00 11.9 C 54 % 2.9 C
1345 03-04-2020 16:00:00 12.1 C 54 % 3.09 C
1346 03-04-2020 16:05:00 12.2 C 52 % 2.65 C
1347 03-04-2020 16:10:00 12.2 C 51 % 2.37 C
1348 03-04-2020 16:15:00 12.3 C 50 % 2.19 C
1349 03-04-2020 16:20:00 12.3 C 50 % 2.19 C
1350 03-04-2020 16:25:00 12.2 C 50 % 2.1 C
Sensor: Nr:Datum:Temp:Feuchte:Taupunkt:
Aussen-T/F 1351 03-04-2020 16:30:00 12.2 C 51 % 2.37 C
1352 03-04-2020 16:35:00 12.3 C 49 % 1.91 C
1353 03-04-2020 16:40:00 12.3 C 50 % 2.19 C
1354 03-04-2020 16:45:00 12.3 C 49 % 1.91 C
1355 03-04-2020 16:50:00 12.3 C 49 % 1.91 C
1356 03-04-2020 16:55:00 12.3 C 48 % 1.62 C
1357 03-04-2020 17:00:00 12.1 C 48 % 1.44 C
1358 03-04-2020 17:05:00 12.1 C 50 % 2.01 C
1359 03-04-2020 17:10:00 12.1 C 50 % 2.01 C
1360 03-04-2020 17:15:00 12.1 C 49 % 1.72 C
1361 03-04-2020 17:20:00 12.1 C 49 % 1.72 C
1362 03-04-2020 17:25:00 12.2 C 49 % 1.82 C
1363 03-04-2020 17:30:00 12.2 C 50 % 2.1 C
1364 03-04-2020 17:35:00 12.2 C 49 % 1.82 C
1365 03-04-2020 17:40:00 12.3 C 48 % 1.62 C
1366 03-04-2020 17:45:00 12.2 C 49 % 1.82 C
1367 03-04-2020 17:50:00 12.1 C 50 % 2.01 C
1368 03-04-2020 17:55:00 11.9 C 50 % 1.82 C
1369 03-04-2020 18:00:00 11.8 C 50 % 1.73 C
1370 03-04-2020 18:05:00 11.7 C 51 % 1.91 C
1371 03-04-2020 18:10:00 11.7 C 51 % 1.91 C
1372 03-04-2020 18:15:00 11.7 C 52 % 2.18 C
1373 03-04-2020 18:20:00 11.7 C 52 % 2.18 C
1374 03-04-2020 18:25:00 11.6 C 53 % 2.36 C
1375 03-04-2020 18:30:00 11.5 C 52 % 2 C
Sensor: Nr:Datum:Temp:Feuchte:Taupunkt:
Aussen-T/F 1376 03-04-2020 18:35:00 11.4 C 53 % 2.17 C
1377 03-04-2020 18:40:00 11.4 C 52 % 1.91 C
1378 03-04-2020 18:45:00 11.3 C 53 % 2.08 C
1379 03-04-2020 18:50:00 11.2 C 54 % 2.25 C
1380 03-04-2020 18:55:00 11.2 C 54 % 2.25 C
1381 03-04-2020 19:00:00 11.2 C 55 % 2.51 C
1382 03-04-2020 19:05:00 11.1 C 56 % 2.67 C
1383 03-04-2020 19:10:00 11 C 56 % 2.57 C
1384 03-04-2020 19:15:00 10.9 C 56 % 2.48 C
1385 03-04-2020 19:20:00 10.8 C 57 % 2.63 C
1386 03-04-2020 19:25:00 10.8 C 55 % 2.13 C
1387 03-04-2020 19:30:00 10.7 C 55 % 2.04 C
1388 03-04-2020 19:35:00 10.6 C 54 % 1.69 C
1389 03-04-2020 19:40:00 10.6 C 55 % 1.95 C
1390 03-04-2020 19:45:00 10.4 C 55 % 1.76 C
1391 03-04-2020 19:50:00 10.4 C 55 % 1.76 C
1392 03-04-2020 19:55:00 10.3 C 56 % 1.92 C
1393 03-04-2020 20:00:00 10.3 C 56 % 1.92 C
1394 03-04-2020 20:05:00 10.2 C 57 % 2.07 C
1395 03-04-2020 20:10:00 10.1 C 57 % 1.98 C
1396 03-04-2020 20:15:00 9.9 C 57 % 1.79 C
1397 03-04-2020 20:20:00 9.9 C 57 % 1.79 C
1398 03-04-2020 20:25:00 9.8 C 56 % 1.45 C
1399 03-04-2020 20:30:00 9.8 C 55 % 1.2 C
1400 03-04-2020 20:35:00 9.8 C 56 % 1.45 C
Sensor: Nr:Datum:Temp:Feuchte:Taupunkt:
Aussen-T/F 1401 03-04-2020 20:40:00 9.8 C 56 % 1.45 C
1402 03-04-2020 20:45:00 9.7 C 56 % 1.36 C
1403 03-04-2020 20:50:00 9.7 C 54 % 0.86 C
1404 03-04-2020 20:55:00 9.6 C 56 % 1.27 C
1405 03-04-2020 21:00:00 9.6 C 55 % 1.02 C
1406 03-04-2020 21:05:00 9.5 C 53 % 0.41 C
1407 03-04-2020 21:10:00 9.5 C 53 % 0.41 C
1408 03-04-2020 21:15:00 9.5 C 53 % 0.41 C
1409 03-04-2020 21:20:00 9.4 C 54 % 0.58 C
1410 03-04-2020 21:25:00 9.4 C 55 % 0.83 C
1411 03-04-2020 21:30:00 9.2 C 57 % 1.14 C
1412 03-04-2020 21:35:00 9.1 C 55 % 0.55 C
1413 03-04-2020 21:40:00 9 C 56 % 0.71 C
1414 03-04-2020 21:45:00 8.9 C 58 % 1.1 C
1415 03-04-2020 21:50:00 8.8 C 58 % 1 C
1416 03-04-2020 21:55:00 8.8 C 57 % 0.76 C
1417 03-04-2020 22:00:00 8.7 C 58 % 0.91 C
1418 03-04-2020 22:05:00 8.6 C 57 % 0.58 C
1419 03-04-2020 22:10:00 8.6 C 59 % 1.05 C
1420 03-04-2020 22:15:00 8.5 C 59 % 0.96 C
1421 03-04-2020 22:20:00 8.4 C 60 % 1.1 C
1422 03-04-2020 22:25:00 8.2 C 61 % 1.14 C
1423 03-04-2020 22:30:00 7.9 C 61 % 0.86 C
1424 03-04-2020 22:35:00 7.7 C 62 % 0.89 C
1425 03-04-2020 22:40:00 7.5 C 63 % 0.92 C
Sensor: Nr:Datum:Temp:Feuchte:Taupunkt:
Aussen-T/F 1426 03-04-2020 22:45:00 7.3 C 64 % 0.95 C
1427 03-04-2020 22:50:00 7.1 C 64 % 0.76 C
1428 03-04-2020 22:55:00 7.1 C 63 % 0.55 C
1429 03-04-2020 23:00:00 7 C 63 % 0.45 C
1430 03-04-2020 23:05:00 7 C 63 % 0.45 C
1431 03-04-2020 23:10:00 7.2 C 62 % 0.42 C
1432 03-04-2020 23:15:00 7.4 C 61 % 0.38 C
1433 03-04-2020 23:20:00 7.6 C 62 % 0.8 C
1434 03-04-2020 23:25:00 7.4 C 62 % 0.61 C
1435 03-04-2020 23:30:00 7 C 63 % 0.45 C
1436 03-04-2020 23:35:00 6.6 C 65 % 0.5 C
1437 03-04-2020 23:40:00 6.4 C 65 % 0.31 C
1438 03-04-2020 23:45:00 6.2 C 66 % 0.33 C
1439 03-04-2020 23:50:00 6 C 67 % 0.35 C
1440 03-04-2020 23:55:00 5.8 C 67 % 0.16 C
1441 04-04-2020 00:00:00 5.7 C 68 % 0.27 C
1442 04-04-2020 00:05:00 5.7 C 68 % 0.27 C
1443 04-04-2020 00:10:00 5.7 C 68 % 0.27 C
1444 04-04-2020 00:15:00 5.7 C 67 % 0.06 C
1445 04-04-2020 00:20:00 5.7 C 67 % 0.06 C
1446 04-04-2020 00:25:00 5.8 C 66 % -0.05 C
1447 04-04-2020 00:30:00 5.8 C 66 % -0.05 C
1448 04-04-2020 00:35:00 5.8 C 66 % -0.05 C
1449 04-04-2020 00:40:00 5.7 C 66 % -0.14 C
1450 04-04-2020 00:45:00 5.6 C 67 % -0.03 C
Sensor: Nr:Datum:Temp:Feuchte:Taupunkt:
Aussen-T/F 1451 04-04-2020 00:50:00 5.4 C 68 % -0.02 C
1452 04-04-2020 00:55:00 5.2 C 68 % -0.21 C
1453 04-04-2020 01:00:00 5.1 C 69 % -0.11 C
1454 04-04-2020 01:05:00 5.1 C 69 % -0.11 C
1455 04-04-2020 01:10:00 5.1 C 69 % -0.11 C
1456 04-04-2020 01:15:00 5 C 69 % -0.2 C
1457 04-04-2020 01:20:00 4.9 C 69 % -0.3 C
1458 04-04-2020 01:25:00 4.9 C 70 % -0.1 C
1459 04-04-2020 01:30:00 4.8 C 71 % 0 C
1460 04-04-2020 01:35:00 4.7 C 72 % 0.09 C
1461 04-04-2020 01:40:00 4.5 C 73 % 0.09 C
1462 04-04-2020 01:45:00 4.3 C 73 % -0.1 C
1463 04-04-2020 01:50:00 4.1 C 74 % -0.11 C
1464 04-04-2020 01:55:00 3.8 C 75 % -0.21 C
1465 04-04-2020 02:00:00 3.6 C 76 % -0.22 C
1466 04-04-2020 02:05:00 3.3 C 77 % -0.34 C
1467 04-04-2020 02:10:00 3 C 78 % -0.45 C
1468 04-04-2020 02:15:00 2.8 C 78 % -0.65 C
1469 04-04-2020 02:20:00 2.6 C 79 % -0.67 C
1470 04-04-2020 02:25:00 2.5 C 80 % -0.59 C
1471 04-04-2020 02:30:00 2.3 C 80 % -0.79 C
1472 04-04-2020 02:35:00 2.2 C 81 % -0.71 C
1473 04-04-2020 02:40:00 2.1 C 81 % -0.81 C
1474 04-04-2020 02:45:00 1.9 C 82 % -0.84 C
1475 04-04-2020 02:50:00 1.9 C 83 % -0.67 C
Sensor: Nr:Datum:Temp:Feuchte:Taupunkt:
Aussen-T/F 1476 04-04-2020 02:55:00 1.9 C 83 % -0.67 C
1477 04-04-2020 03:00:00 1.8 C 83 % -0.77 C
1478 04-04-2020 03:05:00 1.7 C 83 % -0.87 C
1479 04-04-2020 03:10:00 1.7 C 83 % -0.87 C
1480 04-04-2020 03:15:00 1.5 C 83 % -1.06 C
1481 04-04-2020 03:20:00 1.4 C 84 % -1 C
1482 04-04-2020 03:25:00 1.3 C 85 % -0.94 C
1483 04-04-2020 03:30:00 1.3 C 85 % -0.94 C
1484 04-04-2020 03:35:00 1.4 C 86 % -0.68 C
1485 04-04-2020 03:40:00 1.4 C 86 % -0.68 C
1486 04-04-2020 03:45:00 1.3 C 85 % -0.94 C
1487 04-04-2020 03:50:00 1.2 C 85 % -1.03 C
1488 04-04-2020 03:55:00 1 C 85 % -1.23 C
1489 04-04-2020 04:00:00 0.9 C 85 % -1.33 C
1490 04-04-2020 04:05:00 0.8 C 86 % -1.27 C
1491 04-04-2020 04:10:00 0.7 C 86 % -1.37 C
1492 04-04-2020 04:15:00 0.6 C 86 % -1.46 C
1493 04-04-2020 04:20:00 0.5 C 87 % -1.41 C
1494 04-04-2020 04:25:00 0.4 C 87 % -1.5 C
1495 04-04-2020 04:30:00 0.4 C 87 % -1.5 C
1496 04-04-2020 04:35:00 0.3 C 87 % -1.6 C
1497 04-04-2020 04:40:00 0.3 C 88 % -1.45 C
1498 04-04-2020 04:45:00 0.3 C 88 % -1.45 C
1499 04-04-2020 04:50:00 0.2 C 87 % -1.7 C
1500 04-04-2020 04:55:00 0.2 C 88 % -1.55 C
Sensor: Nr:Datum:Temp:Feuchte:Taupunkt:
Aussen-T/F 1501 04-04-2020 05:00:00 0.2 C 88 % -1.55 C
1502 04-04-2020 05:05:00 0.2 C 88 % -1.55 C
1503 04-04-2020 05:10:00 0.1 C 88 % -1.65 C
1504 04-04-2020 05:15:00 0.1 C 88 % -1.65 C
1505 04-04-2020 05:20:00 -0.1 C 88 % -1.84 C
1506 04-04-2020 05:25:00 -0.1 C 89 % -1.69 C
1507 04-04-2020 05:30:00 -0.1 C 89 % -1.69 C
1508 04-04-2020 05:35:00 -0.1 C 89 % -1.69 C
1509 04-04-2020 05:40:00 -0.2 C 89 % -1.79 C
1510 04-04-2020 05:45:00 -0.2 C 89 % -1.79 C
1511 04-04-2020 05:50:00 -0.2 C 89 % -1.79 C
1512 04-04-2020 05:55:00 -0.2 C 89 % -1.79 C
1513 04-04-2020 06:00:00 -0.2 C 89 % -1.79 C
1514 04-04-2020 06:05:00 -0.3 C 89 % -1.89 C
1515 04-04-2020 06:10:00 -0.4 C 89 % -1.99 C
1516 04-04-2020 06:15:00 -0.4 C 89 % -1.99 C
1517 04-04-2020 06:20:00 -0.4 C 90 % -1.84 C
1518 04-04-2020 06:25:00 -0.5 C 89 % -2.09 C
1519 04-04-2020 06:30:00 -0.4 C 90 % -1.84 C
1520 04-04-2020 06:35:00 -0.6 C 89 % -2.18 C
1521 04-04-2020 06:40:00 -0.4 C 90 % -1.84 C
1522 04-04-2020 06:45:00 -0.4 C 90 % -1.84 C
1523 04-04-2020 06:50:00 -0.4 C 90 % -1.84 C
1524 04-04-2020 06:55:00 -0.6 C 90 % -2.03 C
1525 04-04-2020 07:00:00 -0.6 C 90 % -2.03 C
Sensor: Nr:Datum:Temp:Feuchte:Taupunkt:
Aussen-T/F 1526 04-04-2020 07:05:00 -0.7 C 90 % -2.13 C
1527 04-04-2020 07:10:00 -0.7 C 90 % -2.13 C
1528 04-04-2020 07:15:00 -0.7 C 90 % -2.13 C
1529 04-04-2020 07:20:00 -0.8 C 90 % -2.23 C
1530 04-04-2020 07:25:00 -0.8 C 91 % -2.08 C
1531 04-04-2020 07:30:00 -0.8 C 91 % -2.08 C
1532 04-04-2020 07:35:00 -0.8 C 91 % -2.08 C
1533 04-04-2020 07:40:00 -0.8 C 90 % -2.23 C
1534 04-04-2020 07:45:00 -0.8 C 90 % -2.23 C
1535 04-04-2020 07:50:00 -0.8 C 91 % -2.08 C
1536 04-04-2020 07:55:00 -0.9 C 91 % -2.18 C
1537 04-04-2020 08:00:00 -0.9 C 91 % -2.18 C
1538 04-04-2020 08:05:00 -0.9 C 91 % -2.18 C
1539 04-04-2020 08:10:00 -0.8 C 91 % -2.08 C
1540 04-04-2020 08:15:00 -0.8 C 92 % -1.93 C
1541 04-04-2020 08:20:00 -0.7 C 92 % -1.83 C
1542 04-04-2020 08:25:00 -0.6 C 92 % -1.74 C
1543 04-04-2020 08:30:00 -0.4 C 92 % -1.54 C
1544 04-04-2020 08:35:00 -0.3 C 92 % -1.44 C
1545 04-04-2020 08:40:00 -0.3 C 92 % -1.44 C
1546 04-04-2020 08:45:00 -0.2 C 92 % -1.34 C
1547 04-04-2020 08:50:00 -0.1 C 92 % -1.24 C
1548 04-04-2020 08:55:00 -0.1 C 92 % -1.24 C
1549 04-04-2020 09:00:00 0 C 92 % -1.14 C
1550 04-04-2020 09:05:00 0.1 C 92 % -1.04 C
Sensor: Nr:Datum:Temp:Feuchte:Taupunkt:
Aussen-T/F 1551 04-04-2020 09:10:00 0.2 C 91 % -1.09 C
1552 04-04-2020 09:15:00 0.3 C 91 % -0.99 C
1553 04-04-2020 09:20:00 0.3 C 91 % -0.99 C
1554 04-04-2020 09:25:00 0.4 C 91 % -0.89 C
1555 04-04-2020 09:30:00 0.5 C 91 % -0.79 C
1556 04-04-2020 09:35:00 0.7 C 91 % -0.6 C
1557 04-04-2020 09:40:00 0.8 C 91 % -0.5 C
1558 04-04-2020 09:45:00 1 C 91 % -0.3 C
1559 04-04-2020 09:50:00 1.1 C 91 % -0.2 C
1560 04-04-2020 09:55:00 1.3 C 91 % 0 C
1561 04-04-2020 10:00:00 1.5 C 91 % 0.19 C
1562 04-04-2020 10:05:00 1.8 C 91 % 0.49 C
1563 04-04-2020 10:10:00 2 C 90 % 0.54 C
1564 04-04-2020 10:15:00 2.2 C 90 % 0.73 C
1565 04-04-2020 10:20:00 2.3 C 89 % 0.68 C
1566 04-04-2020 10:25:00 2.6 C 89 % 0.97 C
1567 04-04-2020 10:30:00 2.7 C 88 % 0.92 C
1568 04-04-2020 10:35:00 3 C 88 % 1.21 C
1569 04-04-2020 10:40:00 3.3 C 88 % 1.51 C
1570 04-04-2020 10:45:00 3.7 C 87 % 1.74 C
1571 04-04-2020 10:50:00 4 C 86 % 1.88 C
1572 04-04-2020 10:55:00 4.3 C 84 % 1.84 C
1573 04-04-2020 11:00:00 4.8 C 83 % 2.16 C
1574 04-04-2020 11:05:00 5.2 C 82 % 2.39 C
1575 04-04-2020 11:10:00 5.7 C 80 % 2.53 C
Sensor: Nr:Datum:Temp:Feuchte:Taupunkt:
Aussen-T/F 1576 04-04-2020 11:15:00 6.1 C 78 % 2.56 C
1577 04-04-2020 11:20:00 6.5 C 76 % 2.58 C
1578 04-04-2020 11:25:00 6.8 C 76 % 2.87 C
1579 04-04-2020 11:30:00 7.2 C 73 % 2.69 C
1580 04-04-2020 11:35:00 7.4 C 69 % 2.1 C
1581 04-04-2020 11:40:00 7.8 C 68 % 2.27 C
1582 04-04-2020 11:45:00 8.2 C 67 % 2.45 C
1583 04-04-2020 11:50:00 8.5 C 66 % 2.52 C
1584 04-04-2020 11:55:00 8.8 C 63 % 2.16 C
1585 04-04-2020 12:00:00 9 C 63 % 2.35 C
1586 04-04-2020 12:05:00 9.2 C 61 % 2.08 C
1587 04-04-2020 12:10:00 9.3 C 61 % 2.18 C
1588 04-04-2020 12:15:00 9.6 C 60 % 2.23 C
1589 04-04-2020 12:20:00 9.9 C 59 % 2.27 C
1590 04-04-2020 12:25:00 10.1 C 57 % 1.98 C
1591 04-04-2020 12:30:00 10.3 C 55 % 1.67 C
1592 04-04-2020 12:35:00 10.3 C 54 % 1.41 C
1593 04-04-2020 12:40:00 10.3 C 55 % 1.67 C
1594 04-04-2020 12:45:00 10.3 C 55 % 1.67 C
1595 04-04-2020 12:50:00 10.4 C 54 % 1.51 C
1596 04-04-2020 12:55:00 10.6 C 55 % 1.95 C
1597 04-04-2020 13:00:00 10.7 C 53 % 1.52 C
1598 04-04-2020 13:05:00 10.8 C 53 % 1.62 C
1599 04-04-2020 13:10:00 10.9 C 54 % 1.97 C
1600 04-04-2020 13:15:00 11.2 C 54 % 2.25 C
Sensor: Nr:Datum:Temp:Feuchte:Taupunkt:
Aussen-T/F 1601 04-04-2020 13:20:00 11.3 C 52 % 1.81 C
1602 04-04-2020 13:25:00 11.4 C 53 % 2.17 C
1603 04-04-2020 13:30:00 11.5 C 51 % 1.73 C
1604 04-04-2020 13:35:00 11.6 C 51 % 1.82 C
1605 04-04-2020 13:40:00 11.7 C 52 % 2.18 C
1606 04-04-2020 13:45:00 11.8 C 50 % 1.73 C
1607 04-04-2020 13:50:00 12 C 51 % 2.19 C
1608 04-04-2020 13:55:00 12.2 C 49 % 1.82 C
1609 04-04-2020 14:00:00 12.1 C 48 % 1.44 C
1610 04-04-2020 14:05:00 12.1 C 49 % 1.72 C
1611 04-04-2020 14:10:00 12.3 C 47 % 1.33 C
1612 04-04-2020 14:15:00 12.6 C 48 % 1.89 C
1613 04-04-2020 14:20:00 12.7 C 47 % 1.69 C
1614 04-04-2020 14:25:00 12.8 C 47 % 1.78 C
1615 04-04-2020 14:30:00 12.9 C 47 % 1.87 C
1616 04-04-2020 14:35:00 13 C 47 % 1.97 C
1617 04-04-2020 14:40:00 13.1 C 46 % 1.76 C
1618 04-04-2020 14:45:00 13.2 C 47 % 2.15 C
1619 04-04-2020 14:50:00 13.2 C 46 % 1.85 C
1620 04-04-2020 14:55:00 13.2 C 47 % 2.15 C
1621 04-04-2020 15:00:00 13.3 C 45 % 1.63 C
1622 04-04-2020 15:05:00 13.2 C 47 % 2.15 C
1623 04-04-2020 15:10:00 13.3 C 46 % 1.94 C
1624 04-04-2020 15:15:00 13.3 C 45 % 1.63 C
1625 04-04-2020 15:20:00 13.3 C 45 % 1.63 C
Sensor: Nr:Datum:Temp:Feuchte:Taupunkt:
Aussen-T/F 1626 04-04-2020 15:25:00 13.3 C 46 % 1.94 C
1627 04-04-2020 15:30:00 13.6 C 46 % 2.21 C
1628 04-04-2020 15:35:00 13.7 C 46 % 2.3 C
1629 04-04-2020 15:40:00 13.8 C 45 % 2.09 C
1630 04-04-2020 15:45:00 13.9 C 45 % 2.18 C
1631 04-04-2020 15:50:00 14 C 44 % 1.95 C
1632 04-04-2020 15:55:00 14 C 44 % 1.95 C
1633 04-04-2020 16:00:00 14.2 C 44 % 2.14 C
1634 04-04-2020 16:05:00 14.4 C 43 % 2 C
1635 04-04-2020 16:10:00 14.4 C 43 % 2 C
1636 04-04-2020 16:15:00 14.7 C 43 % 2.27 C
1637 04-04-2020 16:20:00 14.8 C 42 % 2.03 C
1638 04-04-2020 16:25:00 14.7 C 42 % 1.94 C
1639 04-04-2020 16:30:00 14.7 C 43 % 2.27 C
1640 04-04-2020 16:35:00 14.9 C 43 % 2.45 C
1641 04-04-2020 16:40:00 15.2 C 43 % 2.72 C
1642 04-04-2020 16:45:00 15.3 C 42 % 2.48 C
1643 04-04-2020 16:50:00 15.4 C 42 % 2.57 C
1644 04-04-2020 16:55:00 15.6 C 41 % 2.41 C
1645 04-04-2020 17:00:00 15.7 C 42 % 2.84 C
1646 04-04-2020 17:05:00 15.9 C 42 % 3.02 C
1647 04-04-2020 17:10:00 16.1 C 40 % 2.51 C
1648 04-04-2020 17:15:00 16.1 C 41 % 2.86 C
1649 04-04-2020 17:20:00 15.9 C 41 % 2.68 C
1650 04-04-2020 17:25:00 15.9 C 41 % 2.68 C
Sensor: Nr:Datum:Temp:Feuchte:Taupunkt:
Aussen-T/F 1651 04-04-2020 17:30:00 15.8 C 42 % 2.93 C
1652 04-04-2020 17:35:00 15.8 C 41 % 2.59 C
1653 04-04-2020 17:40:00 15.7 C 43 % 3.17 C
1654 04-04-2020 17:45:00 15.9 C 43 % 3.35 C
1655 04-04-2020 17:50:00 16 C 42 % 3.11 C
1656 04-04-2020 17:55:00 16.1 C 42 % 3.2 C
1657 04-04-2020 18:00:00 16.3 C 44 % 4.04 C
1658 04-04-2020 18:05:00 16.5 C 41 % 3.22 C
1659 04-04-2020 18:10:00 16.5 C 43 % 3.89 C
1660 04-04-2020 18:15:00 16.5 C 42 % 3.56 C
1661 04-04-2020 18:20:00 16.4 C 42 % 3.47 C
1662 04-04-2020 18:25:00 16.3 C 43 % 3.71 C
1663 04-04-2020 18:30:00 16.1 C 43 % 3.53 C
1664 04-04-2020 18:35:00 16.1 C 44 % 3.86 C
1665 04-04-2020 18:40:00 16.2 C 44 % 3.95 C
1666 04-04-2020 18:45:00 16.3 C 43 % 3.71 C
1667 04-04-2020 18:50:00 16.1 C 44 % 3.86 C
1668 04-04-2020 18:55:00 16 C 44 % 3.77 C
1669 04-04-2020 19:00:00 16 C 45 % 4.09 C
1670 04-04-2020 19:05:00 16 C 44 % 3.77 C
1671 04-04-2020 19:10:00 15.9 C 44 % 3.68 C
1672 04-04-2020 19:15:00 15.8 C 44 % 3.59 C
1673 04-04-2020 19:20:00 15.6 C 45 % 3.72 C
1674 04-04-2020 19:25:00 15.4 C 48 % 4.46 C
1675 04-04-2020 19:30:00 15.3 C 46 % 3.76 C
Sensor: Nr:Datum:Temp:Feuchte:Taupunkt:
Aussen-T/F 1676 04-04-2020 19:35:00 15.1 C 49 % 4.48 C
1677 04-04-2020 19:40:00 14.9 C 51 % 4.86 C
1678 04-04-2020 19:45:00 14.4 C 52 % 4.68 C
1679 04-04-2020 19:50:00 13.9 C 53 % 4.49 C
1680 04-04-2020 19:55:00 13.2 C 54 % 4.11 C
1681 04-04-2020 20:00:00 12.6 C 56 % 4.07 C
1682 04-04-2020 20:05:00 12.1 C 57 % 3.85 C
1683 04-04-2020 20:10:00 11.7 C 58 % 3.72 C
1684 04-04-2020 20:15:00 11.3 C 59 % 3.59 C
1685 04-04-2020 20:20:00 10.9 C 61 % 3.69 C
1686 04-04-2020 20:25:00 10.6 C 62 % 3.63 C
1687 04-04-2020 20:30:00 10.3 C 63 % 3.58 C
1688 04-04-2020 20:35:00 9.9 C 63 % 3.2 C
1689 04-04-2020 20:40:00 9.7 C 63 % 3.01 C
1690 04-04-2020 20:45:00 9.4 C 63 % 2.72 C
1691 04-04-2020 20:50:00 9.2 C 63 % 2.53 C
1692 04-04-2020 20:55:00 9 C 64 % 2.57 C
1693 04-04-2020 21:00:00 8.8 C 64 % 2.38 C
1694 04-04-2020 21:05:00 8.7 C 64 % 2.28 C
1695 04-04-2020 21:10:00 8.6 C 65 % 2.4 C
1696 04-04-2020 21:15:00 8.5 C 65 % 2.31 C
1697 04-04-2020 21:20:00 8.4 C 65 % 2.21 C
1698 04-04-2020 21:25:00 8.3 C 65 % 2.12 C
1699 04-04-2020 21:30:00 8.2 C 66 % 2.24 C
1700 04-04-2020 21:35:00 8.1 C 67 % 2.35 C
Sensor: Nr:Datum:Temp:Feuchte:Taupunkt:
Aussen-T/F 1701 04-04-2020 21:40:00 8 C 67 % 2.26 C
1702 04-04-2020 21:45:00 7.8 C 68 % 2.27 C
1703 04-04-2020 21:50:00 7.7 C 68 % 2.18 C
1704 04-04-2020 21:55:00 7.5 C 69 % 2.19 C
1705 04-04-2020 22:00:00 7.3 C 69 % 2 C
1706 04-04-2020 22:05:00 7.1 C 70 % 2.01 C
1707 04-04-2020 22:10:00 6.8 C 71 % 1.92 C
1708 04-04-2020 22:15:00 6.6 C 71 % 1.73 C
1709 04-04-2020 22:20:00 6.4 C 72 % 1.73 C
1710 04-04-2020 22:25:00 6.2 C 73 % 1.73 C
1711 04-04-2020 22:30:00 6.2 C 74 % 1.92 C
1712 04-04-2020 22:35:00 6.2 C 74 % 1.92 C
1713 04-04-2020 22:40:00 6 C 74 % 1.73 C
1714 04-04-2020 22:45:00 5.8 C 74 % 1.53 C
1715 04-04-2020 22:50:00 5.7 C 74 % 1.44 C
1716 04-04-2020 22:55:00 5.6 C 74 % 1.34 C
1717 04-04-2020 23:00:00 5.4 C 74 % 1.15 C
1718 04-04-2020 23:05:00 5.3 C 74 % 1.05 C
1719 04-04-2020 23:10:00 5.2 C 74 % 0.95 C
1720 04-04-2020 23:15:00 5.1 C 75 % 1.04 C
1721 04-04-2020 23:20:00 4.9 C 75 % 0.85 C
1722 04-04-2020 23:25:00 4.8 C 76 % 0.94 C
1723 04-04-2020 23:30:00 4.6 C 77 % 0.92 C
1724 04-04-2020 23:35:00 4.4 C 77 % 0.73 C
1725 04-04-2020 23:40:00 4.4 C 78 % 0.91 C
Sensor: Nr:Datum:Temp:Feuchte:Taupunkt:
Aussen-T/F 1726 04-04-2020 23:45:00 4.3 C 78 % 0.81 C
1727 04-04-2020 23:50:00 4.3 C 78 % 0.81 C
1728 04-04-2020 23:55:00 4.2 C 78 % 0.71 C
1729 05-04-2020 00:00:00 4.1 C 78 % 0.62 C
1730 05-04-2020 00:05:00 4 C 78 % 0.52 C
1731 05-04-2020 00:10:00 3.9 C 79 % 0.6 C
1732 05-04-2020 00:15:00 3.8 C 79 % 0.5 C
1733 05-04-2020 00:20:00 3.7 C 80 % 0.58 C
1734 05-04-2020 00:25:00 3.6 C 81 % 0.65 C
1735 05-04-2020 00:30:00 3.5 C 81 % 0.55 C
1736 05-04-2020 00:35:00 3.4 C 81 % 0.46 C
1737 05-04-2020 00:40:00 3.3 C 82 % 0.53 C
1738 05-04-2020 00:45:00 3.3 C 82 % 0.53 C
1739 05-04-2020 00:50:00 3.3 C 82 % 0.53 C
1740 05-04-2020 00:55:00 3.2 C 82 % 0.43 C
1741 05-04-2020 01:00:00 3.1 C 82 % 0.33 C
1742 05-04-2020 01:05:00 3.1 C 83 % 0.5 C
1743 05-04-2020 01:10:00 2.9 C 83 % 0.31 C
1744 05-04-2020 01:15:00 2.9 C 84 % 0.47 C
1745 05-04-2020 01:20:00 2.9 C 84 % 0.47 C
1746 05-04-2020 01:25:00 2.9 C 84 % 0.47 C
1747 05-04-2020 01:30:00 2.9 C 85 % 0.63 C
1748 05-04-2020 01:35:00 2.9 C 85 % 0.63 C
1749 05-04-2020 01:40:00 2.9 C 84 % 0.47 C
1750 05-04-2020 01:45:00 2.8 C 84 % 0.37 C
Sensor: Nr:Datum:Temp:Feuchte:Taupunkt:
Aussen-T/F 1751 05-04-2020 01:50:00 2.8 C 85 % 0.54 C
1752 05-04-2020 01:55:00 2.7 C 84 % 0.27 C
1753 05-04-2020 02:00:00 2.6 C 85 % 0.34 C
1754 05-04-2020 02:05:00 2.5 C 85 % 0.24 C
1755 05-04-2020 02:10:00 2.4 C 86 % 0.3 C
1756 05-04-2020 02:15:00 2.3 C 86 % 0.21 C
1757 05-04-2020 02:20:00 2.3 C 87 % 0.36 C
1758 05-04-2020 02:25:00 2.3 C 87 % 0.36 C
1759 05-04-2020 02:30:00 2.3 C 87 % 0.36 C
1760 05-04-2020 02:35:00 2.3 C 86 % 0.21 C
1761 05-04-2020 02:40:00 2.3 C 87 % 0.36 C
1762 05-04-2020 02:45:00 2.2 C 86 % 0.11 C
1763 05-04-2020 02:50:00 2.2 C 87 % 0.27 C
1764 05-04-2020 02:55:00 2.1 C 87 % 0.17 C
1765 05-04-2020 03:00:00 2.1 C 87 % 0.17 C
1766 05-04-2020 03:05:00 2 C 87 % 0.07 C
1767 05-04-2020 03:10:00 1.9 C 87 % -0.03 C
1768 05-04-2020 03:15:00 1.9 C 87 % -0.03 C
1769 05-04-2020 03:20:00 1.9 C 88 % 0.13 C
1770 05-04-2020 03:25:00 1.9 C 88 % 0.13 C
1771 05-04-2020 03:30:00 1.8 C 88 % 0.03 C
1772 05-04-2020 03:35:00 1.8 C 88 % 0.03 C
1773 05-04-2020 03:40:00 1.7 C 88 % -0.07 C
1774 05-04-2020 03:45:00 1.6 C 88 % -0.17 C
1775 05-04-2020 03:50:00 1.6 C 88 % -0.17 C
Sensor: Nr:Datum:Temp:Feuchte:Taupunkt:
Aussen-T/F 1776 05-04-2020 03:55:00 1.6 C 89 % -0.01 C
1777 05-04-2020 04:00:00 1.5 C 89 % -0.11 C
1778 05-04-2020 04:05:00 1.4 C 89 % -0.21 C
1779 05-04-2020 04:10:00 1.4 C 89 % -0.21 C
1780 05-04-2020 04:15:00 1.3 C 89 % -0.31 C
1781 05-04-2020 04:20:00 1.3 C 90 % -0.15 C
1782 05-04-2020 04:25:00 1.3 C 90 % -0.15 C
1783 05-04-2020 04:30:00 1.3 C 90 % -0.15 C
1784 05-04-2020 04:35:00 1.3 C 90 % -0.15 C
1785 05-04-2020 04:40:00 1.2 C 90 % -0.25 C
1786 05-04-2020 04:45:00 1.2 C 90 % -0.25 C
1787 05-04-2020 04:50:00 1.1 C 90 % -0.35 C
1788 05-04-2020 04:55:00 1.1 C 90 % -0.35 C
1789 05-04-2020 05:00:00 1 C 90 % -0.45 C
1790 05-04-2020 05:05:00 0.9 C 90 % -0.55 C
1791 05-04-2020 05:10:00 0.9 C 91 % -0.4 C
1792 05-04-2020 05:15:00 0.8 C 91 % -0.5 C
1793 05-04-2020 05:20:00 0.8 C 91 % -0.5 C
1794 05-04-2020 05:25:00 0.8 C 91 % -0.5 C
1795 05-04-2020 05:30:00 0.7 C 91 % -0.6 C
1796 05-04-2020 05:35:00 0.7 C 91 % -0.6 C
1797 05-04-2020 05:40:00 0.6 C 91 % -0.7 C
1798 05-04-2020 05:45:00 0.6 C 91 % -0.7 C
1799 05-04-2020 05:50:00 0.5 C 91 % -0.79 C
1800 05-04-2020 05:55:00 0.5 C 92 % -0.65 C
Sensor: Nr:Datum:Temp:Feuchte:Taupunkt:
Aussen-T/F 1801 05-04-2020 06:00:00 0.5 C 92 % -0.65 C
1802 05-04-2020 06:05:00 0.4 C 92 % -0.74 C
1803 05-04-2020 06:10:00 0.4 C 92 % -0.74 C
1804 05-04-2020 06:15:00 0.4 C 92 % -0.74 C
1805 05-04-2020 06:20:00 0.4 C 92 % -0.74 C
1806 05-04-2020 06:25:00 0.4 C 92 % -0.74 C
1807 05-04-2020 06:30:00 0.4 C 92 % -0.74 C
1808 05-04-2020 06:35:00 0.3 C 92 % -0.84 C
1809 05-04-2020 06:40:00 0.3 C 92 % -0.84 C
1810 05-04-2020 06:45:00 0.3 C 93 % -0.7 C
1811 05-04-2020 06:50:00 0.3 C 93 % -0.7 C
1812 05-04-2020 06:55:00 0.3 C 93 % -0.7 C
1813 05-04-2020 07:00:00 0.3 C 93 % -0.7 C
1814 05-04-2020 07:05:00 0.2 C 93 % -0.79 C
1815 05-04-2020 07:10:00 0.2 C 93 % -0.79 C
1816 05-04-2020 07:15:00 0.3 C 93 % -0.7 C
1817 05-04-2020 07:20:00 0.3 C 93 % -0.7 C
1818 05-04-2020 07:25:00 0.3 C 93 % -0.7 C
1819 05-04-2020 07:30:00 0.3 C 93 % -0.7 C
1820 05-04-2020 07:35:00 0.3 C 93 % -0.7 C
1821 05-04-2020 07:40:00 0.4 C 93 % -0.6 C
1822 05-04-2020 07:45:00 0.4 C 93 % -0.6 C
1823 05-04-2020 07:50:00 0.4 C 93 % -0.6 C
1824 05-04-2020 07:55:00 0.5 C 93 % -0.5 C
1825 05-04-2020 08:00:00 0.5 C 93 % -0.5 C
Sensor: Nr:Datum:Temp:Feuchte:Taupunkt:
Aussen-T/F 1826 05-04-2020 08:05:00 0.6 C 94 % -0.25 C
1827 05-04-2020 08:10:00 0.6 C 94 % -0.25 C
1828 05-04-2020 08:15:00 0.7 C 94 % -0.15 C
1829 05-04-2020 08:20:00 0.7 C 94 % -0.15 C
1830 05-04-2020 08:25:00 0.8 C 94 % -0.05 C
1831 05-04-2020 08:30:00 0.9 C 94 % 0.05 C
1832 05-04-2020 08:35:00 1.1 C 94 % 0.24 C
1833 05-04-2020 08:40:00 1.2 C 94 % 0.34 C
1834 05-04-2020 08:45:00 1.2 C 94 % 0.34 C
1835 05-04-2020 08:50:00 1.3 C 94 % 0.44 C
1836 05-04-2020 08:55:00 1.5 C 94 % 0.64 C
1837 05-04-2020 09:00:00 1.6 C 94 % 0.74 C
1838 05-04-2020 09:05:00 1.7 C 94 % 0.84 C
1839 05-04-2020 09:10:00 1.8 C 94 % 0.94 C
1840 05-04-2020 09:15:00 1.9 C 94 % 1.04 C
1841 05-04-2020 09:20:00 2.2 C 94 % 1.34 C
1842 05-04-2020 09:25:00 2.3 C 95 % 1.58 C
1843 05-04-2020 09:30:00 2.6 C 95 % 1.88 C
1844 05-04-2020 09:35:00 2.8 C 95 % 2.08 C
1845 05-04-2020 09:40:00 3 C 95 % 2.28 C
1846 05-04-2020 09:45:00 3.3 C 95 % 2.58 C
1847 05-04-2020 09:50:00 3.4 C 94 % 2.53 C
1848 05-04-2020 09:55:00 3.7 C 94 % 2.83 C
1849 05-04-2020 10:00:00 3.8 C 94 % 2.93 C
1850 05-04-2020 10:05:00 4.1 C 93 % 3.07 C
Sensor: Nr:Datum:Temp:Feuchte:Taupunkt:
Aussen-T/F 1851 05-04-2020 10:10:00 4.4 C 93 % 3.37 C
1852 05-04-2020 10:15:00 4.7 C 92 % 3.51 C
1853 05-04-2020 10:20:00 4.9 C 92 % 3.71 C
1854 05-04-2020 10:25:00 5.2 C 91 % 3.85 C
1855 05-04-2020 10:30:00 5.6 C 90 % 4.09 C
1856 05-04-2020 10:35:00 6.1 C 88 % 4.27 C
1857 05-04-2020 10:40:00 6.5 C 87 % 4.5 C
1858 05-04-2020 10:45:00 6.9 C 85 % 4.56 C
1859 05-04-2020 10:50:00 7.3 C 84 % 4.78 C
1860 05-04-2020 10:55:00 7.8 C 82 % 4.92 C
1861 05-04-2020 11:00:00 8.3 C 80 % 5.06 C
1862 05-04-2020 11:05:00 8.9 C 79 % 5.46 C
1863 05-04-2020 11:10:00 9.4 C 76 % 5.39 C
1864 05-04-2020 11:15:00 9.9 C 75 % 5.68 C
1865 05-04-2020 11:20:00 10.3 C 71 % 5.28 C
1866 05-04-2020 11:25:00 10.7 C 71 % 5.66 C
1867 05-04-2020 11:30:00 11.4 C 64 % 4.84 C
1868 05-04-2020 11:35:00 12.4 C 59 % 4.62 C
1869 05-04-2020 11:40:00 13.1 C 56 % 4.53 C
1870 05-04-2020 11:45:00 13.7 C 49 % 3.19 C
1871 05-04-2020 11:50:00 14.2 C 47 % 3.06 C
1872 05-04-2020 11:55:00 14.8 C 45 % 3 C
1873 05-04-2020 12:00:00 15.3 C 43 % 2.81 C
1874 05-04-2020 12:05:00 15.6 C 41 % 2.41 C
1875 05-04-2020 12:10:00 15.8 C 42 % 2.93 C
Sensor: Nr:Datum:Temp:Feuchte:Taupunkt:
Aussen-T/F 1876 05-04-2020 12:15:00 16.1 C 42 % 3.2 C
1877 05-04-2020 12:20:00 16.2 C 40 % 2.6 C
1878 05-04-2020 12:25:00 16.3 C 39 % 2.34 C
1879 05-04-2020 12:30:00 16.4 C 38 % 2.06 C
1880 05-04-2020 12:35:00 16.6 C 39 % 2.6 C
1881 05-04-2020 12:40:00 16.7 C 40 % 3.05 C
1882 05-04-2020 12:45:00 16.8 C 38 % 2.42 C
1883 05-04-2020 12:50:00 16.8 C 39 % 2.78 C
1884 05-04-2020 12:55:00 16.8 C 37 % 2.04 C
1885 05-04-2020 13:00:00 16.8 C 38 % 2.42 C
1886 05-04-2020 13:05:00 16.9 C 37 % 2.13 C
1887 05-04-2020 13:10:00 17.1 C 38 % 2.68 C
1888 05-04-2020 13:15:00 17.3 C 38 % 2.86 C
1889 05-04-2020 13:20:00 17.2 C 37 % 2.4 C
1890 05-04-2020 13:25:00 17.3 C 37 % 2.49 C
1891 05-04-2020 13:30:00 17.4 C 37 % 2.58 C
1892 05-04-2020 13:35:00 17.4 C 37 % 2.58 C
1893 05-04-2020 13:40:00 17.3 C 38 % 2.86 C
1894 05-04-2020 13:45:00 17.3 C 36 % 2.1 C
1895 05-04-2020 13:50:00 17.3 C 37 % 2.49 C
1896 05-04-2020 13:55:00 17.4 C 36 % 2.19 C
1897 05-04-2020 14:00:00 17.6 C 37 % 2.75 C
1898 05-04-2020 14:05:00 17.7 C 37 % 2.84 C
1899 05-04-2020 14:10:00 17.9 C 35 % 2.24 C
1900 05-04-2020 14:15:00 17.9 C 37 % 3.02 C
Sensor: Nr:Datum:Temp:Feuchte:Taupunkt:
Aussen-T/F 1901 05-04-2020 14:20:00 18.1 C 36 % 2.81 C
1902 05-04-2020 14:25:00 18.2 C 36 % 2.9 C
1903 05-04-2020 14:30:00 18.2 C 35 % 2.5 C
1904 05-04-2020 14:35:00 18.3 C 36 % 2.99 C
1905 05-04-2020 14:40:00 18.6 C 35 % 2.86 C
1906 05-04-2020 14:45:00 18.7 C 35 % 2.94 C
1907 05-04-2020 14:50:00 18.8 C 34 % 2.62 C
1908 05-04-2020 14:55:00 18.6 C 35 % 2.86 C
1909 05-04-2020 15:00:00 18.6 C 35 % 2.86 C
1910 05-04-2020 15:05:00 18.8 C 35 % 3.03 C
1911 05-04-2020 15:10:00 18.9 C 34 % 2.71 C
1912 05-04-2020 15:15:00 19 C 33 % 2.38 C
1913 05-04-2020 15:20:00 18.9 C 34 % 2.71 C
1914 05-04-2020 15:25:00 18.9 C 33 % 2.29 C
1915 05-04-2020 15:30:00 19.1 C 33 % 2.47 C
1916 05-04-2020 15:35:00 18.9 C 32 % 1.86 C
1917 05-04-2020 15:40:00 18.8 C 33 % 2.21 C
1918 05-04-2020 15:45:00 18.9 C 35 % 3.12 C
1919 05-04-2020 15:50:00 19 C 34 % 2.8 C
1920 05-04-2020 15:55:00 19.2 C 33 % 2.56 C
1921 05-04-2020 16:00:00 19.2 C 33 % 2.56 C
1922 05-04-2020 16:05:00 19.3 C 32 % 2.21 C
1923 05-04-2020 16:10:00 19.3 C 33 % 2.64 C
1924 05-04-2020 16:15:00 19.4 C 33 % 2.73 C
1925 05-04-2020 16:20:00 19.5 C 33 % 2.82 C
Sensor: Nr:Datum:Temp:Feuchte:Taupunkt:
Aussen-T/F 1926 05-04-2020 16:25:00 19.6 C 32 % 2.47 C
1927 05-04-2020 16:30:00 19.6 C 34 % 3.33 C
1928 05-04-2020 16:35:00 19.8 C 33 % 3.08 C
1929 05-04-2020 16:40:00 19.9 C 33 % 3.17 C
1930 05-04-2020 16:45:00 20.3 C 32 % 3.08 C
1931 05-04-2020 16:50:00 20.3 C 31 % 2.64 C
1932 05-04-2020 16:55:00 20.2 C 31 % 2.55 C
1933 05-04-2020 17:00:00 20.2 C 31 % 2.55 C
1934 05-04-2020 17:05:00 20.1 C 33 % 3.34 C
1935 05-04-2020 17:10:00 20.5 C 32 % 3.26 C
1936 05-04-2020 17:15:00 20.9 C 32 % 3.61 C
1937 05-04-2020 17:20:00 21.2 C 30 % 2.95 C
1938 05-04-2020 17:25:00 21.1 C 31 % 3.33 C
1939 05-04-2020 17:30:00 21.2 C 30 % 2.95 C
1940 05-04-2020 17:35:00 21.2 C 30 % 2.95 C
1941 05-04-2020 17:40:00 21.2 C 30 % 2.95 C
1942 05-04-2020 17:45:00 21.1 C 30 % 2.87 C
1943 05-04-2020 17:50:00 21 C 30 % 2.78 C
1944 05-04-2020 17:55:00 21.1 C 30 % 2.87 C
1945 05-04-2020 18:00:00 20.9 C 31 % 3.16 C
1946 05-04-2020 18:05:00 20.9 C 30 % 2.69 C
1947 05-04-2020 18:10:00 20.7 C 30 % 2.52 C
1948 05-04-2020 18:15:00 20.4 C 31 % 2.72 C
1949 05-04-2020 18:20:00 20.5 C 31 % 2.81 C
1950 05-04-2020 18:25:00 20.7 C 32 % 3.43 C
Sensor: Nr:Datum:Temp:Feuchte:Taupunkt:
Aussen-T/F 1951 05-04-2020 18:30:00 20.7 C 31 % 2.98 C
1952 05-04-2020 18:35:00 20.7 C 32 % 3.43 C
1953 05-04-2020 18:40:00 20.6 C 31 % 2.9 C
1954 05-04-2020 18:45:00 20.4 C 31 % 2.72 C
1955 05-04-2020 18:50:00 20.4 C 31 % 2.72 C
1956 05-04-2020 18:55:00 20.4 C 31 % 2.72 C
1957 05-04-2020 19:00:00 20.3 C 31 % 2.64 C
1958 05-04-2020 19:05:00 20.3 C 31 % 2.64 C
1959 05-04-2020 19:10:00 20.2 C 31 % 2.55 C
1960 05-04-2020 19:15:00 20.1 C 32 % 2.91 C
1961 05-04-2020 19:20:00 19.9 C 33 % 3.17 C
1962 05-04-2020 19:25:00 19.8 C 36 % 4.31 C
1963 05-04-2020 19:30:00 19.6 C 35 % 3.74 C
1964 05-04-2020 19:35:00 19.4 C 36 % 3.96 C
1965 05-04-2020 19:40:00 19.1 C 38 % 4.46 C
1966 05-04-2020 19:45:00 18.6 C 39 % 4.39 C
1967 05-04-2020 19:50:00 17.9 C 40 % 4.12 C
1968 05-04-2020 19:55:00 17.2 C 42 % 4.19 C
1969 05-04-2020 20:00:00 16.4 C 44 % 4.13 C
1970 05-04-2020 20:05:00 15.8 C 45 % 3.9 C
1971 05-04-2020 20:10:00 15.1 C 47 % 3.88 C
1972 05-04-2020 20:15:00 14.6 C 47 % 3.43 C
1973 05-04-2020 20:20:00 14.2 C 50 % 3.94 C
1974 05-04-2020 20:25:00 13.8 C 50 % 3.57 C
1975 05-04-2020 20:30:00 13.4 C 51 % 3.48 C
Sensor: Nr:Datum:Temp:Feuchte:Taupunkt:
Aussen-T/F 1976 05-04-2020 20:35:00 13.1 C 52 % 3.48 C
1977 05-04-2020 20:40:00 12.8 C 53 % 3.47 C
1978 05-04-2020 20:45:00 12.6 C 54 % 3.55 C
1979 05-04-2020 20:50:00 12.4 C 54 % 3.36 C
1980 05-04-2020 20:55:00 12.3 C 54 % 3.27 C
1981 05-04-2020 21:00:00 12.1 C 56 % 3.6 C
1982 05-04-2020 21:05:00 11.9 C 56 % 3.41 C
1983 05-04-2020 21:10:00 11.8 C 57 % 3.57 C
1984 05-04-2020 21:15:00 11.7 C 57 % 3.48 C
1985 05-04-2020 21:20:00 11.6 C 57 % 3.38 C
1986 05-04-2020 21:25:00 11.4 C 57 % 3.2 C
1987 05-04-2020 21:30:00 11.3 C 58 % 3.35 C
1988 05-04-2020 21:35:00 11.2 C 58 % 3.25 C
1989 05-04-2020 21:40:00 11.1 C 58 % 3.16 C
1990 05-04-2020 21:45:00 10.9 C 59 % 3.21 C
1991 05-04-2020 21:50:00 10.8 C 59 % 3.12 C
1992 05-04-2020 21:55:00 10.6 C 60 % 3.17 C
1993 05-04-2020 22:00:00 10.4 C 60 % 2.98 C
1994 05-04-2020 22:05:00 10.3 C 61 % 3.12 C
1995 05-04-2020 22:10:00 10.1 C 62 % 3.16 C
1996 05-04-2020 22:15:00 9.9 C 62 % 2.97 C
1997 05-04-2020 22:20:00 9.7 C 62 % 2.78 C
1998 05-04-2020 22:25:00 9.6 C 63 % 2.91 C
1999 05-04-2020 22:30:00 9.5 C 63 % 2.82 C
2000 05-04-2020 22:35:00 9.4 C 64 % 2.95 C
Sensor: Nr:Datum:Temp:Feuchte:Taupunkt:
Aussen-T/F 2001 05-04-2020 22:40:00 9.2 C 64 % 2.76 C
2002 05-04-2020 22:45:00 9.1 C 64 % 2.66 C
2003 05-04-2020 22:50:00 8.9 C 65 % 2.69 C
2004 05-04-2020 22:55:00 8.9 C 66 % 2.9 C
2005 05-04-2020 23:00:00 8.8 C 67 % 3.02 C
2006 05-04-2020 23:05:00 8.6 C 68 % 3.04 C
2007 05-04-2020 23:10:00 8.4 C 68 % 2.85 C
2008 05-04-2020 23:15:00 8.2 C 69 % 2.86 C
2009 05-04-2020 23:20:00 8.1 C 69 % 2.77 C
2010 05-04-2020 23:25:00 8 C 69 % 2.67 C
2011 05-04-2020 23:30:00 7.9 C 69 % 2.57 C
2012 05-04-2020 23:35:00 7.8 C 69 % 2.48 C
2013 05-04-2020 23:40:00 7.7 C 69 % 2.38 C
2014 05-04-2020 23:45:00 7.7 C 70 % 2.58 C
2015 05-04-2020 23:50:00 7.6 C 70 % 2.49 C
2016 05-04-2020 23:55:00 7.4 C 70 % 2.3 C
2017 06-04-2020 00:00:00 7.3 C 71 % 2.4 C
2018 06-04-2020 00:05:00 7.2 C 71 % 2.3 C
2019 06-04-2020 00:10:00 7.1 C 72 % 2.4 C
2020 06-04-2020 00:15:00 7.1 C 73 % 2.6 C
2021 06-04-2020 00:20:00 7.1 C 73 % 2.6 C
2022 06-04-2020 00:25:00 7 C 73 % 2.5 C
2023 06-04-2020 00:30:00 6.9 C 72 % 2.21 C
2024 06-04-2020 00:35:00 6.9 C 73 % 2.4 C
2025 06-04-2020 00:40:00 6.7 C 73 % 2.21 C
Sensor: Nr:Datum:Temp:Feuchte:Taupunkt:
Aussen-T/F 2026 06-04-2020 00:45:00 6.6 C 73 % 2.12 C
2027 06-04-2020 00:50:00 6.5 C 75 % 2.4 C
2028 06-04-2020 00:55:00 6.4 C 75 % 2.3 C
2029 06-04-2020 01:00:00 6.3 C 76 % 2.39 C
2030 06-04-2020 01:05:00 6.2 C 76 % 2.29 C
2031 06-04-2020 01:10:00 6.2 C 77 % 2.48 C
2032 06-04-2020 01:15:00 6.1 C 76 % 2.2 C
2033 06-04-2020 01:20:00 6 C 77 % 2.28 C
2034 06-04-2020 01:25:00 5.9 C 77 % 2.19 C
2035 06-04-2020 01:30:00 5.8 C 77 % 2.09 C
2036 06-04-2020 01:35:00 5.7 C 78 % 2.17 C
2037 06-04-2020 01:40:00 5.6 C 78 % 2.07 C
2038 06-04-2020 01:45:00 5.5 C 79 % 2.16 C
2039 06-04-2020 01:50:00 5.4 C 79 % 2.06 C
2040 06-04-2020 01:55:00 5.4 C 79 % 2.06 C
2041 06-04-2020 02:00:00 5.4 C 80 % 2.23 C
2042 06-04-2020 02:05:00 5.3 C 79 % 1.96 C
2043 06-04-2020 02:10:00 5.1 C 80 % 1.94 C
2044 06-04-2020 02:15:00 5 C 81 % 2.02 C
2045 06-04-2020 02:20:00 5 C 81 % 2.02 C
2046 06-04-2020 02:25:00 4.9 C 80 % 1.75 C
2047 06-04-2020 02:30:00 4.9 C 81 % 1.92 C
2048 06-04-2020 02:35:00 4.8 C 81 % 1.82 C
2049 06-04-2020 02:40:00 4.8 C 81 % 1.82 C
2050 06-04-2020 02:45:00 4.8 C 81 % 1.82 C
Sensor: Nr:Datum:Temp:Feuchte:Taupunkt:
Aussen-T/F 2051 06-04-2020 02:50:00 4.7 C 81 % 1.73 C
2052 06-04-2020 02:55:00 4.6 C 81 % 1.63 C
2053 06-04-2020 03:00:00 4.4 C 82 % 1.6 C
2054 06-04-2020 03:05:00 4.4 C 82 % 1.6 C
2055 06-04-2020 03:10:00 4.3 C 82 % 1.51 C
2056 06-04-2020 03:15:00 4.3 C 82 % 1.51 C
2057 06-04-2020 03:20:00 4.2 C 83 % 1.58 C
2058 06-04-2020 03:25:00 4.2 C 83 % 1.58 C
2059 06-04-2020 03:30:00 4.2 C 83 % 1.58 C
2060 06-04-2020 03:35:00 4.1 C 83 % 1.48 C
2061 06-04-2020 03:40:00 4.1 C 83 % 1.48 C
2062 06-04-2020 03:45:00 4 C 83 % 1.38 C
2063 06-04-2020 03:50:00 3.9 C 83 % 1.28 C
2064 06-04-2020 03:55:00 3.9 C 84 % 1.45 C
2065 06-04-2020 04:00:00 3.8 C 84 % 1.35 C
2066 06-04-2020 04:05:00 3.8 C 84 % 1.35 C
2067 06-04-2020 04:10:00 3.8 C 84 % 1.35 C
2068 06-04-2020 04:15:00 3.8 C 84 % 1.35 C
2069 06-04-2020 04:20:00 3.8 C 84 % 1.35 C
2070 06-04-2020 04:25:00 3.8 C 84 % 1.35 C
2071 06-04-2020 04:30:00 3.7 C 84 % 1.25 C
2072 06-04-2020 04:35:00 3.6 C 84 % 1.16 C
2073 06-04-2020 04:40:00 3.5 C 85 % 1.22 C
2074 06-04-2020 04:45:00 3.4 C 85 % 1.12 C
2075 06-04-2020 04:50:00 3.3 C 85 % 1.03 C
Sensor: Nr:Datum:Temp:Feuchte:Taupunkt:
Aussen-T/F 2076 06-04-2020 04:55:00 3.2 C 86 % 1.09 C
2077 06-04-2020 05:00:00 3.2 C 86 % 1.09 C
2078 06-04-2020 05:05:00 3.2 C 86 % 1.09 C
2079 06-04-2020 05:10:00 3.2 C 86 % 1.09 C
2080 06-04-2020 05:15:00 3.2 C 86 % 1.09 C
2081 06-04-2020 05:20:00 3.1 C 86 % 0.99 C
2082 06-04-2020 05:25:00 3 C 86 % 0.89 C
2083 06-04-2020 05:30:00 2.9 C 86 % 0.8 C
2084 06-04-2020 05:35:00 2.9 C 87 % 0.96 C
2085 06-04-2020 05:40:00 2.9 C 87 % 0.96 C
2086 06-04-2020 05:45:00 2.8 C 87 % 0.86 C
2087 06-04-2020 05:50:00 2.8 C 87 % 0.86 C
2088 06-04-2020 05:55:00 2.7 C 87 % 0.76 C
2089 06-04-2020 06:00:00 2.6 C 87 % 0.66 C
2090 06-04-2020 06:05:00 2.6 C 88 % 0.82 C
2091 06-04-2020 06:10:00 2.4 C 88 % 0.62 C
2092 06-04-2020 06:15:00 2.4 C 88 % 0.62 C
2093 06-04-2020 06:20:00 2.3 C 88 % 0.52 C
2094 06-04-2020 06:25:00 2.2 C 88 % 0.42 C
2095 06-04-2020 06:30:00 2.2 C 89 % 0.58 C
2096 06-04-2020 06:35:00 2.1 C 89 % 0.48 C
2097 06-04-2020 06:40:00 2.1 C 89 % 0.48 C
2098 06-04-2020 06:45:00 2.1 C 89 % 0.48 C
2099 06-04-2020 06:50:00 2.1 C 89 % 0.48 C
2100 06-04-2020 06:55:00 2.1 C 89 % 0.48 C
Sensor: Nr:Datum:Temp:Feuchte:Taupunkt:
Aussen-T/F 2101 06-04-2020 07:00:00 2.1 C 90 % 0.64 C
2102 06-04-2020 07:05:00 2.2 C 90 % 0.73 C
2103 06-04-2020 07:10:00 2.2 C 90 % 0.73 C
2104 06-04-2020 07:15:00 2.3 C 90 % 0.83 C
2105 06-04-2020 07:20:00 2.4 C 91 % 1.08 C
2106 06-04-2020 07:25:00 2.4 C 90 % 0.93 C
2107 06-04-2020 07:30:00 2.4 C 90 % 0.93 C
2108 06-04-2020 07:35:00 2.4 C 90 % 0.93 C
2109 06-04-2020 07:40:00 2.4 C 90 % 0.93 C
2110 06-04-2020 07:45:00 2.4 C 90 % 0.93 C
2111 06-04-2020 07:50:00 2.6 C 91 % 1.28 C
2112 06-04-2020 07:55:00 2.7 C 90 % 1.23 C
2113 06-04-2020 08:00:00 2.6 C 90 % 1.13 C
2114 06-04-2020 08:05:00 2.7 C 90 % 1.23 C
2115 06-04-2020 08:10:00 2.7 C 91 % 1.38 C
2116 06-04-2020 08:15:00 2.8 C 91 % 1.48 C
2117 06-04-2020 08:20:00 2.9 C 91 % 1.58 C
2118 06-04-2020 08:25:00 3.1 C 91 % 1.78 C
2119 06-04-2020 08:30:00 3.4 C 90 % 1.92 C
2120 06-04-2020 08:35:00 3.6 C 90 % 2.12 C
2121 06-04-2020 08:40:00 3.7 C 89 % 2.06 C
2122 06-04-2020 08:45:00 3.8 C 89 % 2.16 C
2123 06-04-2020 08:50:00 3.9 C 89 % 2.26 C
2124 06-04-2020 08:55:00 3.9 C 88 % 2.1 C
2125 06-04-2020 09:00:00 3.9 C 88 % 2.1 C
Sensor: Nr:Datum:Temp:Feuchte:Taupunkt:
Aussen-T/F 2126 06-04-2020 09:05:00 4 C 88 % 2.2 C
2127 06-04-2020 09:10:00 4.1 C 88 % 2.3 C
2128 06-04-2020 09:15:00 4.2 C 88 % 2.39 C
2129 06-04-2020 09:20:00 4.2 C 88 % 2.39 C
2130 06-04-2020 09:25:00 4.3 C 88 % 2.49 C
2131 06-04-2020 09:30:00 4.4 C 88 % 2.59 C
2132 06-04-2020 09:35:00 4.6 C 88 % 2.79 C
2133 06-04-2020 09:40:00 4.8 C 88 % 2.99 C
2134 06-04-2020 09:45:00 5 C 88 % 3.18 C
2135 06-04-2020 09:50:00 5.2 C 88 % 3.38 C
2136 06-04-2020 09:55:00 5.3 C 88 % 3.48 C
2137 06-04-2020 10:00:00 5.6 C 87 % 3.61 C
2138 06-04-2020 10:05:00 5.9 C 86 % 3.74 C
2139 06-04-2020 10:10:00 6.2 C 85 % 3.87 C
2140 06-04-2020 10:15:00 6.4 C 85 % 4.07 C
2141 06-04-2020 10:20:00 6.7 C 84 % 4.19 C
2142 06-04-2020 10:25:00 7.1 C 83 % 4.41 C
2143 06-04-2020 10:30:00 7.4 C 82 % 4.53 C
2144 06-04-2020 10:35:00 8 C 80 % 4.77 C
2145 06-04-2020 10:40:00 8.4 C 78 % 4.79 C
2146 06-04-2020 10:45:00 8.8 C 77 % 5 C
2147 06-04-2020 10:50:00 9.4 C 76 % 5.39 C
2148 06-04-2020 10:55:00 9.9 C 73 % 5.29 C
2149 06-04-2020 11:00:00 10.5 C 72 % 5.67 C
2150 06-04-2020 11:05:00 11.2 C 68 % 5.52 C
Sensor: Nr:Datum:Temp:Feuchte:Taupunkt:
Aussen-T/F 2151 06-04-2020 11:10:00 11.7 C 66 % 5.57 C
2152 06-04-2020 11:15:00 12.3 C 67 % 6.36 C
2153 06-04-2020 11:20:00 12.7 C 62 % 5.62 C
2154 06-04-2020 11:25:00 13.3 C 56 % 4.72 C
2155 06-04-2020 11:30:00 14.2 C 54 % 5.04 C
2156 06-04-2020 11:35:00 15.3 C 49 % 4.66 C
2157 06-04-2020 11:40:00 16.1 C 45 % 4.18 C
2158 06-04-2020 11:45:00 16.7 C 42 % 3.74 C
2159 06-04-2020 11:50:00 17.1 C 43 % 4.43 C
2160 06-04-2020 11:55:00 17.3 C 41 % 3.94 C
2161 06-04-2020 12:00:00 17.6 C 40 % 3.86 C
2162 06-04-2020 12:05:00 17.9 C 38 % 3.4 C
2163 06-04-2020 12:10:00 18.1 C 38 % 3.57 C
2164 06-04-2020 12:15:00 18.3 C 37 % 3.38 C
2165 06-04-2020 12:20:00 18.6 C 38 % 4.02 C
2166 06-04-2020 12:25:00 18.7 C 36 % 3.34 C
2167 06-04-2020 12:30:00 18.9 C 35 % 3.12 C
2168 06-04-2020 12:35:00 19.1 C 35 % 3.3 C
2169 06-04-2020 12:40:00 19.2 C 35 % 3.38 C
2170 06-04-2020 12:45:00 19.3 C 35 % 3.47 C
2171 06-04-2020 12:50:00 19.4 C 35 % 3.56 C
2172 06-04-2020 12:55:00 19.4 C 36 % 3.96 C
2173 06-04-2020 13:00:00 19.6 C 34 % 3.33 C
2174 06-04-2020 13:05:00 19.7 C 35 % 3.82 C
2175 06-04-2020 13:10:00 19.8 C 35 % 3.91 C
Sensor: Nr:Datum:Temp:Feuchte:Taupunkt:
Aussen-T/F 2176 06-04-2020 13:15:00 19.9 C 34 % 3.59 C
2177 06-04-2020 13:20:00 20.1 C 34 % 3.77 C
2178 06-04-2020 13:25:00 20.2 C 34 % 3.85 C
2179 06-04-2020 13:30:00 20.2 C 35 % 4.26 C
2180 06-04-2020 13:35:00 20.3 C 35 % 4.35 C
2181 06-04-2020 13:40:00 20.4 C 36 % 4.84 C
2182 06-04-2020 13:45:00 20.5 C 36 % 4.93 C
2183 06-04-2020 13:50:00 20.7 C 34 % 4.29 C
2184 06-04-2020 13:55:00 20.8 C 34 % 4.38 C
2185 06-04-2020 14:00:00 21 C 34 % 4.55 C
2186 06-04-2020 14:05:00 21.2 C 34 % 4.73 C
2187 06-04-2020 14:10:00 21.2 C 33 % 4.3 C
2188 06-04-2020 14:15:00 21.3 C 35 % 5.23 C
2189 06-04-2020 14:20:00 21.5 C 32 % 4.13 C
2190 06-04-2020 14:25:00 21.7 C 32 % 4.3 C
2191 06-04-2020 14:30:00 21.9 C 33 % 4.92 C
2192 06-04-2020 14:35:00 22.2 C 32 % 4.74 C
2193 06-04-2020 14:40:00 22.4 C 30 % 3.99 C
2194 06-04-2020 14:45:00 22.6 C 30 % 4.16 C
2195 06-04-2020 14:50:00 22.6 C 28 % 3.19 C
2196 06-04-2020 14:55:00 22.7 C 25 % 1.68 C
2197 06-04-2020 15:00:00 22.8 C 25 % 1.77 C
2198 06-04-2020 15:05:00 22.9 C 23 % 0.69 C
2199 06-04-2020 15:10:00 22.8 C 24 % 1.2 C
2200 06-04-2020 15:15:00 22.7 C 25 % 1.68 C
Sensor: Nr:Datum:Temp:Feuchte:Taupunkt:
Aussen-T/F 2201 06-04-2020 15:20:00 22.6 C 26 % 2.14 C
2202 06-04-2020 15:25:00 22.6 C 26 % 2.14 C
2203 06-04-2020 15:30:00 22.6 C 24 % 1.03 C
2204 06-04-2020 15:35:00 22.6 C 25 % 1.6 C
2205 06-04-2020 15:40:00 22.6 C 25 % 1.6 C
2206 06-04-2020 15:45:00 22.6 C 25 % 1.6 C
2207 06-04-2020 15:50:00 22.6 C 25 % 1.6 C
2208 06-04-2020 15:55:00 22.8 C 26 % 2.31 C
2209 06-04-2020 16:00:00 23 C 26 % 2.48 C
2210 06-04-2020 16:05:00 23.2 C 26 % 2.65 C
2211 06-04-2020 16:10:00 23.4 C 25 % 2.27 C
2212 06-04-2020 16:15:00 23.6 C 25 % 2.44 C
2213 06-04-2020 16:20:00 23.8 C 24 % 2.04 C
2214 06-04-2020 16:25:00 23.8 C 23 % 1.44 C
2215 06-04-2020 16:30:00 23.9 C 26 % 3.25 C
2216 06-04-2020 16:35:00 23.9 C 26 % 3.25 C
2217 06-04-2020 16:40:00 24.1 C 27 % 3.95 C
2218 06-04-2020 16:45:00 24.3 C 26 % 3.59 C
2219 06-04-2020 16:50:00 24.3 C 26 % 3.59 C
2220 06-04-2020 16:55:00 24.1 C 28 % 4.47 C
2221 06-04-2020 17:00:00 23.8 C 27 % 3.7 C
2222 06-04-2020 17:05:00 23.8 C 28 % 4.21 C
2223 06-04-2020 17:10:00 23.6 C 27 % 3.53 C
2224 06-04-2020 17:15:00 23.7 C 28 % 4.13 C
2225 06-04-2020 17:20:00 23.8 C 28 % 4.21 C
Sensor: Nr:Datum:Temp:Feuchte:Taupunkt:
Aussen-T/F 2226 06-04-2020 17:25:00 23.9 C 26 % 3.25 C
2227 06-04-2020 17:30:00 23.9 C 27 % 3.78 C
2228 06-04-2020 17:35:00 23.8 C 26 % 3.16 C
2229 06-04-2020 17:40:00 23.7 C 27 % 3.61 C
2230 06-04-2020 17:45:00 23.9 C 28 % 4.3 C
2231 06-04-2020 17:50:00 24.1 C 26 % 3.42 C
2232 06-04-2020 17:55:00 23.9 C 26 % 3.25 C
2233 06-04-2020 18:00:00 23.8 C 27 % 3.7 C
2234 06-04-2020 18:05:00 23.7 C 26 % 3.08 C
2235 06-04-2020 18:10:00 23.7 C 26 % 3.08 C
2236 06-04-2020 18:15:00 23.4 C 26 % 2.82 C
2237 06-04-2020 18:20:00 23.5 C 27 % 3.44 C
2238 06-04-2020 18:25:00 23.6 C 26 % 2.99 C
2239 06-04-2020 18:30:00 23.5 C 26 % 2.91 C
2240 06-04-2020 18:35:00 23.4 C 27 % 3.35 C
2241 06-04-2020 18:40:00 23.3 C 26 % 2.74 C
2242 06-04-2020 18:45:00 23.3 C 26 % 2.74 C
2243 06-04-2020 18:50:00 23.2 C 27 % 3.18 C
2244 06-04-2020 18:55:00 23.1 C 27 % 3.1 C
2245 06-04-2020 19:00:00 22.9 C 27 % 2.93 C
2246 06-04-2020 19:05:00 22.8 C 28 % 3.36 C
2247 06-04-2020 19:10:00 22.7 C 29 % 3.77 C
2248 06-04-2020 19:15:00 22.6 C 31 % 4.63 C
2249 06-04-2020 19:20:00 22.3 C 31 % 4.37 C
2250 06-04-2020 19:25:00 22 C 31 % 4.11 C
Sensor: Nr:Datum:Temp:Feuchte:Taupunkt:
Aussen-T/F 2251 06-04-2020 19:30:00 21.7 C 31 % 3.85 C
2252 06-04-2020 19:35:00 21.3 C 34 % 4.82 C
2253 06-04-2020 19:40:00 20.8 C 36 % 5.2 C
2254 06-04-2020 19:45:00 20.4 C 35 % 4.44 C
2255 06-04-2020 19:50:00 20 C 37 % 4.88 C
2256 06-04-2020 19:55:00 19.5 C 38 % 4.82 C
2257 06-04-2020 20:00:00 18.9 C 40 % 5.02 C
2258 06-04-2020 20:05:00 18.2 C 41 % 4.75 C
2259 06-04-2020 20:10:00 17.6 C 43 % 4.89 C
2260 06-04-2020 20:15:00 17.1 C 45 % 5.08 C
2261 06-04-2020 20:20:00 16.6 C 45 % 4.63 C
2262 06-04-2020 20:25:00 16.2 C 46 % 4.58 C
2263 06-04-2020 20:30:00 15.8 C 48 % 4.82 C
2264 06-04-2020 20:35:00 15.5 C 48 % 4.55 C
2265 06-04-2020 20:40:00 15.3 C 50 % 4.95 C
2266 06-04-2020 20:45:00 15 C 50 % 4.67 C
2267 06-04-2020 20:50:00 14.7 C 52 % 4.96 C
2268 06-04-2020 20:55:00 14.5 C 53 % 5.05 C
2269 06-04-2020 21:00:00 14.2 C 53 % 4.77 C
2270 06-04-2020 21:05:00 14 C 54 % 4.85 C
2271 06-04-2020 21:10:00 13.9 C 54 % 4.76 C
2272 06-04-2020 21:15:00 13.7 C 55 % 4.83 C
2273 06-04-2020 21:20:00 13.6 C 56 % 5 C
2274 06-04-2020 21:25:00 13.3 C 56 % 4.72 C
2275 06-04-2020 21:30:00 13.2 C 57 % 4.88 C
Sensor: Nr:Datum:Temp:Feuchte:Taupunkt:
Aussen-T/F 2276 06-04-2020 21:35:00 12.9 C 57 % 4.6 C
2277 06-04-2020 21:40:00 12.8 C 58 % 4.75 C
2278 06-04-2020 21:45:00 12.6 C 57 % 4.32 C
2279 06-04-2020 21:50:00 12.3 C 58 % 4.28 C
2280 06-04-2020 21:55:00 12.1 C 59 % 4.34 C
2281 06-04-2020 22:00:00 12 C 60 % 4.49 C
2282 06-04-2020 22:05:00 11.9 C 60 % 4.39 C
2283 06-04-2020 22:10:00 11.8 C 62 % 4.77 C
2284 06-04-2020 22:15:00 11.6 C 62 % 4.58 C
2285 06-04-2020 22:20:00 11.3 C 62 % 4.29 C
2286 06-04-2020 22:25:00 11 C 63 % 4.24 C
2287 06-04-2020 22:30:00 10.8 C 64 % 4.27 C
2288 06-04-2020 22:35:00 10.7 C 64 % 4.18 C
2289 06-04-2020 22:40:00 10.6 C 65 % 4.3 C
2290 06-04-2020 22:45:00 10.4 C 64 % 3.89 C
2291 06-04-2020 22:50:00 10.4 C 64 % 3.89 C
2292 06-04-2020 22:55:00 10.3 C 65 % 4.02 C
2293 06-04-2020 23:00:00 10.2 C 65 % 3.92 C
2294 06-04-2020 23:05:00 10.2 C 65 % 3.92 C
2295 06-04-2020 23:10:00 10.1 C 65 % 3.83 C
2296 06-04-2020 23:15:00 10.1 C 64 % 3.61 C
2297 06-04-2020 23:20:00 10.1 C 65 % 3.83 C
2298 06-04-2020 23:25:00 10.1 C 65 % 3.83 C
2299 06-04-2020 23:30:00 10.1 C 65 % 3.83 C
2300 06-04-2020 23:35:00 9.9 C 65 % 3.64 C
Sensor: Nr:Datum:Temp:Feuchte:Taupunkt:
Aussen-T/F 2301 06-04-2020 23:40:00 9.8 C 65 % 3.54 C
2302 06-04-2020 23:45:00 9.8 C 66 % 3.76 C
2303 06-04-2020 23:50:00 9.8 C 67 % 3.97 C
2304 06-04-2020 23:55:00 9.9 C 68 % 4.28 C
2305 07-04-2020 00:00:00 10 C 68 % 4.38 C
2306 07-04-2020 00:05:00 10.1 C 68 % 4.47 C
2307 07-04-2020 00:10:00 10.1 C 69 % 4.68 C
2308 07-04-2020 00:15:00 9.8 C 69 % 4.39 C
2309 07-04-2020 00:20:00 9.6 C 70 % 4.41 C
2310 07-04-2020 00:25:00 9.4 C 70 % 4.21 C
2311 07-04-2020 00:30:00 9.3 C 70 % 4.12 C
2312 07-04-2020 00:35:00 9.3 C 70 % 4.12 C
2313 07-04-2020 00:40:00 9.3 C 70 % 4.12 C
2314 07-04-2020 00:45:00 9.3 C 70 % 4.12 C
2315 07-04-2020 00:50:00 9.3 C 70 % 4.12 C
2316 07-04-2020 00:55:00 9.3 C 71 % 4.32 C
2317 07-04-2020 01:00:00 9.2 C 71 % 4.22 C
2318 07-04-2020 01:05:00 9.2 C 72 % 4.42 C
2319 07-04-2020 01:10:00 9.2 C 72 % 4.42 C
2320 07-04-2020 01:15:00 9.3 C 72 % 4.52 C
2321 07-04-2020 01:20:00 9.4 C 71 % 4.42 C
2322 07-04-2020 01:25:00 9.6 C 72 % 4.81 C
2323 07-04-2020 01:30:00 9.7 C 71 % 4.7 C
2324 07-04-2020 01:35:00 9.8 C 70 % 4.6 C
2325 07-04-2020 01:40:00 10 C 73 % 5.39 C
Sensor: Nr:Datum:Temp:Feuchte:Taupunkt:
Aussen-T/F 2326 07-04-2020 01:45:00 10.2 C 71 % 5.18 C
2327 07-04-2020 01:50:00 10.3 C 71 % 5.28 C
2328 07-04-2020 01:55:00 10.3 C 70 % 5.08 C
2329 07-04-2020 02:00:00 10.3 C 70 % 5.08 C
2330 07-04-2020 02:05:00 10.1 C 71 % 5.09 C
2331 07-04-2020 02:10:00 9.9 C 71 % 4.9 C
2332 07-04-2020 02:15:00 9.8 C 71 % 4.8 C
2333 07-04-2020 02:20:00 9.6 C 72 % 4.81 C
2334 07-04-2020 02:25:00 9.3 C 73 % 4.72 C
2335 07-04-2020 02:30:00 9.1 C 74 % 4.72 C
2336 07-04-2020 02:35:00 8.9 C 74 % 4.53 C
2337 07-04-2020 02:40:00 8.8 C 75 % 4.62 C
2338 07-04-2020 02:45:00 8.6 C 75 % 4.43 C
2339 07-04-2020 02:50:00 8.3 C 76 % 4.33 C
2340 07-04-2020 02:55:00 8.2 C 77 % 4.42 C
2341 07-04-2020 03:00:00 8.2 C 78 % 4.6 C
2342 07-04-2020 03:05:00 8.1 C 78 % 4.5 C
2343 07-04-2020 03:10:00 8.1 C 79 % 4.68 C
2344 07-04-2020 03:15:00 8 C 79 % 4.59 C
2345 07-04-2020 03:20:00 8.1 C 80 % 4.86 C
2346 07-04-2020 03:25:00 8.1 C 81 % 5.04 C
2347 07-04-2020 03:30:00 8.2 C 80 % 4.96 C
2348 07-04-2020 03:35:00 8.2 C 80 % 4.96 C
2349 07-04-2020 03:40:00 8.2 C 80 % 4.96 C
2350 07-04-2020 03:45:00 8.2 C 80 % 4.96 C
Sensor: Nr:Datum:Temp:Feuchte:Taupunkt:
Aussen-T/F 2351 07-04-2020 03:50:00 8.2 C 81 % 5.14 C
2352 07-04-2020 03:55:00 8.2 C 81 % 5.14 C
2353 07-04-2020 04:00:00 8.2 C 81 % 5.14 C
2354 07-04-2020 04:05:00 8.3 C 81 % 5.24 C
2355 07-04-2020 04:10:00 8.3 C 81 % 5.24 C
2356 07-04-2020 04:15:00 8.2 C 81 % 5.14 C
2357 07-04-2020 04:20:00 8.2 C 80 % 4.96 C
2358 07-04-2020 04:25:00 8.2 C 80 % 4.96 C
2359 07-04-2020 04:30:00 8.1 C 80 % 4.86 C
2360 07-04-2020 04:35:00 7.9 C 80 % 4.67 C
2361 07-04-2020 04:40:00 7.7 C 81 % 4.65 C
2362 07-04-2020 04:45:00 7.6 C 82 % 4.73 C
2363 07-04-2020 04:50:00 7.6 C 82 % 4.73 C
2364 07-04-2020 04:55:00 7.5 C 82 % 4.63 C
2365 07-04-2020 05:00:00 7.3 C 82 % 4.44 C
2366 07-04-2020 05:05:00 7.2 C 83 % 4.51 C
2367 07-04-2020 05:10:00 7.1 C 83 % 4.41 C
2368 07-04-2020 05:15:00 6.9 C 83 % 4.22 C
2369 07-04-2020 05:20:00 6.8 C 84 % 4.29 C
2370 07-04-2020 05:25:00 6.7 C 84 % 4.19 C
2371 07-04-2020 05:30:00 6.7 C 85 % 4.36 C
2372 07-04-2020 05:35:00 6.6 C 85 % 4.26 C
2373 07-04-2020 05:40:00 6.4 C 85 % 4.07 C
2374 07-04-2020 05:45:00 6.4 C 86 % 4.23 C
2375 07-04-2020 05:50:00 6.3 C 86 % 4.14 C
Sensor: Nr:Datum:Temp:Feuchte:Taupunkt:
Aussen-T/F 2376 07-04-2020 05:55:00 6.3 C 87 % 4.3 C
2377 07-04-2020 06:00:00 6.3 C 87 % 4.3 C
2378 07-04-2020 06:05:00 6.3 C 87 % 4.3 C
2379 07-04-2020 06:10:00 6.2 C 86 % 4.04 C
2380 07-04-2020 06:15:00 6.1 C 87 % 4.1 C
2381 07-04-2020 06:20:00 6.1 C 87 % 4.1 C
2382 07-04-2020 06:25:00 6.1 C 87 % 4.1 C
2383 07-04-2020 06:30:00 5.9 C 87 % 3.91 C
2384 07-04-2020 06:35:00 5.8 C 87 % 3.81 C
2385 07-04-2020 06:40:00 5.8 C 88 % 3.97 C
2386 07-04-2020 06:45:00 5.8 C 88 % 3.97 C
2387 07-04-2020 06:50:00 5.7 C 88 % 3.87 C
2388 07-04-2020 06:55:00 5.6 C 88 % 3.77 C
2389 07-04-2020 07:00:00 5.5 C 88 % 3.67 C
2390 07-04-2020 07:05:00 5.4 C 89 % 3.74 C
2391 07-04-2020 07:10:00 5.4 C 89 % 3.74 C
2392 07-04-2020 07:15:00 5.4 C 90 % 3.89 C
2393 07-04-2020 07:20:00 5.5 C 90 % 3.99 C
2394 07-04-2020 07:25:00 5.6 C 90 % 4.09 C
2395 07-04-2020 07:30:00 5.6 C 91 % 4.25 C
2396 07-04-2020 07:35:00 5.7 C 90 % 4.19 C
2397 07-04-2020 07:40:00 5.8 C 91 % 4.45 C
2398 07-04-2020 07:45:00 5.9 C 91 % 4.55 C
2399 07-04-2020 07:50:00 6 C 91 % 4.65 C
2400 07-04-2020 07:55:00 6.1 C 90 % 4.59 C
Sensor: Nr:Datum:Temp:Feuchte:Taupunkt:
Aussen-T/F 2401 07-04-2020 08:00:00 6.2 C 90 % 4.69 C
2402 07-04-2020 08:05:00 6.2 C 90 % 4.69 C
2403 07-04-2020 08:10:00 6.3 C 90 % 4.78 C
2404 07-04-2020 08:15:00 6.3 C 90 % 4.78 C
2405 07-04-2020 08:20:00 6.4 C 90 % 4.88 C
2406 07-04-2020 08:25:00 6.5 C 89 % 4.82 C
2407 07-04-2020 08:30:00 6.6 C 89 % 4.92 C
2408 07-04-2020 08:35:00 6.6 C 89 % 4.92 C
2409 07-04-2020 08:40:00 6.6 C 89 % 4.92 C
2410 07-04-2020 08:45:00 6.7 C 90 % 5.18 C
2411 07-04-2020 08:50:00 6.8 C 90 % 5.28 C
2412 07-04-2020 08:55:00 6.9 C 90 % 5.38 C
2413 07-04-2020 09:00:00 7.1 C 90 % 5.57 C
2414 07-04-2020 09:05:00 7.2 C 90 % 5.67 C
2415 07-04-2020 09:10:00 7.3 C 89 % 5.61 C
2416 07-04-2020 09:15:00 7.4 C 89 % 5.71 C
2417 07-04-2020 09:20:00 7.5 C 90 % 5.97 C
2418 07-04-2020 09:25:00 7.6 C 90 % 6.07 C
2419 07-04-2020 09:30:00 7.8 C 90 % 6.27 C
2420 07-04-2020 09:35:00 7.9 C 90 % 6.36 C
2421 07-04-2020 09:40:00 8.2 C 90 % 6.66 C
2422 07-04-2020 09:45:00 8.4 C 90 % 6.86 C
2423 07-04-2020 09:50:00 8.7 C 88 % 6.83 C
2424 07-04-2020 09:55:00 8.9 C 88 % 7.02 C
2425 07-04-2020 10:00:00 9.2 C 87 % 7.15 C
Sensor: Nr:Datum:Temp:Feuchte:Taupunkt:
Aussen-T/F 2426 07-04-2020 10:05:00 9.4 C 87 % 7.35 C
2427 07-04-2020 10:10:00 9.6 C 88 % 7.71 C
2428 07-04-2020 10:15:00 9.9 C 88 % 8.01 C
2429 07-04-2020 10:20:00 10.2 C 87 % 8.14 C
2430 07-04-2020 10:25:00 10.5 C 86 % 8.26 C
2431 07-04-2020 10:30:00 10.8 C 85 % 8.38 C
2432 07-04-2020 10:35:00 11.2 C 85 % 8.77 C
2433 07-04-2020 10:40:00 11.4 C 84 % 8.8 C
2434 07-04-2020 10:45:00 11.8 C 83 % 9.01 C
2435 07-04-2020 10:50:00 12.2 C 82 % 9.22 C
2436 07-04-2020 10:55:00 12.6 C 81 % 9.43 C
2437 07-04-2020 11:00:00 13 C 79 % 9.45 C
2438 07-04-2020 11:05:00 13.4 C 77 % 9.45 C
2439 07-04-2020 11:10:00 13.8 C 76 % 9.65 C
2440 07-04-2020 11:15:00 14.2 C 74 % 9.64 C
2441 07-04-2020 11:20:00 14.6 C 73 % 9.82 C
2442 07-04-2020 11:25:00 14.8 C 73 % 10.01 C
2443 07-04-2020 11:30:00 15.1 C 71 % 9.89 C
2444 07-04-2020 11:35:00 15.4 C 70 % 9.96 C
2445 07-04-2020 11:40:00 15.7 C 68 % 9.82 C
2446 07-04-2020 11:45:00 16.1 C 67 % 9.98 C
2447 07-04-2020 11:50:00 16.2 C 67 % 10.07 C
2448 07-04-2020 11:55:00 16.4 C 66 % 10.04 C
2449 07-04-2020 12:00:00 16.6 C 65 % 10 C
2450 07-04-2020 12:05:00 16.8 C 64 % 9.96 C
Sensor: Nr:Datum:Temp:Feuchte:Taupunkt:
Aussen-T/F 2451 07-04-2020 12:10:00 17.1 C 63 % 10.01 C
2452 07-04-2020 12:15:00 17.2 C 62 % 9.86 C
2453 07-04-2020 12:20:00 17.4 C 63 % 10.29 C
2454 07-04-2020 12:25:00 17.6 C 61 % 10 C
2455 07-04-2020 12:30:00 17.8 C 61 % 10.18 C
2456 07-04-2020 12:35:00 18 C 60 % 10.13 C
2457 07-04-2020 12:40:00 18.2 C 60 % 10.31 C
2458 07-04-2020 12:45:00 18.3 C 59 % 10.16 C
2459 07-04-2020 12:50:00 18.4 C 59 % 10.25 C
2460 07-04-2020 12:55:00 18.5 C 59 % 10.34 C
2461 07-04-2020 13:00:00 18.6 C 59 % 10.44 C
2462 07-04-2020 13:05:00 18.8 C 58 % 10.37 C
2463 07-04-2020 13:10:00 18.9 C 57 % 10.2 C
2464 07-04-2020 13:15:00 19.2 C 56 % 10.22 C
2465 07-04-2020 13:20:00 19.3 C 56 % 10.31 C
2466 07-04-2020 13:25:00 19.4 C 53 % 9.58 C
2467 07-04-2020 13:30:00 19.5 C 54 % 9.95 C
2468 07-04-2020 13:35:00 19.6 C 54 % 10.05 C
2469 07-04-2020 13:40:00 19.7 C 53 % 9.86 C
2470 07-04-2020 13:45:00 19.8 C 53 % 9.95 C
2471 07-04-2020 13:50:00 19.9 C 52 % 9.76 C
2472 07-04-2020 13:55:00 20.1 C 52 % 9.94 C
2473 07-04-2020 14:00:00 20.3 C 51 % 9.84 C
2474 07-04-2020 14:05:00 20.3 C 51 % 9.84 C
2475 07-04-2020 14:10:00 20.4 C 51 % 9.93 C
Sensor: Nr:Datum:Temp:Feuchte:Taupunkt:
Aussen-T/F 2476 07-04-2020 14:15:00 20.6 C 50 % 9.82 C
2477 07-04-2020 14:20:00 20.8 C 51 % 10.3 C
2478 07-04-2020 14:25:00 20.9 C 49 % 9.79 C
2479 07-04-2020 14:30:00 21.1 C 50 % 10.28 C
2480 07-04-2020 14:35:00 21.3 C 48 % 9.85 C
2481 07-04-2020 14:40:00 21.3 C 48 % 9.85 C
2482 07-04-2020 14:45:00 21.2 C 48 % 9.76 C
2483 07-04-2020 14:50:00 21.1 C 48 % 9.67 C
2484 07-04-2020 14:55:00 21.2 C 48 % 9.76 C
2485 07-04-2020 15:00:00 21.4 C 47 % 9.63 C
2486 07-04-2020 15:05:00 21.6 C 47 % 9.81 C
2487 07-04-2020 15:10:00 21.7 C 47 % 9.9 C
2488 07-04-2020 15:15:00 21.8 C 46 % 9.67 C
2489 07-04-2020 15:20:00 21.8 C 45 % 9.35 C
2490 07-04-2020 15:25:00 21.8 C 45 % 9.35 C
2491 07-04-2020 15:30:00 21.9 C 45 % 9.44 C
2492 07-04-2020 15:35:00 21.9 C 44 % 9.1 C
2493 07-04-2020 15:40:00 22.1 C 44 % 9.29 C
2494 07-04-2020 15:45:00 22.1 C 45 % 9.62 C
2495 07-04-2020 15:50:00 22.1 C 45 % 9.62 C
2496 07-04-2020 15:55:00 22.2 C 44 % 9.38 C
2497 07-04-2020 16:00:00 22.3 C 43 % 9.13 C
2498 07-04-2020 16:05:00 22.3 C 43 % 9.13 C
2499 07-04-2020 16:10:00 22.3 C 43 % 9.13 C
2500 07-04-2020 16:15:00 22.2 C 43 % 9.04 C
Sensor: Nr:Datum:Temp:Feuchte:Taupunkt:
Aussen-T/F 2501 07-04-2020 16:20:00 22.2 C 43 % 9.04 C
2502 07-04-2020 16:25:00 22.4 C 42 % 8.87 C
2503 07-04-2020 16:30:00 22.5 C 42 % 8.96 C
2504 07-04-2020 16:35:00 22.3 C 42 % 8.78 C
2505 07-04-2020 16:40:00 22.1 C 42 % 8.6 C
2506 07-04-2020 16:45:00 22.3 C 43 % 9.13 C
2507 07-04-2020 16:50:00 22.9 C 40 % 8.59 C
2508 07-04-2020 16:55:00 23.4 C 40 % 9.04 C
2509 07-04-2020 17:00:00 23.9 C 38 % 8.73 C
2510 07-04-2020 17:05:00 24.1 C 36 % 8.11 C
2511 07-04-2020 17:10:00 23.9 C 37 % 8.33 C
2512 07-04-2020 17:15:00 23.4 C 38 % 8.28 C
2513 07-04-2020 17:20:00 23.2 C 38 % 8.11 C
2514 07-04-2020 17:25:00 22.9 C 40 % 8.59 C
2515 07-04-2020 17:30:00 22.8 C 37 % 7.36 C
2516 07-04-2020 17:35:00 22.8 C 36 % 6.96 C
2517 07-04-2020 17:40:00 23.1 C 36 % 7.23 C
2518 07-04-2020 17:45:00 23.4 C 35 % 7.08 C
2519 07-04-2020 17:50:00 23.4 C 34 % 6.66 C
2520 07-04-2020 17:55:00 23.4 C 35 % 7.08 C
2521 07-04-2020 18:00:00 23.6 C 36 % 7.67 C
2522 07-04-2020 18:05:00 23.6 C 36 % 7.67 C
2523 07-04-2020 18:10:00 23.8 C 35 % 7.43 C
2524 07-04-2020 18:15:00 23.9 C 35 % 7.52 C
2525 07-04-2020 18:20:00 23.8 C 35 % 7.43 C
Sensor: Nr:Datum:Temp:Feuchte:Taupunkt:
Aussen-T/F 2526 07-04-2020 18:25:00 23.8 C 36 % 7.84 C
2527 07-04-2020 18:30:00 23.6 C 36 % 7.67 C
2528 07-04-2020 18:35:00 23.4 C 37 % 7.89 C
2529 07-04-2020 18:40:00 23.1 C 38 % 8.02 C
2530 07-04-2020 18:45:00 23.1 C 40 % 8.77 C
2531 07-04-2020 18:50:00 23 C 38 % 7.93 C
2532 07-04-2020 18:55:00 22.9 C 37 % 7.45 C
2533 07-04-2020 19:00:00 22.7 C 37 % 7.27 C
2534 07-04-2020 19:05:00 22.7 C 38 % 7.66 C
2535 07-04-2020 19:10:00 22.6 C 40 % 8.33 C
2536 07-04-2020 19:15:00 22.4 C 43 % 9.22 C
2537 07-04-2020 19:20:00 22.1 C 45 % 9.62 C
2538 07-04-2020 19:25:00 21.6 C 45 % 9.17 C
2539 07-04-2020 19:30:00 21 C 47 % 9.27 C
2540 07-04-2020 19:35:00 20.4 C 49 % 9.34 C
2541 07-04-2020 19:40:00 19.9 C 49 % 8.88 C
2542 07-04-2020 19:45:00 19.4 C 51 % 9.01 C
2543 07-04-2020 19:50:00 19.1 C 51 % 8.73 C
2544 07-04-2020 19:55:00 18.7 C 52 % 8.65 C
2545 07-04-2020 20:00:00 18.3 C 52 % 8.28 C
2546 07-04-2020 20:05:00 17.9 C 52 % 7.91 C
2547 07-04-2020 20:10:00 17.6 C 53 % 7.92 C
2548 07-04-2020 20:15:00 17.3 C 54 % 7.91 C
2549 07-04-2020 20:20:00 17 C 55 % 7.9 C
2550 07-04-2020 20:25:00 16.8 C 56 % 7.98 C
Sensor: Nr:Datum:Temp:Feuchte:Taupunkt:
Aussen-T/F 2551 07-04-2020 20:30:00 16.6 C 57 % 8.06 C
2552 07-04-2020 20:35:00 16.3 C 57 % 7.77 C
2553 07-04-2020 20:40:00 16.2 C 59 % 8.19 C
2554 07-04-2020 20:45:00 16 C 59 % 8 C
2555 07-04-2020 20:50:00 15.8 C 60 % 8.06 C
2556 07-04-2020 20:55:00 15.7 C 60 % 7.97 C
2557 07-04-2020 21:00:00 15.6 C 60 % 7.87 C
2558 07-04-2020 21:05:00 15.4 C 61 % 7.93 C
2559 07-04-2020 21:10:00 15.3 C 62 % 8.07 C
2560 07-04-2020 21:15:00 15.2 C 63 % 8.21 C
2561 07-04-2020 21:20:00 15.1 C 64 % 8.35 C
2562 07-04-2020 21:25:00 14.9 C 64 % 8.16 C
2563 07-04-2020 21:30:00 14.8 C 65 % 8.29 C
2564 07-04-2020 21:35:00 14.7 C 65 % 8.2 C
2565 07-04-2020 21:40:00 14.7 C 66 % 8.42 C
2566 07-04-2020 21:45:00 14.7 C 66 % 8.42 C
2567 07-04-2020 21:50:00 14.6 C 66 % 8.33 C
2568 07-04-2020 21:55:00 14.5 C 67 % 8.45 C
2569 07-04-2020 22:00:00 14.4 C 67 % 8.36 C
2570 07-04-2020 22:05:00 14.3 C 68 % 8.48 C
2571 07-04-2020 22:10:00 14.1 C 68 % 8.29 C
2572 07-04-2020 22:15:00 13.8 C 69 % 8.22 C
2573 07-04-2020 22:20:00 13.7 C 70 % 8.33 C
2574 07-04-2020 22:25:00 13.4 C 70 % 8.05 C
2575 07-04-2020 22:30:00 13.3 C 71 % 8.16 C
Sensor: Nr:Datum:Temp:Feuchte:Taupunkt:
Aussen-T/F 2576 07-04-2020 22:35:00 13.2 C 72 % 8.27 C
2577 07-04-2020 22:40:00 13.2 C 72 % 8.27 C
2578 07-04-2020 22:45:00 13.2 C 72 % 8.27 C
2579 07-04-2020 22:50:00 13.2 C 72 % 8.27 C
2580 07-04-2020 22:55:00 13.1 C 72 % 8.17 C
2581 07-04-2020 23:00:00 13.1 C 72 % 8.17 C
2582 07-04-2020 23:05:00 13.1 C 73 % 8.38 C
2583 07-04-2020 23:10:00 13 C 73 % 8.28 C
2584 07-04-2020 23:15:00 13 C 74 % 8.48 C
2585 07-04-2020 23:20:00 13 C 74 % 8.48 C
2586 07-04-2020 23:25:00 13 C 74 % 8.48 C
2587 07-04-2020 23:30:00 13 C 74 % 8.48 C
2588 07-04-2020 23:35:00 12.9 C 74 % 8.38 C
2589 07-04-2020 23:40:00 12.9 C 75 % 8.58 C
2590 07-04-2020 23:45:00 12.8 C 75 % 8.48 C
2591 07-04-2020 23:50:00 12.8 C 75 % 8.48 C
2592 07-04-2020 23:55:00 12.7 C 75 % 8.39 C
2593 08-04-2020 00:00:00 12.6 C 75 % 8.29 C
2594 08-04-2020 00:05:00 12.4 C 76 % 8.29 C
2595 08-04-2020 00:10:00 12.3 C 77 % 8.39 C
2596 08-04-2020 00:15:00 12.2 C 77 % 8.29 C
2597 08-04-2020 00:20:00 12.2 C 78 % 8.48 C
2598 08-04-2020 00:25:00 12.2 C 78 % 8.48 C
2599 08-04-2020 00:30:00 12.1 C 78 % 8.38 C
2600 08-04-2020 00:35:00 12 C 79 % 8.48 C
Sensor: Nr:Datum:Temp:Feuchte:Taupunkt:
Aussen-T/F 2601 08-04-2020 00:40:00 12 C 79 % 8.48 C
2602 08-04-2020 00:45:00 11.9 C 79 % 8.38 C
2603 08-04-2020 00:50:00 11.8 C 79 % 8.28 C
2604 08-04-2020 00:55:00 11.7 C 79 % 8.18 C
2605 08-04-2020 01:00:00 11.5 C 80 % 8.17 C
2606 08-04-2020 01:05:00 11.4 C 80 % 8.08 C
2607 08-04-2020 01:10:00 11.3 C 81 % 8.16 C
2608 08-04-2020 01:15:00 11.3 C 80 % 7.98 C
2609 08-04-2020 01:20:00 11.2 C 81 % 8.06 C
2610 08-04-2020 01:25:00 11.1 C 81 % 7.97 C
2611 08-04-2020 01:30:00 10.9 C 82 % 7.95 C
2612 08-04-2020 01:35:00 10.8 C 82 % 7.85 C
2613 08-04-2020 01:40:00 10.8 C 82 % 7.85 C
2614 08-04-2020 01:45:00 10.7 C 82 % 7.76 C
2615 08-04-2020 01:50:00 10.5 C 83 % 7.74 C
2616 08-04-2020 01:55:00 10.4 C 83 % 7.64 C
2617 08-04-2020 02:00:00 10.3 C 83 % 7.54 C
2618 08-04-2020 02:05:00 10.1 C 83 % 7.35 C
2619 08-04-2020 02:10:00 10 C 84 % 7.43 C
2620 08-04-2020 02:15:00 9.8 C 84 % 7.23 C
2621 08-04-2020 02:20:00 9.6 C 85 % 7.21 C
2622 08-04-2020 02:25:00 9.5 C 85 % 7.11 C
2623 08-04-2020 02:30:00 9.3 C 85 % 6.91 C
2624 08-04-2020 02:35:00 9.2 C 86 % 6.98 C
2625 08-04-2020 02:40:00 9.1 C 86 % 6.89 C
Sensor: Nr:Datum:Temp:Feuchte:Taupunkt:
Aussen-T/F 2626 08-04-2020 02:45:00 8.9 C 86 % 6.69 C
2627 08-04-2020 02:50:00 8.8 C 87 % 6.76 C
2628 08-04-2020 02:55:00 8.7 C 87 % 6.66 C
2629 08-04-2020 03:00:00 8.6 C 87 % 6.56 C
2630 08-04-2020 03:05:00 8.3 C 87 % 6.27 C
2631 08-04-2020 03:10:00 8.2 C 88 % 6.33 C
2632 08-04-2020 03:15:00 8.1 C 88 % 6.24 C
2633 08-04-2020 03:20:00 7.9 C 88 % 6.04 C
2634 08-04-2020 03:25:00 7.9 C 89 % 6.2 C
2635 08-04-2020 03:30:00 7.9 C 90 % 6.36 C
2636 08-04-2020 03:35:00 7.9 C 90 % 6.36 C
2637 08-04-2020 03:40:00 7.8 C 90 % 6.27 C
2638 08-04-2020 03:45:00 7.7 C 90 % 6.17 C
2639 08-04-2020 03:50:00 7.6 C 90 % 6.07 C
2640 08-04-2020 03:55:00 7.5 C 90 % 5.97 C
2641 08-04-2020 04:00:00 7.4 C 90 % 5.87 C
2642 08-04-2020 04:05:00 7.4 C 91 % 6.03 C
2643 08-04-2020 04:10:00 7.4 C 91 % 6.03 C
2644 08-04-2020 04:15:00 7.3 C 91 % 5.93 C
2645 08-04-2020 04:20:00 7.3 C 91 % 5.93 C
2646 08-04-2020 04:25:00 7.2 C 92 % 5.99 C
2647 08-04-2020 04:30:00 7.3 C 92 % 6.09 C
2648 08-04-2020 04:35:00 7.2 C 91 % 5.83 C
2649 08-04-2020 04:40:00 7 C 91 % 5.63 C
2650 08-04-2020 04:45:00 6.9 C 92 % 5.69 C
Sensor: Nr:Datum:Temp:Feuchte:Taupunkt:
Aussen-T/F 2651 08-04-2020 04:50:00 6.9 C 92 % 5.69 C
2652 08-04-2020 04:55:00 6.8 C 92 % 5.59 C
2653 08-04-2020 05:00:00 6.8 C 92 % 5.59 C
2654 08-04-2020 05:05:00 6.8 C 92 % 5.59 C
2655 08-04-2020 05:10:00 6.7 C 92 % 5.49 C
2656 08-04-2020 05:15:00 6.7 C 93 % 5.65 C
2657 08-04-2020 05:20:00 6.6 C 92 % 5.4 C
2658 08-04-2020 05:25:00 6.5 C 92 % 5.3 C
2659 08-04-2020 05:30:00 6.4 C 92 % 5.2 C
2660 08-04-2020 05:35:00 6.4 C 93 % 5.35 C
2661 08-04-2020 05:40:00 6.3 C 93 % 5.25 C
2662 08-04-2020 05:45:00 6.2 C 93 % 5.15 C
2663 08-04-2020 05:50:00 6.2 C 93 % 5.15 C
2664 08-04-2020 05:55:00 6.2 C 93 % 5.15 C
2665 08-04-2020 06:00:00 6.2 C 93 % 5.15 C
2666 08-04-2020 06:05:00 6.2 C 93 % 5.15 C
2667 08-04-2020 06:10:00 6.1 C 93 % 5.06 C
2668 08-04-2020 06:15:00 6.1 C 93 % 5.06 C
2669 08-04-2020 06:20:00 6 C 93 % 4.96 C
2670 08-04-2020 06:25:00 6 C 94 % 5.11 C
2671 08-04-2020 06:30:00 6.1 C 94 % 5.21 C
2672 08-04-2020 06:35:00 5.9 C 94 % 5.01 C
2673 08-04-2020 06:40:00 5.8 C 93 % 4.76 C
2674 08-04-2020 06:45:00 5.7 C 94 % 4.81 C
2675 08-04-2020 06:50:00 5.7 C 94 % 4.81 C
Sensor: Nr:Datum:Temp:Feuchte:Taupunkt:
Aussen-T/F 2676 08-04-2020 06:55:00 5.6 C 94 % 4.71 C
2677 08-04-2020 07:00:00 5.7 C 94 % 4.81 C
2678 08-04-2020 07:05:00 5.7 C 94 % 4.81 C
2679 08-04-2020 07:10:00 5.7 C 94 % 4.81 C
2680 08-04-2020 07:15:00 5.7 C 94 % 4.81 C
2681 08-04-2020 07:20:00 5.8 C 94 % 4.91 C
2682 08-04-2020 07:25:00 5.8 C 94 % 4.91 C
2683 08-04-2020 07:30:00 5.8 C 94 % 4.91 C
2684 08-04-2020 07:35:00 5.8 C 95 % 5.06 C
2685 08-04-2020 07:40:00 5.8 C 95 % 5.06 C
2686 08-04-2020 07:45:00 6 C 95 % 5.26 C
2687 08-04-2020 07:50:00 6.2 C 95 % 5.46 C
2688 08-04-2020 07:55:00 6.3 C 95 % 5.56 C
2689 08-04-2020 08:00:00 6.3 C 95 % 5.56 C
2690 08-04-2020 08:05:00 6.3 C 95 % 5.56 C
2691 08-04-2020 08:10:00 6.3 C 95 % 5.56 C
2692 08-04-2020 08:15:00 6.3 C 95 % 5.56 C
2693 08-04-2020 08:20:00 6.4 C 95 % 5.66 C
2694 08-04-2020 08:25:00 6.7 C 95 % 5.96 C
2695 08-04-2020 08:30:00 6.7 C 96 % 6.11 C
2696 08-04-2020 08:35:00 6.8 C 96 % 6.21 C
2697 08-04-2020 08:40:00 6.9 C 96 % 6.31 C
2698 08-04-2020 08:45:00 6.9 C 95 % 6.16 C
2699 08-04-2020 08:50:00 7 C 95 % 6.26 C
2700 08-04-2020 08:55:00 7.1 C 95 % 6.35 C
Sensor: Nr:Datum:Temp:Feuchte:Taupunkt:
Aussen-T/F 2701 08-04-2020 09:00:00 7.2 C 96 % 6.61 C
2702 08-04-2020 09:05:00 7.3 C 96 % 6.71 C
2703 08-04-2020 09:10:00 7.4 C 96 % 6.8 C
2704 08-04-2020 09:15:00 7.4 C 96 % 6.8 C
2705 08-04-2020 09:20:00 7.6 C 96 % 7 C
2706 08-04-2020 09:25:00 7.7 C 96 % 7.1 C
2707 08-04-2020 09:30:00 7.9 C 96 % 7.3 C
2708 08-04-2020 09:35:00 8.1 C 96 % 7.5 C
2709 08-04-2020 09:40:00 8.2 C 96 % 7.6 C
2710 08-04-2020 09:45:00 8.4 C 96 % 7.8 C
2711 08-04-2020 09:50:00 8.6 C 96 % 8 C
2712 08-04-2020 09:55:00 8.7 C 96 % 8.1 C
2713 08-04-2020 10:00:00 8.9 C 96 % 8.3 C
2714 08-04-2020 10:05:00 9.1 C 96 % 8.5 C
2715 08-04-2020 10:10:00 9.2 C 96 % 8.6 C
2716 08-04-2020 10:15:00 9.4 C 96 % 8.8 C
2717 08-04-2020 10:20:00 9.7 C 96 % 9.09 C
2718 08-04-2020 10:25:00 9.9 C 96 % 9.29 C
2719 08-04-2020 10:30:00 10.2 C 95 % 9.44 C
2720 08-04-2020 10:35:00 10.4 C 95 % 9.63 C
2721 08-04-2020 10:40:00 10.8 C 94 % 9.87 C
2722 08-04-2020 10:45:00 11.2 C 93 % 10.11 C
2723 08-04-2020 10:50:00 11.6 C 92 % 10.35 C
2724 08-04-2020 10:55:00 12 C 90 % 10.41 C
2725 08-04-2020 11:00:00 12.4 C 88 % 10.47 C
Sensor: Nr:Datum:Temp:Feuchte:Taupunkt:
Aussen-T/F 2726 08-04-2020 11:05:00 12.9 C 87 % 10.79 C
2727 08-04-2020 11:10:00 13.3 C 85 % 10.83 C
2728 08-04-2020 11:15:00 13.8 C 83 % 10.97 C
2729 08-04-2020 11:20:00 14.3 C 82 % 11.27 C
2730 08-04-2020 11:25:00 14.8 C 81 % 11.57 C
2731 08-04-2020 11:30:00 15.1 C 80 % 11.68 C
2732 08-04-2020 11:35:00 15.4 C 78 % 11.59 C
2733 08-04-2020 11:40:00 15.9 C 74 % 11.28 C
2734 08-04-2020 11:45:00 16.4 C 71 % 11.13 C
2735 08-04-2020 11:50:00 17 C 70 % 11.49 C
2736 08-04-2020 11:55:00 17.5 C 69 % 11.75 C
2737 08-04-2020 12:00:00 18.1 C 62 % 10.71 C
2738 08-04-2020 12:05:00 18.5 C 62 % 11.09 C
2739 08-04-2020 12:10:00 18.9 C 58 % 10.46 C
2740 08-04-2020 12:15:00 19.3 C 56 % 10.31 C
2741 08-04-2020 12:20:00 19.7 C 55 % 10.41 C
2742 08-04-2020 12:25:00 19.9 C 52 % 9.76 C
2743 08-04-2020 12:30:00 20.2 C 49 % 9.15 C
2744 08-04-2020 12:35:00 20.4 C 48 % 9.03 C
2745 08-04-2020 12:40:00 20.6 C 47 % 8.9 C
2746 08-04-2020 12:45:00 20.8 C 47 % 9.08 C
2747 08-04-2020 12:50:00 20.9 C 44 % 8.2 C
2748 08-04-2020 12:55:00 21.1 C 43 % 8.04 C
2749 08-04-2020 13:00:00 21.2 C 43 % 8.13 C
2750 08-04-2020 13:05:00 21.3 C 41 % 7.53 C
Sensor: Nr:Datum:Temp:Feuchte:Taupunkt:
Aussen-T/F 2751 08-04-2020 13:10:00 21.5 C 41 % 7.7 C
2752 08-04-2020 13:15:00 21.7 C 37 % 6.39 C
2753 08-04-2020 13:20:00 21.8 C 36 % 6.08 C
2754 08-04-2020 13:25:00 21.8 C 35 % 5.67 C
2755 08-04-2020 13:30:00 21.7 C 35 % 5.58 C
2756 08-04-2020 13:35:00 21.8 C 35 % 5.67 C
2757 08-04-2020 13:40:00 22 C 32 % 4.56 C
2758 08-04-2020 13:45:00 22.1 C 30 % 3.73 C
2759 08-04-2020 13:50:00 22.1 C 30 % 3.73 C
2760 08-04-2020 13:55:00 22.2 C 30 % 3.82 C
2761 08-04-2020 14:00:00 22.2 C 29 % 3.34 C
2762 08-04-2020 14:05:00 22.3 C 29 % 3.42 C
2763 08-04-2020 14:10:00 22.4 C 29 % 3.51 C
2764 08-04-2020 14:15:00 22.6 C 30 % 4.16 C
2765 08-04-2020 14:20:00 22.7 C 30 % 4.25 C
2766 08-04-2020 14:25:00 22.9 C 29 % 3.94 C
2767 08-04-2020 14:30:00 23.1 C 29 % 4.11 C
2768 08-04-2020 14:35:00 23.2 C 28 % 3.7 C
2769 08-04-2020 14:40:00 23.2 C 28 % 3.7 C
2770 08-04-2020 14:45:00 23.2 C 28 % 3.7 C
2771 08-04-2020 14:50:00 23.3 C 28 % 3.78 C
2772 08-04-2020 14:55:00 23.3 C 28 % 3.78 C
2773 08-04-2020 15:00:00 23.4 C 28 % 3.87 C
2774 08-04-2020 15:05:00 23.4 C 28 % 3.87 C
2775 08-04-2020 15:10:00 23.2 C 35 % 6.9 C
Sensor: Nr:Datum:Temp:Feuchte:Taupunkt:
Aussen-T/F 2776 08-04-2020 15:15:00 22.8 C 32 % 5.26 C
2777 08-04-2020 15:20:00 22.8 C 30 % 4.34 C
2778 08-04-2020 15:25:00 23 C 31 % 4.98 C
2779 08-04-2020 15:30:00 22.9 C 30 % 4.42 C
2780 08-04-2020 15:35:00 22.9 C 29 % 3.94 C
2781 08-04-2020 15:40:00 23.1 C 29 % 4.11 C
2782 08-04-2020 15:45:00 23.2 C 29 % 4.2 C
2783 08-04-2020 15:50:00 23.2 C 30 % 4.68 C
2784 08-04-2020 15:55:00 23.3 C 29 % 4.28 C
2785 08-04-2020 16:00:00 23.4 C 28 % 3.87 C
2786 08-04-2020 16:05:00 23.6 C 28 % 4.04 C
2787 08-04-2020 16:10:00 23.6 C 27 % 3.53 C
2788 08-04-2020 16:15:00 23.7 C 28 % 4.13 C
2789 08-04-2020 16:20:00 23.7 C 27 % 3.61 C
2790 08-04-2020 16:25:00 23.8 C 27 % 3.7 C
2791 08-04-2020 16:30:00 24.1 C 29 % 4.97 C
2792 08-04-2020 16:35:00 24.3 C 28 % 4.64 C
2793 08-04-2020 16:40:00 24.6 C 27 % 4.38 C
2794 08-04-2020 16:45:00 24.8 C 27 % 4.55 C
2795 08-04-2020 16:50:00 25.2 C 27 % 4.89 C
2796 08-04-2020 16:55:00 25.7 C 25 % 4.21 C
2797 08-04-2020 17:00:00 25.7 C 24 % 3.63 C
2798 08-04-2020 17:05:00 25.3 C 24 % 3.3 C
2799 08-04-2020 17:10:00 25.2 C 25 % 3.79 C
2800 08-04-2020 17:15:00 25.2 C 25 % 3.79 C
Sensor: Nr:Datum:Temp:Feuchte:Taupunkt:
Aussen-T/F 2801 08-04-2020 17:20:00 25.2 C 24 % 3.21 C
2802 08-04-2020 17:25:00 25.2 C 25 % 3.79 C
2803 08-04-2020 17:30:00 25.2 C 24 % 3.21 C
2804 08-04-2020 17:35:00 25.2 C 25 % 3.79 C
2805 08-04-2020 17:40:00 25.5 C 26 % 4.6 C
2806 08-04-2020 17:45:00 25.3 C 25 % 3.88 C
2807 08-04-2020 17:50:00 25.2 C 27 % 4.89 C
2808 08-04-2020 17:55:00 25.3 C 27 % 4.97 C
2809 08-04-2020 18:00:00 25.3 C 26 % 4.43 C
2810 08-04-2020 18:05:00 25.6 C 27 % 5.23 C
2811 08-04-2020 18:10:00 25.7 C 26 % 4.77 C
2812 08-04-2020 18:15:00 25.6 C 25 % 4.13 C
2813 08-04-2020 18:20:00 25.6 C 27 % 5.23 C
2814 08-04-2020 18:25:00 25.6 C 27 % 5.23 C
2815 08-04-2020 18:30:00 25.4 C 26 % 4.52 C
2816 08-04-2020 18:35:00 25.3 C 27 % 4.97 C
2817 08-04-2020 18:40:00 25.2 C 27 % 4.89 C
2818 08-04-2020 18:45:00 25.2 C 26 % 4.35 C
2819 08-04-2020 18:50:00 25.1 C 26 % 4.26 C
2820 08-04-2020 18:55:00 24.9 C 27 % 4.63 C
2821 08-04-2020 19:00:00 24.8 C 27 % 4.55 C
2822 08-04-2020 19:05:00 24.8 C 32 % 7 C
2823 08-04-2020 19:10:00 24.9 C 32 % 7.08 C
2824 08-04-2020 19:15:00 24.6 C 34 % 7.71 C
2825 08-04-2020 19:20:00 24.2 C 33 % 6.92 C
Sensor: Nr:Datum:Temp:Feuchte:Taupunkt:
Aussen-T/F 2826 08-04-2020 19:25:00 23.5 C 34 % 6.74 C
2827 08-04-2020 19:30:00 22.9 C 36 % 7.05 C
2828 08-04-2020 19:35:00 22.3 C 36 % 6.52 C
2829 08-04-2020 19:40:00 21.7 C 38 % 6.77 C
2830 08-04-2020 19:45:00 21.1 C 40 % 6.99 C
2831 08-04-2020 19:50:00 20.6 C 40 % 6.54 C
2832 08-04-2020 19:55:00 20.1 C 41 % 6.45 C
2833 08-04-2020 20:00:00 19.6 C 42 % 6.35 C
2834 08-04-2020 20:05:00 19.1 C 43 % 6.24 C
2835 08-04-2020 20:10:00 18.7 C 44 % 6.21 C
2836 08-04-2020 20:15:00 18.3 C 45 % 6.17 C
2837 08-04-2020 20:20:00 17.9 C 46 % 6.13 C
2838 08-04-2020 20:25:00 17.7 C 46 % 5.95 C
2839 08-04-2020 20:30:00 17.4 C 47 % 5.98 C
2840 08-04-2020 20:35:00 17.1 C 48 % 6.01 C
2841 08-04-2020 20:40:00 16.8 C 49 % 6.04 C
2842 08-04-2020 20:45:00 16.4 C 49 % 5.67 C
2843 08-04-2020 20:50:00 16.2 C 51 % 6.06 C
2844 08-04-2020 20:55:00 16 C 52 % 6.16 C
2845 08-04-2020 21:00:00 15.8 C 51 % 5.69 C
2846 08-04-2020 21:05:00 15.6 C 52 % 5.79 C
2847 08-04-2020 21:10:00 15.4 C 54 % 6.15 C
2848 08-04-2020 21:15:00 15.1 C 53 % 5.6 C
2849 08-04-2020 21:20:00 14.8 C 54 % 5.59 C
2850 08-04-2020 21:25:00 14.7 C 57 % 6.28 C
Sensor: Nr:Datum:Temp:Feuchte:Taupunkt:
Aussen-T/F 2851 08-04-2020 21:30:00 14.3 C 56 % 5.65 C
2852 08-04-2020 21:35:00 14.2 C 56 % 5.56 C
2853 08-04-2020 21:40:00 14.2 C 58 % 6.06 C
2854 08-04-2020 21:45:00 14.1 C 59 % 6.22 C
2855 08-04-2020 21:50:00 13.9 C 59 % 6.03 C
2856 08-04-2020 21:55:00 13.7 C 60 % 6.09 C
2857 08-04-2020 22:00:00 13.5 C 59 % 5.65 C
2858 08-04-2020 22:05:00 13.3 C 60 % 5.71 C
2859 08-04-2020 22:10:00 13.1 C 60 % 5.52 C
2860 08-04-2020 22:15:00 12.9 C 60 % 5.33 C
2861 08-04-2020 22:20:00 12.8 C 62 % 5.71 C
2862 08-04-2020 22:25:00 12.7 C 63 % 5.85 C
2863 08-04-2020 22:30:00 12.7 C 64 % 6.07 C
2864 08-04-2020 22:35:00 12.6 C 63 % 5.75 C
2865 08-04-2020 22:40:00 12.6 C 64 % 5.98 C
2866 08-04-2020 22:45:00 12.3 C 65 % 5.92 C
2867 08-04-2020 22:50:00 12.1 C 66 % 5.95 C
2868 08-04-2020 22:55:00 11.9 C 66 % 5.76 C
2869 08-04-2020 23:00:00 12 C 64 % 5.41 C
2870 08-04-2020 23:05:00 12.2 C 64 % 5.6 C
2871 08-04-2020 23:10:00 12.2 C 65 % 5.82 C
2872 08-04-2020 23:15:00 12.1 C 65 % 5.73 C
2873 08-04-2020 23:20:00 11.8 C 66 % 5.66 C
2874 08-04-2020 23:25:00 11.6 C 67 % 5.69 C
2875 08-04-2020 23:30:00 11.3 C 68 % 5.62 C
Sensor: Nr:Datum:Temp:Feuchte:Taupunkt:
Aussen-T/F 2876 08-04-2020 23:35:00 11.2 C 69 % 5.73 C
2877 08-04-2020 23:40:00 11.1 C 68 % 5.43 C
2878 08-04-2020 23:45:00 11.2 C 68 % 5.52 C
2879 08-04-2020 23:50:00 11.5 C 68 % 5.81 C
2880 08-04-2020 23:55:00 11.7 C 67 % 5.78 C
2881 09-04-2020 00:00:00 11.7 C 67 % 5.78 C
2882 09-04-2020 00:05:00 11.6 C 68 % 5.9 C
2883 09-04-2020 00:10:00 11.5 C 67 % 5.59 C
2884 09-04-2020 00:15:00 11.6 C 67 % 5.69 C
2885 09-04-2020 00:20:00 11.7 C 67 % 5.78 C
2886 09-04-2020 00:25:00 11.6 C 68 % 5.9 C
2887 09-04-2020 00:30:00 11.3 C 68 % 5.62 C
2888 09-04-2020 00:35:00 11.1 C 69 % 5.64 C
2889 09-04-2020 00:40:00 11.2 C 68 % 5.52 C
2890 09-04-2020 00:45:00 11.2 C 69 % 5.73 C
2891 09-04-2020 00:50:00 11.2 C 69 % 5.73 C
2892 09-04-2020 00:55:00 11.1 C 70 % 5.84 C
2893 09-04-2020 01:00:00 11.1 C 70 % 5.84 C
2894 09-04-2020 01:05:00 10.9 C 71 % 5.86 C
2895 09-04-2020 01:10:00 10.8 C 71 % 5.76 C
2896 09-04-2020 01:15:00 10.6 C 71 % 5.57 C
2897 09-04-2020 01:20:00 10.3 C 72 % 5.48 C
2898 09-04-2020 01:25:00 10.1 C 73 % 5.49 C
2899 09-04-2020 01:30:00 10 C 74 % 5.59 C
2900 09-04-2020 01:35:00 10.1 C 76 % 6.07 C
Sensor: Nr:Datum:Temp:Feuchte:Taupunkt:
Aussen-T/F 2901 09-04-2020 01:40:00 10.1 C 76 % 6.07 C
2902 09-04-2020 01:45:00 10 C 76 % 5.97 C
2903 09-04-2020 01:50:00 10 C 77 % 6.16 C
2904 09-04-2020 01:55:00 10 C 77 % 6.16 C
2905 09-04-2020 02:00:00 9.8 C 76 % 5.78 C
2906 09-04-2020 02:05:00 9.7 C 76 % 5.68 C
2907 09-04-2020 02:10:00 9.6 C 76 % 5.58 C
2908 09-04-2020 02:15:00 9.5 C 77 % 5.68 C
2909 09-04-2020 02:20:00 9.4 C 77 % 5.58 C
2910 09-04-2020 02:25:00 9.4 C 78 % 5.76 C
2911 09-04-2020 02:30:00 9.3 C 78 % 5.67 C
2912 09-04-2020 02:35:00 9.3 C 79 % 5.85 C
2913 09-04-2020 02:40:00 9.2 C 78 % 5.57 C
2914 09-04-2020 02:45:00 9.2 C 78 % 5.57 C
2915 09-04-2020 02:50:00 9.2 C 79 % 5.75 C
2916 09-04-2020 02:55:00 9.3 C 78 % 5.67 C
2917 09-04-2020 03:00:00 9.4 C 78 % 5.76 C
2918 09-04-2020 03:05:00 9.5 C 78 % 5.86 C
2919 09-04-2020 03:10:00 9.6 C 78 % 5.96 C
2920 09-04-2020 03:15:00 9.7 C 77 % 5.87 C
2921 09-04-2020 03:20:00 9.7 C 77 % 5.87 C
2922 09-04-2020 03:25:00 9.7 C 78 % 6.06 C
2923 09-04-2020 03:30:00 9.7 C 78 % 6.06 C
2924 09-04-2020 03:35:00 9.7 C 78 % 6.06 C
2925 09-04-2020 03:40:00 9.7 C 78 % 6.06 C
Sensor: Nr:Datum:Temp:Feuchte:Taupunkt:
Aussen-T/F 2926 09-04-2020 03:45:00 9.8 C 79 % 6.34 C
2927 09-04-2020 03:50:00 9.8 C 77 % 5.97 C
2928 09-04-2020 03:55:00 9.9 C 77 % 6.06 C
2929 09-04-2020 04:00:00 10 C 78 % 6.35 C
2930 09-04-2020 04:05:00 10.1 C 78 % 6.44 C
2931 09-04-2020 04:10:00 10.1 C 78 % 6.44 C
2932 09-04-2020 04:15:00 10.1 C 78 % 6.44 C
2933 09-04-2020 04:20:00 10.2 C 78 % 6.54 C
2934 09-04-2020 04:25:00 10.2 C 78 % 6.54 C
2935 09-04-2020 04:30:00 10.1 C 78 % 6.44 C
2936 09-04-2020 04:35:00 10 C 78 % 6.35 C
2937 09-04-2020 04:40:00 9.9 C 79 % 6.43 C
2938 09-04-2020 04:45:00 9.8 C 79 % 6.34 C
2939 09-04-2020 04:50:00 9.7 C 79 % 6.24 C
2940 09-04-2020 04:55:00 9.6 C 79 % 6.14 C
2941 09-04-2020 05:00:00 9.4 C 79 % 5.95 C
2942 09-04-2020 05:05:00 9.4 C 79 % 5.95 C
2943 09-04-2020 05:10:00 9.3 C 80 % 6.03 C
2944 09-04-2020 05:15:00 9.2 C 80 % 5.94 C
2945 09-04-2020 05:20:00 9.2 C 80 % 5.94 C
2946 09-04-2020 05:25:00 9.2 C 80 % 5.94 C
2947 09-04-2020 05:30:00 9.1 C 80 % 5.84 C
2948 09-04-2020 05:35:00 9 C 81 % 5.92 C
2949 09-04-2020 05:40:00 8.9 C 82 % 6 C
2950 09-04-2020 05:45:00 8.8 C 82 % 5.9 C
Sensor: Nr:Datum:Temp:Feuchte:Taupunkt:
Aussen-T/F 2951 09-04-2020 05:50:00 8.7 C 82 % 5.8 C
2952 09-04-2020 05:55:00 8.6 C 83 % 5.88 C
2953 09-04-2020 06:00:00 8.6 C 83 % 5.88 C
2954 09-04-2020 06:05:00 8.5 C 83 % 5.78 C
2955 09-04-2020 06:10:00 8.4 C 83 % 5.69 C
2956 09-04-2020 06:15:00 8.3 C 83 % 5.59 C
2957 09-04-2020 06:20:00 8.1 C 83 % 5.39 C
2958 09-04-2020 06:25:00 7.9 C 83 % 5.2 C
2959 09-04-2020 06:30:00 7.8 C 84 % 5.27 C
2960 09-04-2020 06:35:00 7.7 C 84 % 5.17 C
2961 09-04-2020 06:40:00 7.6 C 84 % 5.07 C
2962 09-04-2020 06:45:00 7.4 C 85 % 5.05 C
2963 09-04-2020 06:50:00 7.3 C 85 % 4.95 C
2964 09-04-2020 06:55:00 7.3 C 86 % 5.12 C
2965 09-04-2020 07:00:00 7.3 C 86 % 5.12 C
2966 09-04-2020 07:05:00 7.3 C 86 % 5.12 C
2967 09-04-2020 07:10:00 7.4 C 87 % 5.38 C
2968 09-04-2020 07:15:00 7.5 C 87 % 5.48 C
2969 09-04-2020 07:20:00 7.7 C 87 % 5.68 C
2970 09-04-2020 07:25:00 7.7 C 86 % 5.51 C
2971 09-04-2020 07:30:00 7.7 C 86 % 5.51 C
2972 09-04-2020 07:35:00 7.7 C 86 % 5.51 C
2973 09-04-2020 07:40:00 7.6 C 86 % 5.41 C
2974 09-04-2020 07:45:00 7.6 C 86 % 5.41 C
2975 09-04-2020 07:50:00 7.6 C 87 % 5.58 C
Sensor: Nr:Datum:Temp:Feuchte:Taupunkt:
Aussen-T/F 2976 09-04-2020 07:55:00 7.6 C 87 % 5.58 C
2977 09-04-2020 08:00:00 7.6 C 87 % 5.58 C
2978 09-04-2020 08:05:00 7.6 C 87 % 5.58 C
2979 09-04-2020 08:10:00 7.7 C 88 % 5.84 C
2980 09-04-2020 08:15:00 7.7 C 88 % 5.84 C
2981 09-04-2020 08:20:00 7.8 C 88 % 5.94 C
2982 09-04-2020 08:25:00 7.8 C 88 % 5.94 C
2983 09-04-2020 08:30:00 7.9 C 88 % 6.04 C
2984 09-04-2020 08:35:00 7.9 C 88 % 6.04 C
2985 09-04-2020 08:40:00 8.1 C 88 % 6.24 C
2986 09-04-2020 08:45:00 8.2 C 88 % 6.33 C
2987 09-04-2020 08:50:00 8.3 C 88 % 6.43 C
2988 09-04-2020 08:55:00 8.4 C 87 % 6.37 C
2989 09-04-2020 09:00:00 8.6 C 88 % 6.73 C
2990 09-04-2020 09:05:00 8.7 C 87 % 6.66 C
2991 09-04-2020 09:10:00 8.8 C 87 % 6.76 C
2992 09-04-2020 09:15:00 8.9 C 87 % 6.86 C
2993 09-04-2020 09:20:00 9 C 87 % 6.96 C
2994 09-04-2020 09:25:00 9.1 C 87 % 7.05 C
2995 09-04-2020 09:30:00 9.2 C 87 % 7.15 C
2996 09-04-2020 09:35:00 9.4 C 87 % 7.35 C
2997 09-04-2020 09:40:00 9.6 C 87 % 7.55 C
2998 09-04-2020 09:45:00 9.8 C 87 % 7.74 C
2999 09-04-2020 09:50:00 9.9 C 87 % 7.84 C
3000 09-04-2020 09:55:00 10.1 C 86 % 7.87 C
Sensor: Nr:Datum:Temp:Feuchte:Taupunkt:
Aussen-T/F 3001 09-04-2020 10:00:00 10.3 C 86 % 8.06 C
3002 09-04-2020 10:05:00 10.5 C 86 % 8.26 C
3003 09-04-2020 10:10:00 10.7 C 85 % 8.28 C
3004 09-04-2020 10:15:00 10.9 C 83 % 8.13 C
3005 09-04-2020 10:20:00 11.2 C 83 % 8.42 C
3006 09-04-2020 10:25:00 11.6 C 82 % 8.64 C
3007 09-04-2020 10:30:00 11.8 C 81 % 8.65 C
3008 09-04-2020 10:35:00 12.2 C 80 % 8.86 C
3009 09-04-2020 10:40:00 12.5 C 78 % 8.77 C
3010 09-04-2020 10:45:00 12.8 C 78 % 9.06 C
3011 09-04-2020 10:50:00 13.2 C 77 % 9.26 C
3012 09-04-2020 10:55:00 13.6 C 77 % 9.65 C
3013 09-04-2020 11:00:00 14 C 74 % 9.44 C
3014 09-04-2020 11:05:00 14.4 C 70 % 9 C
3015 09-04-2020 11:10:00 14.9 C 70 % 9.48 C
3016 09-04-2020 11:15:00 15.4 C 69 % 9.75 C
3017 09-04-2020 11:20:00 15.8 C 66 % 9.47 C
3018 09-04-2020 11:25:00 16.3 C 63 % 9.25 C
3019 09-04-2020 11:30:00 16.7 C 63 % 9.63 C
3020 09-04-2020 11:35:00 17.1 C 60 % 9.28 C
3021 09-04-2020 11:40:00 17.4 C 60 % 9.56 C
3022 09-04-2020 11:45:00 17.7 C 59 % 9.59 C
3023 09-04-2020 11:50:00 18.1 C 56 % 9.19 C
3024 09-04-2020 11:55:00 18.3 C 57 % 9.64 C
3025 09-04-2020 12:00:00 18.6 C 56 % 9.66 C
Sensor: Nr:Datum:Temp:Feuchte:Taupunkt:
Aussen-T/F 3026 09-04-2020 12:05:00 18.8 C 55 % 9.58 C
3027 09-04-2020 12:10:00 19.1 C 53 % 9.3 C
3028 09-04-2020 12:15:00 19.3 C 53 % 9.49 C
3029 09-04-2020 12:20:00 19.6 C 53 % 9.77 C
3030 09-04-2020 12:25:00 19.8 C 53 % 9.95 C
3031 09-04-2020 12:30:00 20.1 C 53 % 10.23 C
3032 09-04-2020 12:35:00 20.3 C 51 % 9.84 C
3033 09-04-2020 12:40:00 20.6 C 50 % 9.82 C
3034 09-04-2020 12:45:00 20.8 C 48 % 9.4 C
3035 09-04-2020 12:50:00 21 C 49 % 9.89 C
3036 09-04-2020 12:55:00 21.2 C 49 % 10.07 C
3037 09-04-2020 13:00:00 21.3 C 47 % 9.54 C
3038 09-04-2020 13:05:00 21.3 C 48 % 9.85 C
3039 09-04-2020 13:10:00 21.4 C 46 % 9.31 C
3040 09-04-2020 13:15:00 21.6 C 45 % 9.17 C
3041 09-04-2020 13:20:00 21.7 C 46 % 9.58 C
3042 09-04-2020 13:25:00 21.8 C 46 % 9.67 C
3043 09-04-2020 13:30:00 21.9 C 44 % 9.1 C
3044 09-04-2020 13:35:00 22.1 C 45 % 9.62 C
3045 09-04-2020 13:40:00 22.1 C 41 % 8.24 C
3046 09-04-2020 13:45:00 22.1 C 39 % 7.51 C
3047 09-04-2020 13:50:00 22.3 C 36 % 6.52 C
3048 09-04-2020 13:55:00 22.3 C 38 % 7.31 C
3049 09-04-2020 14:00:00 22.5 C 38 % 7.48 C
3050 09-04-2020 14:05:00 22.6 C 36 % 6.78 C
Sensor: Nr:Datum:Temp:Feuchte:Taupunkt:
Aussen-T/F 3051 09-04-2020 14:10:00 22.6 C 36 % 6.78 C
3052 09-04-2020 14:15:00 22.7 C 36 % 6.87 C
3053 09-04-2020 14:20:00 22.8 C 34 % 6.13 C
3054 09-04-2020 14:25:00 23.1 C 34 % 6.39 C
3055 09-04-2020 14:30:00 23.2 C 34 % 6.48 C
3056 09-04-2020 14:35:00 23.3 C 34 % 6.57 C
3057 09-04-2020 14:40:00 23.4 C 34 % 6.66 C
3058 09-04-2020 14:45:00 23.5 C 35 % 7.17 C
3059 09-04-2020 14:50:00 23.7 C 36 % 7.75 C
3060 09-04-2020 14:55:00 23.7 C 35 % 7.34 C
3061 09-04-2020 15:00:00 23.7 C 34 % 6.92 C
3062 09-04-2020 15:05:00 23.7 C 34 % 6.92 C
3063 09-04-2020 15:10:00 23.7 C 33 % 6.49 C
3064 09-04-2020 15:15:00 23.7 C 33 % 6.49 C
3065 09-04-2020 15:20:00 23.7 C 34 % 6.92 C
3066 09-04-2020 15:25:00 23.6 C 34 % 6.83 C
3067 09-04-2020 15:30:00 23.6 C 34 % 6.83 C
3068 09-04-2020 15:35:00 23.7 C 36 % 7.75 C
3069 09-04-2020 15:40:00 23.8 C 34 % 7.01 C
3070 09-04-2020 15:45:00 23.8 C 35 % 7.43 C
3071 09-04-2020 15:50:00 23.8 C 35 % 7.43 C
3072 09-04-2020 15:55:00 23.8 C 34 % 7.01 C
3073 09-04-2020 16:00:00 23.8 C 33 % 6.57 C
3074 09-04-2020 16:05:00 23.8 C 34 % 7.01 C
3075 09-04-2020 16:10:00 23.9 C 34 % 7.1 C
Sensor: Nr:Datum:Temp:Feuchte:Taupunkt:
Aussen-T/F 3076 09-04-2020 16:15:00 24.1 C 34 % 7.27 C
3077 09-04-2020 16:20:00 24.2 C 34 % 7.36 C
3078 09-04-2020 16:25:00 24.3 C 34 % 7.45 C
3079 09-04-2020 16:30:00 24.3 C 33 % 7.01 C
3080 09-04-2020 16:35:00 24.3 C 33 % 7.01 C
3081 09-04-2020 16:40:00 24.6 C 35 % 8.13 C
3082 09-04-2020 16:45:00 24.7 C 33 % 7.36 C
3083 09-04-2020 16:50:00 24.7 C 34 % 7.8 C
3084 09-04-2020 16:55:00 24.9 C 34 % 7.97 C
3085 09-04-2020 17:00:00 24.9 C 34 % 7.97 C
3086 09-04-2020 17:05:00 24.8 C 33 % 7.45 C
3087 09-04-2020 17:10:00 24.7 C 33 % 7.36 C
3088 09-04-2020 17:15:00 24.8 C 33 % 7.45 C
3089 09-04-2020 17:20:00 24.8 C 32 % 7 C
3090 09-04-2020 17:25:00 24.8 C 33 % 7.45 C
3091 09-04-2020 17:30:00 24.8 C 32 % 7 C
3092 09-04-2020 17:35:00 24.7 C 32 % 6.91 C
3093 09-04-2020 17:40:00 24.7 C 34 % 7.8 C
3094 09-04-2020 17:45:00 24.6 C 33 % 7.27 C
3095 09-04-2020 17:50:00 24.4 C 34 % 7.53 C
3096 09-04-2020 17:55:00 24.4 C 34 % 7.53 C
3097 09-04-2020 18:00:00 24.6 C 35 % 8.13 C
3098 09-04-2020 18:05:00 24.6 C 34 % 7.71 C
3099 09-04-2020 18:10:00 24.4 C 34 % 7.53 C
3100 09-04-2020 18:15:00 24.2 C 35 % 7.78 C
Sensor: Nr:Datum:Temp:Feuchte:Taupunkt:
Aussen-T/F 3101 09-04-2020 18:20:00 24.2 C 35 % 7.78 C
3102 09-04-2020 18:25:00 24.1 C 35 % 7.69 C
3103 09-04-2020 18:30:00 23.9 C 37 % 8.33 C
3104 09-04-2020 18:35:00 23.7 C 37 % 8.16 C
3105 09-04-2020 18:40:00 23.7 C 37 % 8.16 C
3106 09-04-2020 18:45:00 23.7 C 36 % 7.75 C
3107 09-04-2020 18:50:00 23.6 C 37 % 8.07 C
3108 09-04-2020 18:55:00 23.4 C 36 % 7.49 C
3109 09-04-2020 19:00:00 23.3 C 37 % 7.8 C
3110 09-04-2020 19:05:00 23.4 C 38 % 8.28 C
3111 09-04-2020 19:10:00 23.3 C 38 % 8.19 C
3112 09-04-2020 19:15:00 23.2 C 38 % 8.11 C
3113 09-04-2020 19:20:00 22.9 C 38 % 7.84 C
3114 09-04-2020 19:25:00 22.6 C 39 % 7.95 C
3115 09-04-2020 19:30:00 22.2 C 42 % 8.69 C
3116 09-04-2020 19:35:00 21.9 C 43 % 8.76 C
3117 09-04-2020 19:40:00 21.6 C 43 % 8.49 C
3118 09-04-2020 19:45:00 21.3 C 43 % 8.22 C
3119 09-04-2020 19:50:00 21.1 C 43 % 8.04 C
3120 09-04-2020 19:55:00 20.9 C 44 % 8.2 C
3121 09-04-2020 20:00:00 20.7 C 44 % 8.02 C
3122 09-04-2020 20:05:00 20.4 C 48 % 9.03 C
3123 09-04-2020 20:10:00 19.9 C 48 % 8.57 C
3124 09-04-2020 20:15:00 19.3 C 51 % 8.92 C
3125 09-04-2020 20:20:00 18.7 C 53 % 8.93 C
Sensor: Nr:Datum:Temp:Feuchte:Taupunkt:
Aussen-T/F 3126 09-04-2020 20:25:00 18.2 C 54 % 8.75 C
3127 09-04-2020 20:30:00 17.8 C 56 % 8.91 C
3128 09-04-2020 20:35:00 17.4 C 57 % 8.8 C
3129 09-04-2020 20:40:00 17.2 C 57 % 8.62 C
3130 09-04-2020 20:45:00 16.9 C 59 % 8.84 C
3131 09-04-2020 20:50:00 16.7 C 59 % 8.66 C
3132 09-04-2020 20:55:00 16.4 C 60 % 8.62 C
3133 09-04-2020 21:00:00 16.2 C 61 % 8.68 C
3134 09-04-2020 21:05:00 16 C 61 % 8.49 C
3135 09-04-2020 21:10:00 16.1 C 61 % 8.58 C
3136 09-04-2020 21:15:00 16.2 C 60 % 8.43 C
3137 09-04-2020 21:20:00 16.3 C 60 % 8.53 C
3138 09-04-2020 21:25:00 16.3 C 60 % 8.53 C
3139 09-04-2020 21:30:00 16.2 C 61 % 8.68 C
3140 09-04-2020 21:35:00 16 C 61 % 8.49 C
3141 09-04-2020 21:40:00 15.8 C 62 % 8.54 C
3142 09-04-2020 21:45:00 15.6 C 62 % 8.35 C
3143 09-04-2020 21:50:00 15.4 C 63 % 8.4 C
3144 09-04-2020 21:55:00 15.2 C 64 % 8.44 C
3145 09-04-2020 22:00:00 15.1 C 64 % 8.35 C
3146 09-04-2020 22:05:00 15 C 64 % 8.25 C
3147 09-04-2020 22:10:00 14.9 C 65 % 8.39 C
3148 09-04-2020 22:15:00 14.9 C 65 % 8.39 C
3149 09-04-2020 22:20:00 15 C 65 % 8.48 C
3150 09-04-2020 22:25:00 14.9 C 65 % 8.39 C
Sensor: Nr:Datum:Temp:Feuchte:Taupunkt:
Aussen-T/F 3151 09-04-2020 22:30:00 14.8 C 65 % 8.29 C
3152 09-04-2020 22:35:00 14.7 C 66 % 8.42 C
3153 09-04-2020 22:40:00 14.6 C 66 % 8.33 C
3154 09-04-2020 22:45:00 14.4 C 67 % 8.36 C
3155 09-04-2020 22:50:00 14.3 C 67 % 8.26 C
3156 09-04-2020 22:55:00 14.2 C 68 % 8.39 C
3157 09-04-2020 23:00:00 14.1 C 68 % 8.29 C
3158 09-04-2020 23:05:00 13.9 C 68 % 8.1 C
3159 09-04-2020 23:10:00 13.8 C 69 % 8.22 C
3160 09-04-2020 23:15:00 13.8 C 69 % 8.22 C
3161 09-04-2020 23:20:00 13.7 C 69 % 8.12 C
3162 09-04-2020 23:25:00 13.6 C 69 % 8.03 C
3163 09-04-2020 23:30:00 13.4 C 70 % 8.05 C
3164 09-04-2020 23:35:00 13.3 C 70 % 7.95 C
3165 09-04-2020 23:40:00 13.3 C 71 % 8.16 C
3166 09-04-2020 23:45:00 13.2 C 71 % 8.06 C
3167 09-04-2020 23:50:00 13.1 C 71 % 7.97 C
3168 09-04-2020 23:55:00 12.9 C 72 % 7.98 C
3169 10-04-2020 00:00:00 12.8 C 73 % 8.09 C
3170 10-04-2020 00:05:00 12.7 C 73 % 7.99 C
3171 10-04-2020 00:10:00 12.6 C 73 % 7.89 C
3172 10-04-2020 00:15:00 12.4 C 74 % 7.9 C
3173 10-04-2020 00:20:00 12.3 C 74 % 7.8 C
3174 10-04-2020 00:25:00 12.2 C 74 % 7.71 C
3175 10-04-2020 00:30:00 12 C 75 % 7.71 C
Sensor: Nr:Datum:Temp:Feuchte:Taupunkt:
Aussen-T/F 3176 10-04-2020 00:35:00 11.9 C 76 % 7.81 C
3177 10-04-2020 00:40:00 11.7 C 76 % 7.62 C
3178 10-04-2020 00:45:00 11.5 C 76 % 7.42 C
3179 10-04-2020 00:50:00 11.3 C 77 % 7.42 C
3180 10-04-2020 00:55:00 11.1 C 78 % 7.41 C
3181 10-04-2020 01:00:00 10.9 C 79 % 7.41 C
3182 10-04-2020 01:05:00 10.8 C 79 % 7.31 C
3183 10-04-2020 01:10:00 10.7 C 79 % 7.21 C
3184 10-04-2020 01:15:00 10.6 C 79 % 7.11 C
3185 10-04-2020 01:20:00 10.4 C 80 % 7.1 C
3186 10-04-2020 01:25:00 10.3 C 81 % 7.19 C
3187 10-04-2020 01:30:00 10.2 C 81 % 7.09 C
3188 10-04-2020 01:35:00 10.2 C 81 % 7.09 C
3189 10-04-2020 01:40:00 10.2 C 81 % 7.09 C
3190 10-04-2020 01:45:00 10.1 C 81 % 6.99 C
3191 10-04-2020 01:50:00 9.9 C 82 % 6.98 C
3192 10-04-2020 01:55:00 9.8 C 82 % 6.88 C
3193 10-04-2020 02:00:00 9.7 C 83 % 6.96 C
3194 10-04-2020 02:05:00 9.6 C 82 % 6.68 C
3195 10-04-2020 02:10:00 9.6 C 83 % 6.86 C
3196 10-04-2020 02:15:00 9.6 C 83 % 6.86 C
3197 10-04-2020 02:20:00 9.4 C 83 % 6.66 C
3198 10-04-2020 02:25:00 9.3 C 83 % 6.57 C
3199 10-04-2020 02:30:00 9.3 C 83 % 6.57 C
3200 10-04-2020 02:35:00 9.2 C 83 % 6.47 C
Sensor: Nr:Datum:Temp:Feuchte:Taupunkt:
Aussen-T/F 3201 10-04-2020 02:40:00 9.1 C 84 % 6.54 C
3202 10-04-2020 02:45:00 9 C 84 % 6.45 C
3203 10-04-2020 02:50:00 8.9 C 84 % 6.35 C
3204 10-04-2020 02:55:00 8.8 C 84 % 6.25 C
3205 10-04-2020 03:00:00 8.8 C 85 % 6.42 C
3206 10-04-2020 03:05:00 8.7 C 85 % 6.32 C
3207 10-04-2020 03:10:00 8.6 C 85 % 6.23 C
3208 10-04-2020 03:15:00 8.4 C 85 % 6.03 C
3209 10-04-2020 03:20:00 8.4 C 85 % 6.03 C
3210 10-04-2020 03:25:00 8.3 C 86 % 6.1 C
3211 10-04-2020 03:30:00 8.2 C 86 % 6 C
3212 10-04-2020 03:35:00 8.1 C 86 % 5.9 C
3213 10-04-2020 03:40:00 8.1 C 86 % 5.9 C
3214 10-04-2020 03:45:00 8.1 C 87 % 6.07 C
3215 10-04-2020 03:50:00 8 C 87 % 5.97 C
3216 10-04-2020 03:55:00 7.9 C 87 % 5.87 C
3217 10-04-2020 04:00:00 7.8 C 87 % 5.78 C
3218 10-04-2020 04:05:00 7.7 C 87 % 5.68 C
3219 10-04-2020 04:10:00 7.7 C 87 % 5.68 C
3220 10-04-2020 04:15:00 7.6 C 87 % 5.58 C
3221 10-04-2020 04:20:00 7.6 C 88 % 5.74 C
3222 10-04-2020 04:25:00 7.5 C 88 % 5.64 C
3223 10-04-2020 04:30:00 7.4 C 88 % 5.55 C
3224 10-04-2020 04:35:00 7.3 C 88 % 5.45 C
3225 10-04-2020 04:40:00 7.3 C 89 % 5.61 C
Sensor: Nr:Datum:Temp:Feuchte:Taupunkt:
Aussen-T/F 3226 10-04-2020 04:45:00 7.2 C 89 % 5.51 C
3227 10-04-2020 04:50:00 7.2 C 89 % 5.51 C
3228 10-04-2020 04:55:00 7.1 C 89 % 5.41 C
3229 10-04-2020 05:00:00 7.1 C 89 % 5.41 C
3230 10-04-2020 05:05:00 7.1 C 89 % 5.41 C
3231 10-04-2020 05:10:00 6.9 C 89 % 5.22 C
3232 10-04-2020 05:15:00 7 C 90 % 5.48 C
3233 10-04-2020 05:20:00 7 C 90 % 5.48 C
3234 10-04-2020 05:25:00 7.1 C 90 % 5.57 C
3235 10-04-2020 05:30:00 7.1 C 90 % 5.57 C
3236 10-04-2020 05:35:00 7 C 90 % 5.48 C
3237 10-04-2020 05:40:00 6.9 C 90 % 5.38 C
3238 10-04-2020 05:45:00 6.8 C 90 % 5.28 C
3239 10-04-2020 05:50:00 6.7 C 90 % 5.18 C
3240 10-04-2020 05:55:00 6.6 C 90 % 5.08 C
3241 10-04-2020 06:00:00 6.5 C 90 % 4.98 C
3242 10-04-2020 06:05:00 6.4 C 90 % 4.88 C
3243 10-04-2020 06:10:00 6.5 C 91 % 5.14 C
3244 10-04-2020 06:15:00 6.4 C 91 % 5.04 C
3245 10-04-2020 06:20:00 6.4 C 91 % 5.04 C
3246 10-04-2020 06:25:00 6.3 C 91 % 4.94 C
3247 10-04-2020 06:30:00 6.3 C 91 % 4.94 C
3248 10-04-2020 06:35:00 6.3 C 92 % 5.1 C
3249 10-04-2020 06:40:00 6.2 C 91 % 4.84 C
3250 10-04-2020 06:45:00 6.2 C 91 % 4.84 C
Sensor: Nr:Datum:Temp:Feuchte:Taupunkt:
Aussen-T/F 3251 10-04-2020 06:50:00 6.1 C 92 % 4.9 C
3252 10-04-2020 06:55:00 6.1 C 92 % 4.9 C
3253 10-04-2020 07:00:00 6.1 C 92 % 4.9 C
3254 10-04-2020 07:05:00 6.1 C 92 % 4.9 C
3255 10-04-2020 07:10:00 6 C 92 % 4.8 C
3256 10-04-2020 07:15:00 6 C 92 % 4.8 C
3257 10-04-2020 07:20:00 6 C 92 % 4.8 C
3258 10-04-2020 07:25:00 6 C 92 % 4.8 C
3259 10-04-2020 07:30:00 6 C 93 % 4.96 C
3260 10-04-2020 07:35:00 6 C 93 % 4.96 C
3261 10-04-2020 07:40:00 6 C 93 % 4.96 C
3262 10-04-2020 07:45:00 6.1 C 93 % 5.06 C
3263 10-04-2020 07:50:00 6.1 C 93 % 5.06 C
3264 10-04-2020 07:55:00 6.2 C 93 % 5.15 C
3265 10-04-2020 08:00:00 6.2 C 93 % 5.15 C
3266 10-04-2020 08:05:00 6.3 C 93 % 5.25 C
3267 10-04-2020 08:10:00 6.3 C 93 % 5.25 C
3268 10-04-2020 08:15:00 6.3 C 93 % 5.25 C
3269 10-04-2020 08:20:00 6.4 C 93 % 5.35 C
3270 10-04-2020 08:25:00 6.5 C 94 % 5.61 C
3271 10-04-2020 08:30:00 6.6 C 94 % 5.71 C
3272 10-04-2020 08:35:00 6.6 C 94 % 5.71 C
3273 10-04-2020 08:40:00 6.7 C 94 % 5.8 C
3274 10-04-2020 08:45:00 6.7 C 94 % 5.8 C
3275 10-04-2020 08:50:00 6.8 C 94 % 5.9 C
Sensor: Nr:Datum:Temp:Feuchte:Taupunkt:
Aussen-T/F 3276 10-04-2020 08:55:00 6.9 C 94 % 6 C
3277 10-04-2020 09:00:00 7.1 C 94 % 6.2 C
3278 10-04-2020 09:05:00 7.2 C 94 % 6.3 C
3279 10-04-2020 09:10:00 7.4 C 94 % 6.5 C
3280 10-04-2020 09:15:00 7.6 C 94 % 6.7 C
3281 10-04-2020 09:20:00 7.7 C 94 % 6.8 C
3282 10-04-2020 09:25:00 7.8 C 94 % 6.9 C
3283 10-04-2020 09:30:00 8 C 94 % 7.09 C
3284 10-04-2020 09:35:00 8.1 C 94 % 7.19 C
3285 10-04-2020 09:40:00 8.3 C 93 % 7.24 C
3286 10-04-2020 09:45:00 8.4 C 93 % 7.34 C
3287 10-04-2020 09:50:00 8.6 C 93 % 7.53 C
3288 10-04-2020 09:55:00 8.8 C 93 % 7.73 C
3289 10-04-2020 10:00:00 9 C 92 % 7.77 C
3290 10-04-2020 10:05:00 9.2 C 92 % 7.97 C
3291 10-04-2020 10:10:00 9.4 C 91 % 8.01 C
3292 10-04-2020 10:15:00 9.7 C 91 % 8.3 C
3293 10-04-2020 10:20:00 9.9 C 90 % 8.34 C
3294 10-04-2020 10:25:00 10.3 C 89 % 8.57 C
3295 10-04-2020 10:30:00 10.6 C 88 % 8.7 C
3296 10-04-2020 10:35:00 10.9 C 88 % 8.99 C
3297 10-04-2020 10:40:00 11.3 C 86 % 9.05 C
3298 10-04-2020 10:45:00 11.6 C 85 % 9.17 C
3299 10-04-2020 10:50:00 12 C 84 % 9.38 C
3300 10-04-2020 10:55:00 12.5 C 82 % 9.51 C
Sensor: Nr:Datum:Temp:Feuchte:Taupunkt:
Aussen-T/F 3301 10-04-2020 11:00:00 12.9 C 81 % 9.72 C
3302 10-04-2020 11:05:00 13.2 C 79 % 9.64 C
3303 10-04-2020 11:10:00 13.7 C 78 % 9.94 C
3304 10-04-2020 11:15:00 14.1 C 75 % 9.74 C
3305 10-04-2020 11:20:00 14.6 C 74 % 10.02 C
3306 10-04-2020 11:25:00 15.1 C 72 % 10.09 C
3307 10-04-2020 11:30:00 15.4 C 72 % 10.38 C
3308 10-04-2020 11:35:00 15.7 C 70 % 10.25 C
3309 10-04-2020 11:40:00 16.1 C 70 % 10.63 C
3310 10-04-2020 11:45:00 16.4 C 65 % 9.81 C
3311 10-04-2020 11:50:00 16.8 C 64 % 9.96 C
3312 10-04-2020 11:55:00 17.1 C 62 % 9.77 C
3313 10-04-2020 12:00:00 17.4 C 60 % 9.56 C
3314 10-04-2020 12:05:00 17.8 C 58 % 9.43 C
3315 10-04-2020 12:10:00 18.1 C 56 % 9.19 C
3316 10-04-2020 12:15:00 18.3 C 56 % 9.38 C
3317 10-04-2020 12:20:00 18.6 C 53 % 8.84 C
3318 10-04-2020 12:25:00 18.8 C 53 % 9.03 C
3319 10-04-2020 12:30:00 19.1 C 51 % 8.73 C
3320 10-04-2020 12:35:00 19.1 C 48 % 7.84 C
3321 10-04-2020 12:40:00 19.2 C 48 % 7.93 C
3322 10-04-2020 12:45:00 19.4 C 47 % 7.81 C
3323 10-04-2020 12:50:00 19.4 C 46 % 7.49 C
3324 10-04-2020 12:55:00 19.6 C 47 % 7.99 C
3325 10-04-2020 13:00:00 19.8 C 47 % 8.17 C
Sensor: Nr:Datum:Temp:Feuchte:Taupunkt:
Aussen-T/F 3326 10-04-2020 13:05:00 19.7 C 46 % 7.77 C
3327 10-04-2020 13:10:00 19.7 C 47 % 8.08 C
3328 10-04-2020 13:15:00 19.7 C 48 % 8.39 C
3329 10-04-2020 13:20:00 19.8 C 44 % 7.21 C
3330 10-04-2020 13:25:00 20 C 44 % 7.39 C
3331 10-04-2020 13:30:00 20.1 C 44 % 7.48 C
3332 10-04-2020 13:35:00 20.2 C 45 % 7.9 C
3333 10-04-2020 13:40:00 20.3 C 44 % 7.66 C
3334 10-04-2020 13:45:00 20.3 C 44 % 7.66 C
3335 10-04-2020 13:50:00 20.3 C 44 % 7.66 C
3336 10-04-2020 13:55:00 20.3 C 44 % 7.66 C
3337 10-04-2020 14:00:00 20.6 C 44 % 7.93 C
3338 10-04-2020 14:05:00 20.7 C 44 % 8.02 C
3339 10-04-2020 14:10:00 20.8 C 44 % 8.11 C
3340 10-04-2020 14:15:00 20.8 C 41 % 7.08 C
3341 10-04-2020 14:20:00 20.8 C 43 % 7.77 C
3342 10-04-2020 14:25:00 20.9 C 40 % 6.81 C
3343 10-04-2020 14:30:00 21.1 C 40 % 6.99 C
3344 10-04-2020 14:35:00 21.1 C 40 % 6.99 C
3345 10-04-2020 14:40:00 21.2 C 42 % 7.79 C
3346 10-04-2020 14:45:00 21.4 C 38 % 6.51 C
3347 10-04-2020 14:50:00 21.6 C 38 % 6.69 C
3348 10-04-2020 14:55:00 21.8 C 36 % 6.08 C
3349 10-04-2020 15:00:00 21.8 C 35 % 5.67 C
3350 10-04-2020 15:05:00 21.9 C 35 % 5.76 C
Sensor: Nr:Datum:Temp:Feuchte:Taupunkt:
Aussen-T/F 3351 10-04-2020 15:10:00 21.9 C 34 % 5.34 C
3352 10-04-2020 15:15:00 21.9 C 35 % 5.76 C
3353 10-04-2020 15:20:00 21.9 C 34 % 5.34 C
3354 10-04-2020 15:25:00 21.8 C 36 % 6.08 C
3355 10-04-2020 15:30:00 21.8 C 35 % 5.67 C
3356 10-04-2020 15:35:00 21.9 C 38 % 6.95 C
3357 10-04-2020 15:40:00 22.1 C 36 % 6.34 C
3358 10-04-2020 15:45:00 22.2 C 36 % 6.43 C
3359 10-04-2020 15:50:00 22.2 C 38 % 7.22 C
3360 10-04-2020 15:55:00 22.3 C 37 % 6.92 C
3361 10-04-2020 16:00:00 22.3 C 38 % 7.31 C
3362 10-04-2020 16:05:00 22.4 C 38 % 7.4 C
3363 10-04-2020 16:10:00 22.6 C 38 % 7.57 C
3364 10-04-2020 16:15:00 22.7 C 37 % 7.27 C
3365 10-04-2020 16:20:00 22.7 C 37 % 7.27 C
3366 10-04-2020 16:25:00 22.9 C 37 % 7.45 C
3367 10-04-2020 16:30:00 23.2 C 36 % 7.31 C
3368 10-04-2020 16:35:00 23.4 C 37 % 7.89 C
3369 10-04-2020 16:40:00 23.6 C 35 % 7.25 C
3370 10-04-2020 16:45:00 23.4 C 36 % 7.49 C
3371 10-04-2020 16:50:00 23.5 C 35 % 7.17 C
3372 10-04-2020 16:55:00 23.8 C 36 % 7.84 C
3373 10-04-2020 17:00:00 23.9 C 34 % 7.1 C
3374 10-04-2020 17:05:00 24.1 C 35 % 7.69 C
3375 10-04-2020 17:10:00 24.2 C 34 % 7.36 C
Sensor: Nr:Datum:Temp:Feuchte:Taupunkt:
Aussen-T/F 3376 10-04-2020 17:15:00 24.1 C 33 % 6.84 C
3377 10-04-2020 17:20:00 23.8 C 33 % 6.57 C
3378 10-04-2020 17:25:00 23.6 C 34 % 6.83 C
3379 10-04-2020 17:30:00 23.8 C 35 % 7.43 C
3380 10-04-2020 17:35:00 24.1 C 34 % 7.27 C
3381 10-04-2020 17:40:00 24.2 C 35 % 7.78 C
3382 10-04-2020 17:45:00 24.3 C 33 % 7.01 C
3383 10-04-2020 17:50:00 24.1 C 32 % 6.39 C
3384 10-04-2020 17:55:00 23.8 C 34 % 7.01 C
3385 10-04-2020 18:00:00 23.5 C 33 % 6.31 C
3386 10-04-2020 18:05:00 23.4 C 34 % 6.66 C
3387 10-04-2020 18:10:00 23.2 C 35 % 6.9 C
3388 10-04-2020 18:15:00 23.2 C 35 % 6.9 C
3389 10-04-2020 18:20:00 23.2 C 35 % 6.9 C
3390 10-04-2020 18:25:00 23.2 C 36 % 7.31 C
3391 10-04-2020 18:30:00 23.2 C 36 % 7.31 C
3392 10-04-2020 18:35:00 23.1 C 37 % 7.63 C
3393 10-04-2020 18:40:00 23 C 38 % 7.93 C
3394 10-04-2020 18:45:00 22.9 C 36 % 7.05 C
3395 10-04-2020 18:50:00 22.7 C 36 % 6.87 C
3396 10-04-2020 18:55:00 22.6 C 36 % 6.78 C
3397 10-04-2020 19:00:00 22.4 C 37 % 7.01 C
3398 10-04-2020 19:05:00 22.3 C 37 % 6.92 C
3399 10-04-2020 19:10:00 22.2 C 37 % 6.83 C
3400 10-04-2020 19:15:00 22 C 37 % 6.65 C
Sensor: Nr:Datum:Temp:Feuchte:Taupunkt:
Aussen-T/F 3401 10-04-2020 19:20:00 21.7 C 39 % 7.15 C
3402 10-04-2020 19:25:00 21.5 C 38 % 6.6 C
3403 10-04-2020 19:30:00 21.3 C 38 % 6.42 C
3404 10-04-2020 19:35:00 21.2 C 39 % 6.71 C
3405 10-04-2020 19:40:00 21 C 39 % 6.53 C
3406 10-04-2020 19:45:00 20.8 C 39 % 6.35 C
3407 10-04-2020 19:50:00 20.7 C 40 % 6.63 C
3408 10-04-2020 19:55:00 20.5 C 41 % 6.81 C
3409 10-04-2020 20:00:00 20.3 C 41 % 6.63 C
3410 10-04-2020 20:05:00 20 C 44 % 7.39 C
3411 10-04-2020 20:10:00 19.6 C 46 % 7.67 C
3412 10-04-2020 20:15:00 19.1 C 47 % 7.53 C
3413 10-04-2020 20:20:00 18.4 C 50 % 7.8 C
3414 10-04-2020 20:25:00 17.8 C 51 % 7.54 C
3415 10-04-2020 20:30:00 17.2 C 53 % 7.55 C
3416 10-04-2020 20:35:00 16.7 C 55 % 7.62 C
3417 10-04-2020 20:40:00 16.3 C 55 % 7.25 C
3418 10-04-2020 20:45:00 16 C 57 % 7.49 C
3419 10-04-2020 20:50:00 15.6 C 57 % 7.12 C
3420 10-04-2020 20:55:00 15.4 C 58 % 7.19 C
3421 10-04-2020 21:00:00 15.3 C 58 % 7.09 C
3422 10-04-2020 21:05:00 15.2 C 59 % 7.25 C
3423 10-04-2020 21:10:00 15 C 59 % 7.06 C
3424 10-04-2020 21:15:00 14.8 C 60 % 7.12 C
3425 10-04-2020 21:20:00 14.6 C 61 % 7.17 C
Sensor: Nr:Datum:Temp:Feuchte:Taupunkt:
Aussen-T/F 3426 10-04-2020 21:25:00 14.4 C 61 % 6.98 C
3427 10-04-2020 21:30:00 14.3 C 61 % 6.89 C
3428 10-04-2020 21:35:00 14.2 C 60 % 6.56 C
3429 10-04-2020 21:40:00 14.2 C 61 % 6.8 C
3430 10-04-2020 21:45:00 14.2 C 62 % 7.03 C
3431 10-04-2020 21:50:00 14.1 C 62 % 6.94 C
3432 10-04-2020 21:55:00 14 C 62 % 6.84 C
3433 10-04-2020 22:00:00 13.9 C 64 % 7.21 C
3434 10-04-2020 22:05:00 13.9 C 64 % 7.21 C
3435 10-04-2020 22:10:00 13.9 C 63 % 6.98 C
3436 10-04-2020 22:15:00 14 C 64 % 7.31 C
3437 10-04-2020 22:20:00 14.1 C 64 % 7.4 C
3438 10-04-2020 22:25:00 14.2 C 65 % 7.72 C
3439 10-04-2020 22:30:00 14.2 C 63 % 7.27 C
3440 10-04-2020 22:35:00 14.2 C 64 % 7.5 C
3441 10-04-2020 22:40:00 14.2 C 64 % 7.5 C
3442 10-04-2020 22:45:00 14.1 C 64 % 7.4 C
3443 10-04-2020 22:50:00 14 C 63 % 7.08 C
3444 10-04-2020 22:55:00 13.9 C 63 % 6.98 C
3445 10-04-2020 23:00:00 13.7 C 63 % 6.79 C
3446 10-04-2020 23:05:00 13.6 C 63 % 6.7 C
3447 10-04-2020 23:10:00 13.4 C 64 % 6.74 C
3448 10-04-2020 23:15:00 13.2 C 65 % 6.77 C
3449 10-04-2020 23:20:00 13 C 65 % 6.58 C
3450 10-04-2020 23:25:00 12.8 C 65 % 6.39 C
Sensor: Nr:Datum:Temp:Feuchte:Taupunkt:
Aussen-T/F 3451 10-04-2020 23:30:00 12.7 C 66 % 6.52 C
3452 10-04-2020 23:35:00 12.6 C 67 % 6.64 C
3453 10-04-2020 23:40:00 12.4 C 68 % 6.67 C
3454 10-04-2020 23:45:00 12.3 C 68 % 6.57 C
3455 10-04-2020 23:50:00 12.1 C 69 % 6.59 C
3456 10-04-2020 23:55:00 11.9 C 69 % 6.4 C
3457 11-04-2020 00:00:00 11.8 C 70 % 6.51 C
3458 11-04-2020 00:05:00 11.7 C 70 % 6.42 C
3459 11-04-2020 00:10:00 11.5 C 71 % 6.43 C
3460 11-04-2020 00:15:00 11.4 C 71 % 6.34 C
3461 11-04-2020 00:20:00 11.3 C 71 % 6.24 C
3462 11-04-2020 00:25:00 11.2 C 72 % 6.35 C
3463 11-04-2020 00:30:00 11.1 C 72 % 6.25 C
3464 11-04-2020 00:35:00 11 C 72 % 6.15 C
3465 11-04-2020 00:40:00 10.8 C 73 % 6.16 C
3466 11-04-2020 00:45:00 10.8 C 72 % 5.96 C
3467 11-04-2020 00:50:00 10.7 C 73 % 6.07 C
3468 11-04-2020 00:55:00 10.7 C 72 % 5.87 C
3469 11-04-2020 01:00:00 10.6 C 72 % 5.77 C
3470 11-04-2020 01:05:00 10.5 C 72 % 5.67 C
3471 11-04-2020 01:10:00 10.4 C 72 % 5.58 C
3472 11-04-2020 01:15:00 10.3 C 73 % 5.68 C
3473 11-04-2020 01:20:00 10.2 C 73 % 5.58 C
3474 11-04-2020 01:25:00 10 C 73 % 5.39 C
3475 11-04-2020 01:30:00 9.9 C 74 % 5.49 C
Sensor: Nr:Datum:Temp:Feuchte:Taupunkt:
Aussen-T/F 3476 11-04-2020 01:35:00 9.8 C 74 % 5.39 C
3477 11-04-2020 01:40:00 9.7 C 73 % 5.1 C
3478 11-04-2020 01:45:00 9.6 C 73 % 5.01 C
3479 11-04-2020 01:50:00 9.6 C 74 % 5.2 C
3480 11-04-2020 01:55:00 9.4 C 74 % 5.01 C
3481 11-04-2020 02:00:00 9.3 C 74 % 4.91 C
3482 11-04-2020 02:05:00 9.2 C 74 % 4.81 C
3483 11-04-2020 02:10:00 9.1 C 74 % 4.72 C
3484 11-04-2020 02:15:00 9.1 C 75 % 4.91 C
3485 11-04-2020 02:20:00 9 C 74 % 4.62 C
3486 11-04-2020 02:25:00 8.9 C 74 % 4.53 C
3487 11-04-2020 02:30:00 8.9 C 74 % 4.53 C
3488 11-04-2020 02:35:00 8.9 C 74 % 4.53 C
3489 11-04-2020 02:40:00 8.9 C 74 % 4.53 C
3490 11-04-2020 02:45:00 8.9 C 74 % 4.53 C
3491 11-04-2020 02:50:00 8.8 C 74 % 4.43 C
3492 11-04-2020 02:55:00 8.7 C 74 % 4.33 C
3493 11-04-2020 03:00:00 8.7 C 74 % 4.33 C
3494 11-04-2020 03:05:00 8.6 C 73 % 4.04 C
3495 11-04-2020 03:10:00 8.6 C 73 % 4.04 C
3496 11-04-2020 03:15:00 8.6 C 71 % 3.65 C
3497 11-04-2020 03:20:00 8.6 C 70 % 3.45 C
3498 11-04-2020 03:25:00 8.6 C 70 % 3.45 C
3499 11-04-2020 03:30:00 8.6 C 70 % 3.45 C
3500 11-04-2020 03:35:00 8.5 C 70 % 3.35 C
Sensor: Nr:Datum:Temp:Feuchte:Taupunkt:
Aussen-T/F 3501 11-04-2020 03:40:00 8.4 C 72 % 3.65 C
3502 11-04-2020 03:45:00 8.3 C 71 % 3.36 C
3503 11-04-2020 03:50:00 8.3 C 71 % 3.36 C
3504 11-04-2020 03:55:00 8.2 C 70 % 3.06 C
3505 11-04-2020 04:00:00 8.2 C 71 % 3.26 C
3506 11-04-2020 04:05:00 8.1 C 71 % 3.17 C
3507 11-04-2020 04:10:00 8.1 C 71 % 3.17 C
3508 11-04-2020 04:15:00 8 C 70 % 2.87 C
3509 11-04-2020 04:20:00 7.9 C 69 % 2.57 C
3510 11-04-2020 04:25:00 7.9 C 70 % 2.78 C
3511 11-04-2020 04:30:00 7.8 C 69 % 2.48 C
3512 11-04-2020 04:35:00 7.8 C 70 % 2.68 C
3513 11-04-2020 04:40:00 7.7 C 70 % 2.58 C
3514 11-04-2020 04:45:00 7.7 C 70 % 2.58 C
3515 11-04-2020 04:50:00 7.6 C 69 % 2.29 C
3516 11-04-2020 04:55:00 7.6 C 68 % 2.08 C
3517 11-04-2020 05:00:00 7.5 C 68 % 1.99 C
3518 11-04-2020 05:05:00 7.5 C 69 % 2.19 C
3519 11-04-2020 05:10:00 7.4 C 69 % 2.1 C
3520 11-04-2020 05:15:00 7.3 C 68 % 1.8 C
3521 11-04-2020 05:20:00 7.3 C 70 % 2.2 C
3522 11-04-2020 05:25:00 7.2 C 69 % 1.9 C
3523 11-04-2020 05:30:00 7.1 C 70 % 2.01 C
3524 11-04-2020 05:35:00 6.9 C 70 % 1.82 C
3525 11-04-2020 05:40:00 6.8 C 72 % 2.12 C
Sensor: Nr:Datum:Temp:Feuchte:Taupunkt:
Aussen-T/F 3526 11-04-2020 05:45:00 6.7 C 73 % 2.21 C
3527 11-04-2020 05:50:00 6.6 C 72 % 1.92 C
3528 11-04-2020 05:55:00 6.5 C 73 % 2.02 C
3529 11-04-2020 06:00:00 6.4 C 73 % 1.92 C
3530 11-04-2020 06:05:00 6.3 C 74 % 2.02 C
3531 11-04-2020 06:10:00 6.2 C 75 % 2.11 C
3532 11-04-2020 06:15:00 6 C 76 % 2.1 C
3533 11-04-2020 06:20:00 5.8 C 76 % 1.91 C
3534 11-04-2020 06:25:00 5.7 C 76 % 1.81 C
3535 11-04-2020 06:30:00 5.7 C 76 % 1.81 C
3536 11-04-2020 06:35:00 5.7 C 76 % 1.81 C
3537 11-04-2020 06:40:00 5.6 C 76 % 1.71 C
3538 11-04-2020 06:45:00 5.5 C 77 % 1.8 C
3539 11-04-2020 06:50:00 5.4 C 77 % 1.7 C
3540 11-04-2020 06:55:00 5.4 C 77 % 1.7 C
3541 11-04-2020 07:00:00 5.3 C 77 % 1.6 C
3542 11-04-2020 07:05:00 5.2 C 78 % 1.69 C
3543 11-04-2020 07:10:00 5.2 C 78 % 1.69 C
3544 11-04-2020 07:15:00 5.2 C 78 % 1.69 C
3545 11-04-2020 07:20:00 5.2 C 79 % 1.86 C
3546 11-04-2020 07:25:00 5.2 C 79 % 1.86 C
3547 11-04-2020 07:30:00 5.1 C 79 % 1.77 C
3548 11-04-2020 07:35:00 5.2 C 79 % 1.86 C
3549 11-04-2020 07:40:00 5.2 C 79 % 1.86 C
3550 11-04-2020 07:45:00 5.2 C 78 % 1.69 C
Sensor: Nr:Datum:Temp:Feuchte:Taupunkt:
Aussen-T/F 3551 11-04-2020 07:50:00 5.3 C 78 % 1.78 C
3552 11-04-2020 07:55:00 5.4 C 78 % 1.88 C
3553 11-04-2020 08:00:00 5.4 C 78 % 1.88 C
3554 11-04-2020 08:05:00 5.5 C 78 % 1.98 C
3555 11-04-2020 08:10:00 5.6 C 78 % 2.07 C
3556 11-04-2020 08:15:00 5.6 C 78 % 2.07 C
3557 11-04-2020 08:20:00 5.7 C 78 % 2.17 C
3558 11-04-2020 08:25:00 5.7 C 78 % 2.17 C
3559 11-04-2020 08:30:00 5.8 C 78 % 2.27 C
3560 11-04-2020 08:35:00 5.8 C 76 % 1.91 C
3561 11-04-2020 08:40:00 5.9 C 76 % 2 C
3562 11-04-2020 08:45:00 6.1 C 77 % 2.38 C
3563 11-04-2020 08:50:00 6.2 C 76 % 2.29 C
3564 11-04-2020 08:55:00 6.3 C 77 % 2.57 C
3565 11-04-2020 09:00:00 6.4 C 75 % 2.3 C
3566 11-04-2020 09:05:00 6.6 C 74 % 2.31 C
3567 11-04-2020 09:10:00 6.7 C 74 % 2.4 C
3568 11-04-2020 09:15:00 6.9 C 74 % 2.6 C
3569 11-04-2020 09:20:00 7 C 74 % 2.69 C
3570 11-04-2020 09:25:00 7.2 C 74 % 2.89 C
3571 11-04-2020 09:30:00 7.3 C 74 % 2.98 C
3572 11-04-2020 09:35:00 7.5 C 74 % 3.17 C
3573 11-04-2020 09:40:00 7.7 C 74 % 3.37 C
3574 11-04-2020 09:45:00 7.9 C 73 % 3.37 C
3575 11-04-2020 09:50:00 8.2 C 72 % 3.46 C
Sensor: Nr:Datum:Temp:Feuchte:Taupunkt:
Aussen-T/F 3576 11-04-2020 09:55:00 8.4 C 71 % 3.46 C
3577 11-04-2020 10:00:00 8.6 C 71 % 3.65 C
3578 11-04-2020 10:05:00 8.8 C 69 % 3.44 C
3579 11-04-2020 10:10:00 9.1 C 69 % 3.72 C
3580 11-04-2020 10:15:00 9.3 C 70 % 4.12 C
3581 11-04-2020 10:20:00 9.5 C 68 % 3.9 C
3582 11-04-2020 10:25:00 9.8 C 67 % 3.97 C
3583 11-04-2020 10:30:00 10.1 C 66 % 4.05 C
3584 11-04-2020 10:35:00 10.4 C 62 % 3.44 C
3585 11-04-2020 10:40:00 10.7 C 62 % 3.73 C
3586 11-04-2020 10:45:00 11.2 C 55 % 2.51 C
3587 11-04-2020 10:50:00 11.6 C 59 % 3.87 C
3588 11-04-2020 10:55:00 11.9 C 59 % 4.15 C
3589 11-04-2020 11:00:00 12.2 C 56 % 3.69 C
3590 11-04-2020 11:05:00 12.4 C 58 % 4.38 C
3591 11-04-2020 11:10:00 12.7 C 55 % 3.9 C
3592 11-04-2020 11:15:00 13.1 C 52 % 3.48 C
3593 11-04-2020 11:20:00 13.5 C 51 % 3.57 C
3594 11-04-2020 11:25:00 14 C 51 % 4.04 C
3595 11-04-2020 11:30:00 14.4 C 49 % 3.83 C
3596 11-04-2020 11:35:00 14.8 C 47 % 3.61 C
3597 11-04-2020 11:40:00 15.2 C 46 % 3.67 C
3598 11-04-2020 11:45:00 15.6 C 48 % 4.64 C
3599 11-04-2020 11:50:00 15.8 C 45 % 3.9 C
3600 11-04-2020 11:55:00 16.2 C 44 % 3.95 C
Sensor: Nr:Datum:Temp:Feuchte:Taupunkt:
Aussen-T/F 3601 11-04-2020 12:00:00 16.6 C 43 % 3.98 C
3602 11-04-2020 12:05:00 16.9 C 43 % 4.25 C
3603 11-04-2020 12:10:00 17.2 C 42 % 4.19 C
3604 11-04-2020 12:15:00 17.5 C 41 % 4.12 C
3605 11-04-2020 12:20:00 17.8 C 40 % 4.03 C
3606 11-04-2020 12:25:00 18.1 C 38 % 3.57 C
3607 11-04-2020 12:30:00 18.3 C 38 % 3.75 C
3608 11-04-2020 12:35:00 18.6 C 40 % 4.75 C
3609 11-04-2020 12:40:00 18.7 C 39 % 4.48 C
3610 11-04-2020 12:45:00 18.8 C 37 % 3.82 C
3611 11-04-2020 12:50:00 18.8 C 37 % 3.82 C
3612 11-04-2020 12:55:00 18.9 C 37 % 3.91 C
3613 11-04-2020 13:00:00 19.1 C 36 % 3.7 C
3614 11-04-2020 13:05:00 19.2 C 36 % 3.78 C
3615 11-04-2020 13:10:00 19.4 C 36 % 3.96 C
3616 11-04-2020 13:15:00 19.5 C 36 % 4.05 C
3617 11-04-2020 13:20:00 19.6 C 35 % 3.74 C
3618 11-04-2020 13:25:00 19.6 C 36 % 4.14 C
3619 11-04-2020 13:30:00 19.8 C 37 % 4.7 C
3620 11-04-2020 13:35:00 19.9 C 36 % 4.4 C
3621 11-04-2020 13:40:00 20.1 C 36 % 4.58 C
3622 11-04-2020 13:45:00 20.2 C 36 % 4.67 C
3623 11-04-2020 13:50:00 20.3 C 36 % 4.76 C
3624 11-04-2020 13:55:00 20.4 C 36 % 4.84 C
3625 11-04-2020 14:00:00 20.6 C 37 % 5.41 C
Sensor: Nr:Datum:Temp:Feuchte:Taupunkt:
Aussen-T/F 3626 11-04-2020 14:05:00 20.6 C 37 % 5.41 C
3627 11-04-2020 14:10:00 20.7 C 36 % 5.11 C
3628 11-04-2020 14:15:00 20.9 C 36 % 5.28 C
3629 11-04-2020 14:20:00 20.9 C 37 % 5.68 C
3630 11-04-2020 14:25:00 21.2 C 37 % 5.94 C
3631 11-04-2020 14:30:00 21.4 C 36 % 5.73 C
3632 11-04-2020 14:35:00 21.4 C 35 % 5.32 C
3633 11-04-2020 14:40:00 21.5 C 35 % 5.41 C
3634 11-04-2020 14:45:00 21.7 C 34 % 5.17 C
3635 11-04-2020 14:50:00 21.8 C 36 % 6.08 C
3636 11-04-2020 14:55:00 22.1 C 35 % 5.94 C
3637 11-04-2020 15:00:00 22.1 C 34 % 5.52 C
3638 11-04-2020 15:05:00 22.1 C 36 % 6.34 C
3639 11-04-2020 15:10:00 22.1 C 35 % 5.94 C
3640 11-04-2020 15:15:00 22.2 C 34 % 5.61 C
3641 11-04-2020 15:20:00 22.2 C 35 % 6.02 C
3642 11-04-2020 15:25:00 22.1 C 35 % 5.94 C
3643 11-04-2020 15:30:00 22.1 C 35 % 5.94 C
3644 11-04-2020 15:35:00 22.1 C 35 % 5.94 C
3645 11-04-2020 15:40:00 22.1 C 35 % 5.94 C
3646 11-04-2020 15:45:00 22.2 C 36 % 6.43 C
3647 11-04-2020 15:50:00 22.2 C 35 % 6.02 C
3648 11-04-2020 15:55:00 22.2 C 35 % 6.02 C
3649 11-04-2020 16:00:00 22.2 C 36 % 6.43 C
3650 11-04-2020 16:05:00 22.2 C 37 % 6.83 C
Sensor: Nr:Datum:Temp:Feuchte:Taupunkt:
Aussen-T/F 3651 11-04-2020 16:10:00 22.4 C 36 % 6.61 C
3652 11-04-2020 16:15:00 22.7 C 35 % 6.46 C
3653 11-04-2020 16:20:00 22.8 C 35 % 6.55 C
3654 11-04-2020 16:25:00 23 C 34 % 6.31 C
3655 11-04-2020 16:30:00 23.3 C 36 % 7.4 C
3656 11-04-2020 16:35:00 23.7 C 33 % 6.49 C
3657 11-04-2020 16:40:00 24.1 C 34 % 7.27 C
3658 11-04-2020 16:45:00 24.4 C 35 % 7.96 C
3659 11-04-2020 16:50:00 24.8 C 32 % 7 C
3660 11-04-2020 16:55:00 24.9 C 33 % 7.53 C
3661 11-04-2020 17:00:00 24.8 C 31 % 6.54 C
3662 11-04-2020 17:05:00 24.7 C 32 % 6.91 C
3663 11-04-2020 17:10:00 24.6 C 32 % 6.82 C
3664 11-04-2020 17:15:00 24.6 C 32 % 6.82 C
3665 11-04-2020 17:20:00 24.4 C 33 % 7.1 C
3666 11-04-2020 17:25:00 24.6 C 33 % 7.27 C
3667 11-04-2020 17:30:00 24.6 C 32 % 6.82 C
3668 11-04-2020 17:35:00 24.2 C 33 % 6.92 C
3669 11-04-2020 17:40:00 24.1 C 33 % 6.84 C
3670 11-04-2020 17:45:00 23.9 C 34 % 7.1 C
3671 11-04-2020 17:50:00 24.1 C 33 % 6.84 C
3672 11-04-2020 17:55:00 24.1 C 32 % 6.39 C
3673 11-04-2020 18:00:00 24.2 C 33 % 6.92 C
3674 11-04-2020 18:05:00 24.1 C 33 % 6.84 C
3675 11-04-2020 18:10:00 23.9 C 33 % 6.66 C
Sensor: Nr:Datum:Temp:Feuchte:Taupunkt:
Aussen-T/F 3676 11-04-2020 18:15:00 23.8 C 33 % 6.57 C
3677 11-04-2020 18:20:00 23.8 C 33 % 6.57 C
3678 11-04-2020 18:25:00 23.9 C 33 % 6.66 C
3679 11-04-2020 18:30:00 24 C 33 % 6.75 C
3680 11-04-2020 18:35:00 24.3 C 33 % 7.01 C
3681 11-04-2020 18:40:00 24.2 C 34 % 7.36 C
3682 11-04-2020 18:45:00 24.2 C 32 % 6.48 C
3683 11-04-2020 18:50:00 24.1 C 32 % 6.39 C
3684 11-04-2020 18:55:00 23.8 C 33 % 6.57 C
3685 11-04-2020 19:00:00 23.8 C 33 % 6.57 C
3686 11-04-2020 19:05:00 23.9 C 33 % 6.66 C
3687 11-04-2020 19:10:00 23.8 C 34 % 7.01 C
3688 11-04-2020 19:15:00 23.6 C 36 % 7.67 C
3689 11-04-2020 19:20:00 23.4 C 37 % 7.89 C
3690 11-04-2020 19:25:00 23.2 C 33 % 6.05 C
3691 11-04-2020 19:30:00 22.9 C 35 % 6.64 C
3692 11-04-2020 19:35:00 22.7 C 35 % 6.46 C
3693 11-04-2020 19:40:00 22.4 C 38 % 7.4 C
3694 11-04-2020 19:45:00 22.1 C 41 % 8.24 C
3695 11-04-2020 19:50:00 21.5 C 42 % 8.06 C
3696 11-04-2020 19:55:00 20.7 C 45 % 8.35 C
3697 11-04-2020 20:00:00 19.9 C 46 % 7.95 C
3698 11-04-2020 20:05:00 19.2 C 47 % 7.63 C
3699 11-04-2020 20:10:00 18.6 C 49 % 7.69 C
3700 11-04-2020 20:15:00 18 C 50 % 7.43 C
Sensor: Nr:Datum:Temp:Feuchte:Taupunkt:
Aussen-T/F 3701 11-04-2020 20:20:00 17.6 C 51 % 7.35 C
3702 11-04-2020 20:25:00 17.1 C 53 % 7.45 C
3703 11-04-2020 20:30:00 16.8 C 53 % 7.18 C
3704 11-04-2020 20:35:00 16.5 C 53 % 6.9 C
3705 11-04-2020 20:40:00 16.3 C 54 % 6.98 C
3706 11-04-2020 20:45:00 16.1 C 54 % 6.8 C
3707 11-04-2020 20:50:00 15.9 C 55 % 6.88 C
3708 11-04-2020 20:55:00 15.8 C 55 % 6.79 C
3709 11-04-2020 21:00:00 15.7 C 53 % 6.16 C
3710 11-04-2020 21:05:00 15.6 C 56 % 6.86 C
3711 11-04-2020 21:10:00 15.5 C 56 % 6.77 C
3712 11-04-2020 21:15:00 15.4 C 56 % 6.68 C
3713 11-04-2020 21:20:00 15.3 C 56 % 6.58 C
3714 11-04-2020 21:25:00 15.3 C 56 % 6.58 C
3715 11-04-2020 21:30:00 15.2 C 57 % 6.75 C
3716 11-04-2020 21:35:00 15.1 C 58 % 6.91 C
3717 11-04-2020 21:40:00 14.9 C 57 % 6.47 C
3718 11-04-2020 21:45:00 14.8 C 57 % 6.37 C
3719 11-04-2020 21:50:00 14.8 C 58 % 6.63 C
3720 11-04-2020 21:55:00 14.6 C 60 % 6.93 C
3721 11-04-2020 22:00:00 14.4 C 59 % 6.5 C
3722 11-04-2020 22:05:00 14.3 C 60 % 6.65 C
3723 11-04-2020 22:10:00 14.2 C 60 % 6.56 C
3724 11-04-2020 22:15:00 14.1 C 60 % 6.46 C
3725 11-04-2020 22:20:00 14.1 C 60 % 6.46 C
Sensor: Nr:Datum:Temp:Feuchte:Taupunkt:
Aussen-T/F 3726 11-04-2020 22:25:00 14.1 C 61 % 6.7 C
3727 11-04-2020 22:30:00 14.1 C 62 % 6.94 C
3728 11-04-2020 22:35:00 14.1 C 63 % 7.17 C
3729 11-04-2020 22:40:00 14.1 C 63 % 7.17 C
3730 11-04-2020 22:45:00 14.2 C 63 % 7.27 C
3731 11-04-2020 22:50:00 14.2 C 64 % 7.5 C
3732 11-04-2020 22:55:00 14.2 C 65 % 7.72 C
3733 11-04-2020 23:00:00 14.2 C 64 % 7.5 C
3734 11-04-2020 23:05:00 14 C 64 % 7.31 C
3735 11-04-2020 23:10:00 13.8 C 63 % 6.89 C
3736 11-04-2020 23:15:00 13.6 C 64 % 6.93 C
3737 11-04-2020 23:20:00 13.4 C 64 % 6.74 C
3738 11-04-2020 23:25:00 13.3 C 65 % 6.87 C
3739 11-04-2020 23:30:00 13.1 C 65 % 6.68 C
3740 11-04-2020 23:35:00 12.8 C 66 % 6.61 C
3741 11-04-2020 23:40:00 12.7 C 67 % 6.74 C
3742 11-04-2020 23:45:00 12.5 C 67 % 6.55 C
3743 11-04-2020 23:50:00 12.3 C 69 % 6.78 C
3744 11-04-2020 23:55:00 12.2 C 69 % 6.69 C
3745 12-04-2020 00:00:00 12.1 C 69 % 6.59 C
3746 12-04-2020 00:05:00 12.2 C 70 % 6.9 C
3747 12-04-2020 00:10:00 12.1 C 69 % 6.59 C
3748 12-04-2020 00:15:00 12 C 69 % 6.5 C
3749 12-04-2020 00:20:00 11.9 C 70 % 6.61 C
3750 12-04-2020 00:25:00 11.8 C 71 % 6.72 C
Sensor: Nr:Datum:Temp:Feuchte:Taupunkt:
Aussen-T/F 3751 12-04-2020 00:30:00 11.7 C 71 % 6.62 C
3752 12-04-2020 00:35:00 11.6 C 72 % 6.73 C
3753 12-04-2020 00:40:00 11.6 C 71 % 6.53 C
3754 12-04-2020 00:45:00 11.6 C 71 % 6.53 C
3755 12-04-2020 00:50:00 11.7 C 70 % 6.42 C
3756 12-04-2020 00:55:00 11.7 C 70 % 6.42 C
3757 12-04-2020 01:00:00 11.6 C 70 % 6.32 C
3758 12-04-2020 01:05:00 11.5 C 70 % 6.23 C
3759 12-04-2020 01:10:00 11.4 C 71 % 6.34 C
3760 12-04-2020 01:15:00 11.3 C 71 % 6.24 C
3761 12-04-2020 01:20:00 11.1 C 70 % 5.84 C
3762 12-04-2020 01:25:00 11 C 71 % 5.95 C
3763 12-04-2020 01:30:00 10.9 C 71 % 5.86 C
3764 12-04-2020 01:35:00 10.8 C 72 % 5.96 C
3765 12-04-2020 01:40:00 10.7 C 71 % 5.66 C
3766 12-04-2020 01:45:00 10.6 C 72 % 5.77 C
3767 12-04-2020 01:50:00 10.6 C 71 % 5.57 C
3768 12-04-2020 01:55:00 10.7 C 72 % 5.87 C
3769 12-04-2020 02:00:00 10.8 C 72 % 5.96 C
3770 12-04-2020 02:05:00 10.8 C 73 % 6.16 C
3771 12-04-2020 02:10:00 10.9 C 74 % 6.45 C
3772 12-04-2020 02:15:00 10.9 C 75 % 6.65 C
3773 12-04-2020 02:20:00 10.9 C 75 % 6.65 C
3774 12-04-2020 02:25:00 10.8 C 74 % 6.36 C
3775 12-04-2020 02:30:00 10.7 C 73 % 6.07 C
Sensor: Nr:Datum:Temp:Feuchte:Taupunkt:
Aussen-T/F 3776 12-04-2020 02:35:00 10.7 C 73 % 6.07 C
3777 12-04-2020 02:40:00 10.7 C 73 % 6.07 C
3778 12-04-2020 02:45:00 10.7 C 73 % 6.07 C
3779 12-04-2020 02:50:00 10.6 C 74 % 6.17 C
3780 12-04-2020 02:55:00 10.5 C 75 % 6.26 C
3781 12-04-2020 03:00:00 10.4 C 74 % 5.97 C
3782 12-04-2020 03:05:00 10.4 C 75 % 6.17 C
3783 12-04-2020 03:10:00 10.4 C 76 % 6.36 C
3784 12-04-2020 03:15:00 10.4 C 77 % 6.55 C
3785 12-04-2020 03:20:00 10.4 C 77 % 6.55 C
3786 12-04-2020 03:25:00 10.4 C 76 % 6.36 C
3787 12-04-2020 03:30:00 10.4 C 76 % 6.36 C
3788 12-04-2020 03:35:00 10.4 C 77 % 6.55 C
3789 12-04-2020 03:40:00 10.4 C 77 % 6.55 C
3790 12-04-2020 03:45:00 10.3 C 77 % 6.45 C
3791 12-04-2020 03:50:00 10.3 C 77 % 6.45 C
3792 12-04-2020 03:55:00 10.3 C 77 % 6.45 C
3793 12-04-2020 04:00:00 10.3 C 77 % 6.45 C
3794 12-04-2020 04:05:00 10.3 C 78 % 6.64 C
3795 12-04-2020 04:10:00 10.2 C 78 % 6.54 C
3796 12-04-2020 04:15:00 10.1 C 77 % 6.26 C
3797 12-04-2020 04:20:00 9.9 C 77 % 6.06 C
3798 12-04-2020 04:25:00 9.7 C 78 % 6.06 C
3799 12-04-2020 04:30:00 9.6 C 78 % 5.96 C
3800 12-04-2020 04:35:00 9.4 C 79 % 5.95 C
Sensor: Nr:Datum:Temp:Feuchte:Taupunkt:
Aussen-T/F 3801 12-04-2020 04:40:00 9.3 C 79 % 5.85 C
3802 12-04-2020 04:45:00 9.3 C 80 % 6.03 C
3803 12-04-2020 04:50:00 9.2 C 80 % 5.94 C
3804 12-04-2020 04:55:00 9.1 C 80 % 5.84 C
3805 12-04-2020 05:00:00 8.9 C 81 % 5.82 C
3806 12-04-2020 05:05:00 8.8 C 81 % 5.72 C
3807 12-04-2020 05:10:00 8.8 C 82 % 5.9 C
3808 12-04-2020 05:15:00 8.8 C 82 % 5.9 C
3809 12-04-2020 05:20:00 8.8 C 82 % 5.9 C
3810 12-04-2020 05:25:00 8.8 C 82 % 5.9 C
3811 12-04-2020 05:30:00 8.8 C 82 % 5.9 C
3812 12-04-2020 05:35:00 8.7 C 82 % 5.8 C
3813 12-04-2020 05:40:00 8.6 C 82 % 5.71 C
3814 12-04-2020 05:45:00 8.4 C 83 % 5.69 C
3815 12-04-2020 05:50:00 8.4 C 83 % 5.69 C
3816 12-04-2020 05:55:00 8.3 C 83 % 5.59 C
3817 12-04-2020 06:00:00 8.2 C 83 % 5.49 C
3818 12-04-2020 06:05:00 8.2 C 84 % 5.66 C
3819 12-04-2020 06:10:00 8.1 C 84 % 5.56 C
3820 12-04-2020 06:15:00 8.1 C 84 % 5.56 C
3821 12-04-2020 06:20:00 7.9 C 84 % 5.37 C
3822 12-04-2020 06:25:00 7.9 C 85 % 5.54 C
3823 12-04-2020 06:30:00 7.8 C 85 % 5.44 C
3824 12-04-2020 06:35:00 7.8 C 86 % 5.61 C
3825 12-04-2020 06:40:00 7.8 C 86 % 5.61 C
Sensor: Nr:Datum:Temp:Feuchte:Taupunkt:
Aussen-T/F 3826 12-04-2020 06:45:00 7.8 C 86 % 5.61 C
3827 12-04-2020 06:50:00 7.8 C 86 % 5.61 C
3828 12-04-2020 06:55:00 7.7 C 86 % 5.51 C
3829 12-04-2020 07:00:00 7.6 C 86 % 5.41 C
3830 12-04-2020 07:05:00 7.5 C 86 % 5.31 C
3831 12-04-2020 07:10:00 7.4 C 86 % 5.22 C
3832 12-04-2020 07:15:00 7.3 C 87 % 5.28 C
3833 12-04-2020 07:20:00 7.3 C 87 % 5.28 C
3834 12-04-2020 07:25:00 7.3 C 87 % 5.28 C
3835 12-04-2020 07:30:00 7.3 C 88 % 5.45 C
3836 12-04-2020 07:35:00 7.3 C 88 % 5.45 C
3837 12-04-2020 07:40:00 7.3 C 88 % 5.45 C
3838 12-04-2020 07:45:00 7.4 C 89 % 5.71 C
3839 12-04-2020 07:50:00 7.4 C 89 % 5.71 C
3840 12-04-2020 07:55:00 7.5 C 88 % 5.64 C
3841 12-04-2020 08:00:00 7.6 C 89 % 5.91 C
3842 12-04-2020 08:05:00 7.7 C 89 % 6 C
3843 12-04-2020 08:10:00 7.9 C 88 % 6.04 C
3844 12-04-2020 08:15:00 7.9 C 88 % 6.04 C
3845 12-04-2020 08:20:00 7.9 C 88 % 6.04 C
3846 12-04-2020 08:25:00 8 C 89 % 6.3 C
3847 12-04-2020 08:30:00 8 C 89 % 6.3 C
3848 12-04-2020 08:35:00 8.1 C 89 % 6.4 C
3849 12-04-2020 08:40:00 8.1 C 89 % 6.4 C
3850 12-04-2020 08:45:00 8.2 C 89 % 6.5 C
Sensor: Nr:Datum:Temp:Feuchte:Taupunkt:
Aussen-T/F 3851 12-04-2020 08:50:00 8.3 C 89 % 6.6 C
3852 12-04-2020 08:55:00 8.4 C 89 % 6.7 C
3853 12-04-2020 09:00:00 8.6 C 89 % 6.89 C
3854 12-04-2020 09:05:00 8.7 C 89 % 6.99 C
3855 12-04-2020 09:10:00 8.8 C 89 % 7.09 C
3856 12-04-2020 09:15:00 8.9 C 89 % 7.19 C
3857 12-04-2020 09:20:00 9.1 C 89 % 7.39 C
3858 12-04-2020 09:25:00 9.3 C 89 % 7.58 C
3859 12-04-2020 09:30:00 9.4 C 89 % 7.68 C
3860 12-04-2020 09:35:00 9.6 C 89 % 7.88 C
3861 12-04-2020 09:40:00 9.7 C 88 % 7.81 C
3862 12-04-2020 09:45:00 9.9 C 88 % 8.01 C
3863 12-04-2020 09:50:00 10.2 C 88 % 8.3 C
3864 12-04-2020 09:55:00 10.3 C 88 % 8.4 C
3865 12-04-2020 10:00:00 10.7 C 87 % 8.63 C
3866 12-04-2020 10:05:00 10.9 C 86 % 8.65 C
3867 12-04-2020 10:10:00 11.2 C 86 % 8.95 C
3868 12-04-2020 10:15:00 11.4 C 85 % 8.97 C
3869 12-04-2020 10:20:00 11.7 C 85 % 9.27 C
3870 12-04-2020 10:25:00 12 C 84 % 9.38 C
3871 12-04-2020 10:30:00 12.3 C 83 % 9.5 C
3872 12-04-2020 10:35:00 12.6 C 82 % 9.61 C
3873 12-04-2020 10:40:00 13.1 C 79 % 9.54 C
3874 12-04-2020 10:45:00 13.5 C 79 % 9.93 C
3875 12-04-2020 10:50:00 13.9 C 77 % 9.94 C
Sensor: Nr:Datum:Temp:Feuchte:Taupunkt:
Aussen-T/F 3876 12-04-2020 10:55:00 14.2 C 77 % 10.23 C
3877 12-04-2020 11:00:00 14.4 C 76 % 10.23 C
3878 12-04-2020 11:05:00 14.7 C 75 % 10.32 C
3879 12-04-2020 11:10:00 15.2 C 72 % 10.19 C
3880 12-04-2020 11:15:00 15.7 C 71 % 10.46 C
3881 12-04-2020 11:20:00 16.2 C 69 % 10.51 C
3882 12-04-2020 11:25:00 16.7 C 69 % 10.99 C
3883 12-04-2020 11:30:00 17 C 68 % 11.06 C
3884 12-04-2020 11:35:00 17.3 C 66 % 10.89 C
3885 12-04-2020 11:40:00 17.6 C 62 % 10.24 C
3886 12-04-2020 11:45:00 17.9 C 60 % 10.03 C
3887 12-04-2020 11:50:00 18.3 C 57 % 9.64 C
3888 12-04-2020 11:55:00 18.6 C 56 % 9.66 C
3889 12-04-2020 12:00:00 18.9 C 56 % 9.94 C
3890 12-04-2020 12:05:00 19.3 C 53 % 9.49 C
3891 12-04-2020 12:10:00 19.7 C 54 % 10.14 C
3892 12-04-2020 12:15:00 19.9 C 52 % 9.76 C
3893 12-04-2020 12:20:00 20.1 C 51 % 9.66 C
3894 12-04-2020 12:25:00 20.3 C 49 % 9.24 C
3895 12-04-2020 12:30:00